[[{"header":{"parameterUnit":"m.s-1","parameterCategory":1,"la1":30.6,"la2":28.766,"lo1":-90.7593,"lo2":-88.6598,"dy":0.0162,"dx":0.0183,"nx":116,"ny":114,"refTime":"2023-10-02T12:00:00:Z","depth":0,"parameterNumber":2,"parameterNumberName":"U-component_of_WINDS"},"data":[0.0,0.0,0.0,0.0,0.0,0.0,0.0,0.0,0.0,0.0,0.0,0.0,0.0,0.0,0.0,0.0,0.0,0.0,0.0,0.0,0.0,0.0,0.0,0.0,0.0,0.0,0.0,0.0,0.0,0.0,0.0,0.0,0.0,0.0,0.0,0.0,0.0,0.0,0.0,0.0,0.0,0.0,0.0,0.0,0.0,0.0,0.0,0.0,0.0,0.0,0.0,0.0,0.0,0.0,0.0,0.0,0.0,0.0,0.0,0.0,0.0,0.0,0.0,0.0,0.0,0.0,0.0,0.0,0.0,0.0,0.0,0.0,0.0,0.0,0.0,0.0,0.0,0.0,0.0,0.0,0.0,0.0,0.0,0.0,0.0,0.0,0.0,0.0,0.0,0.0,0.0,0.0,0.0,0.0,0.0,0.0,0.0,0.0,0.0,0.0,0.0,0.0,0.0,0.0,0.0,0.0,0.0,0.0,0.0,0.0,0.0,0.0,0.0,0.0,0.0,0.0,0.0,0.0,0.0,0.0,0.0,0.0,0.0,0.0,0.0,0.0,0.0,0.0,0.0,0.0,0.0,0.0,0.0,0.0,0.0,0.0,0.0,0.0,0.0,0.0,0.0,0.0,0.0,0.0,0.0,0.0,0.0,0.0,0.0,0.0,0.0,0.0,0.0,0.0,0.0,0.0,0.0,0.0,0.0,0.0,0.0,0.0,0.0,0.0,0.0,0.0,0.0,0.0,0.0,0.0,0.0,0.0,0.0,0.0,0.0,0.0,0.0,0.0,0.0,0.0,0.0,0.0,0.0,0.0,0.0,0.0,0.0,0.0,0.0,0.0,0.0,0.0,0.0,0.0,0.0,0.0,0.0,0.0,0.0,0.0,0.0,0.0,0.0,0.0,0.0,0.0,0.0,0.0,0.0,0.0,0.0,0.0,0.0,0.0,0.0,0.0,0.0,0.0,0.0,0.0,0.0,0.0,0.0,0.0,0.0,0.0,0.0,0.0,0.0,0.0,0.0,0.0,0.0,0.0,0.0,0.0,0.0,0.0,0.0,0.0,0.0,0.0,0.0,0.0,0.0,0.0,0.0,0.0,0.0,0.0,0.0,0.0,0.0,0.0,0.0,0.0,0.0,0.0,0.0,0.0,0.0,0.0,0.0,0.0,0.0,0.0,0.0,0.0,0.0,0.0,0.0,0.0,0.0,0.0,0.0,0.0,0.0,0.0,0.0,0.0,0.0,0.0,0.0,0.0,0.0,0.0,0.0,0.0,0.0,0.0,0.0,0.0,0.0,0.0,0.0,0.0,0.0,0.0,0.0,0.0,0.0,0.0,0.0,0.0,0.0,0.0,0.0,0.0,0.0,0.0,0.0,0.0,0.0,0.0,0.0,0.0,0.0,0.0,0.0,0.0,0.0,0.0,0.0,0.0,0.0,0.0,0.0,0.0,0.0,0.0,0.0,0.0,0.0,0.0,0.0,0.0,0.0,0.0,0.0,0.0,0.0,0.0,0.0,0.0,0.0,0.0,0.0,0.0,0.0,0.0,0.0,0.0,0.0,0.0,0.0,0.0,0.0,0.0,0.0,0.0,0.0,0.0,0.0,0.0,0.0,0.0,0.0,0.0,0.0,0.0,0.0,0.0,0.0,0.0,0.0,0.0,0.0,0.0,0.0,0.0,0.0,0.0,0.0,0.0,0.0,0.0,0.0,0.0,0.0,0.0,0.0,0.0,0.0,0.0,0.0,0.0,0.0,0.0,0.0,0.0,0.0,0.0,0.0,0.0,0.0,0.0,0.0,0.0,0.0,0.0,0.0,0.0,0.0,0.0,0.0,0.0,0.0,0.0,0.0,0.0,0.0,0.0,0.0,0.0,0.0,0.0,0.0,0.0,0.0,0.0,0.0,0.0,0.0,0.0,0.0,0.0,0.0,0.0,0.0,0.0,0.0,0.0,0.0,0.0,0.0,0.0,0.0,0.0,0.0,0.0,0.0,0.0,0.0,0.0,0.0,0.0,0.0,0.0,0.0,0.0,0.0,0.0,0.0,0.0,0.0,0.0,0.0,0.0,0.0,0.0,0.0,0.0,0.0,0.0,0.0,0.0,0.0,0.0,0.0,0.0,0.0,0.0,0.0,0.0,0.0,0.0,0.0,0.0,0.0,0.0,0.0,0.0,0.0,0.0,0.0,0.0,0.0,0.0,0.0,0.0,0.0,0.0,0.0,0.0,0.0,0.0,0.0,0.0,0.0,0.0,0.0,0.0,0.0,0.0,0.0,0.0,0.0,0.0,0.0,0.0,0.0,0.0,0.0,0.0,0.0,0.0,0.0,0.0,0.0,0.0,0.0,0.0,0.0,0.0,0.0,0.0,0.0,0.0,0.0,0.0,0.0,0.0,0.0,0.0,0.0,0.0,0.0,0.0,0.0,0.0,0.0,0.0,0.0,0.0,0.0,0.0,0.0,0.0,0.0,0.0,0.0,0.0,0.0,0.0,0.0,0.0,0.0,0.0,0.0,0.0,0.0,0.0,0.0,0.0,0.0,0.0,0.0,0.0,0.0,0.0,0.0,0.0,0.0,0.0,0.0,0.0,0.0,0.0,0.0,0.0,0.0,0.0,0.0,0.0,0.0,0.0,0.0,0.0,0.0,0.0,0.0,0.0,0.0,0.0,0.0,0.0,0.0,0.0,0.0,0.0,0.0,0.0,0.0,0.0,0.0,0.0,0.0,0.0,0.0,0.0,0.0,0.0,0.0,0.0,0.0,0.0,0.0,0.0,0.0,0.0,0.0,0.0,0.0,0.0,0.0,0.0,0.0,0.0,0.0,0.0,0.0,0.0,0.0,0.0,0.0,0.0,0.0,0.0,0.0,0.0,0.0,0.0,0.0,0.0,0.0,0.0,0.0,0.0,0.0,0.0,0.0,0.0,0.0,0.0,0.0,0.0,0.0,0.0,0.0,0.0,0.0,0.0,0.0,0.0,0.0,0.0,0.0,0.0,0.0,0.0,0.0,0.0,0.0,0.0,0.0,0.0,0.0,0.0,0.0,0.0,0.0,0.0,0.0,0.0,0.0,0.0,0.0,0.0,0.0,0.0,0.0,0.0,0.0,0.0,0.0,0.0,0.0,0.0,0.0,0.0,0.0,0.0,0.0,0.0,0.0,0.0,0.0,0.0,0.0,0.0,0.0,0.0,0.0,0.0,0.0,0.0,0.0,0.0,0.0,0.0,0.0,0.0,0.0,0.0,0.0,0.0,0.0,0.0,0.0,0.0,0.0,0.0,0.0,0.0,0.0,0.0,0.0,0.0,0.0,0.0,0.0,0.0,0.0,0.0,0.0,0.0,0.0,0.0,0.0,0.0,0.0,0.0,0.0,0.0,0.0,0.0,0.0,0.0,0.0,0.0,0.0,0.0,0.0,0.0,0.0,0.0,0.0,0.0,0.0,0.0,0.0,0.0,0.0,0.0,0.0,0.0,0.0,0.0,0.0,0.0,0.0,0.0,0.0,0.0,0.0,0.0,0.0,0.0,0.0,0.0,0.0,0.0,0.0,0.0,0.0,0.0,0.0,0.0,0.0,0.0,0.0,0.0,0.0,0.0,0.0,0.0,0.0,0.0,0.0,0.0,0.0,0.0,0.0,0.0,0.0,0.0,0.0,0.0,0.0,0.0,0.0,0.0,0.0,0.0,0.0,0.0,0.0,0.0,0.0,0.0,0.0,0.0,0.0,0.0,0.0,0.0,0.0,0.0,0.0,0.0,0.0,0.0,0.0,0.0,0.0,0.0,0.0,0.0,0.0,0.0,0.0,0.0,0.0,0.0,0.0,0.0,0.0,0.0,0.0,0.0,0.0,0.0,0.0,0.0,0.0,0.0,0.0,0.0,0.0,0.0,0.0,0.0,0.0,0.0,0.0,0.0,0.0,0.0,0.0,0.0,0.0,0.0,0.0,0.0,0.0,0.0,0.0,0.0,0.0,0.0,0.0,0.0,0.0,0.0,0.0,0.0,0.0,0.0,0.0,0.0,0.0,0.0,0.0,0.0,0.0,0.0,0.0,0.0,0.0,0.0,0.0,0.0,0.0,0.0,0.0,0.0,0.0,0.0,0.0,0.0,0.0,0.0,0.0,0.0,0.0,0.0,0.0,0.0,0.0,0.0,0.0,0.0,0.0,0.0,0.0,0.0,0.0,0.0,0.0,0.0,0.0,0.0,0.0,0.0,0.0,0.0,0.0,0.0,0.0,0.0,0.0,0.0,0.0,0.0,0.0,0.0,0.0,0.0,0.0,0.0,0.0,0.0,0.0,0.0,0.0,0.0,0.0,0.0,0.0,0.0,0.0,0.0,0.0,0.0,0.0,0.0,0.0,0.0,0.0,0.0,0.0,0.0,0.0,0.0,0.0,0.0,0.0,0.0,0.0,0.0,0.0,0.0,0.0,0.0,0.0,0.0,0.0,0.0,0.0,0.0,0.0,0.0,0.0,0.0,0.0,0.0,0.0,0.0,0.0,0.0,0.0,0.0,0.0,0.0,0.0,0.0,0.0,0.0,0.0,0.0,0.0,0.0,0.0,0.0,0.0,0.0,0.0,0.0,0.0,0.0,0.0,0.0,0.0,0.0,0.0,0.0,0.0,0.0,0.0,0.0,0.0,0.0,0.0,0.0,0.0,0.0,0.0,0.0,0.0,0.0,0.0,0.0,0.0,0.0,0.0,0.0,0.0,0.0,0.0,0.0,0.0,0.0,0.0,0.0,0.0,0.0,0.0,0.0,0.0,0.0,0.0,0.0,0.0,0.0,0.0,0.0,0.0,0.0,0.0,0.0,0.0,0.0,0.0,0.0,0.0,0.0,0.0,0.0,0.0,0.0,0.0,0.0,0.0,0.0,0.0,0.0,0.0,0.0,0.0,0.0,0.0,0.0,0.0,0.0,0.0,0.0,0.0,0.0,0.0,0.0,0.0,0.0,0.0,0.0,0.0,0.0,0.0,0.0,0.0,0.0,0.0,0.0,0.0,0.0,0.0,0.0,0.0,0.0,0.0,0.0,0.0,0.0,0.0,0.0,0.0,0.0,0.0,0.0,0.0,0.0,0.0,0.0,0.0,0.0,0.0,0.0,0.0,0.0,0.0,0.0,0.0,0.0,0.0,0.0,0.0,0.0,0.0,0.0,0.0,0.0,0.0,0.0,0.0,0.0,0.0,0.0,0.0,0.0,0.0,0.0,0.0,0.0,0.0,0.0,0.0,0.0,0.0,0.0,0.0,0.0,0.0,0.0,0.0,0.0,0.0,0.0,0.0,0.0,0.0,0.0,0.0,0.0,0.0,0.0,0.0,0.0,0.0,0.0,0.0,0.0,0.0,0.0,0.0,0.0,0.0,0.0,0.0,0.0,0.0,0.0,0.0,0.0,0.0,0.0,0.0,0.0,0.0,0.0,0.0,0.0,0.0,0.0,0.0,0.0,0.0,0.0,0.0,0.0,0.0,0.0,0.0,0.0,0.0,0.0,0.0,0.0,0.0,0.0,0.0,0.0,0.0,0.0,0.0,0.0,0.0,0.0,0.0,0.0,0.0,0.0,0.0,0.0,0.0,0.0,0.0,0.0,0.0,0.0,0.0,0.0,0.0,0.0,0.0,0.0,0.0,0.0,0.0,0.0,0.0,0.0,0.0,0.0,0.0,0.0,0.0,0.0,0.0,0.0,0.0,0.0,0.0,0.0,0.0,0.0,0.0,0.0,0.0,0.0,0.0,0.0,0.0,0.0,0.0,0.0,0.0,0.0,0.0,0.0,0.0,0.0,0.0,0.0,0.0,0.0,0.0,0.0,0.0,0.0,0.0,0.0,0.0,0.0,0.0,0.0,0.0,0.0,0.0,0.0,0.0,0.0,0.0,0.0,0.0,0.0,0.0,0.0,0.0,0.0,0.0,0.0,0.0,0.0,0.0,0.0,0.0,0.0,0.0,0.0,0.0,0.0,0.0,0.0,0.0,0.0,0.0,0.0,0.0,0.0,0.0,0.0,0.0,0.0,0.0,0.0,0.0,0.0,0.0,0.0,0.0,0.0,0.0,0.0,0.0,0.0,0.0,0.0,0.0,0.0,0.0,0.0,-3.6332,0.0,0.0,0.0,0.0,0.0,0.0,0.0,0.0,0.0,0.0,0.0,0.0,0.0,0.0,0.0,0.0,0.0,0.0,0.0,0.0,0.0,0.0,0.0,0.0,0.0,0.0,0.0,0.0,0.0,0.0,0.0,0.0,0.0,0.0,0.0,0.0,0.0,0.0,-2.9708,-2.9885,-3.0019,-3.0066,-3.132,-3.2037,-3.2196,0.0,0.0,0.0,0.0,0.0,0.0,0.0,0.0,0.0,0.0,0.0,0.0,0.0,0.0,0.0,0.0,0.0,0.0,0.0,0.0,0.0,0.0,0.0,0.0,0.0,0.0,0.0,0.0,0.0,0.0,0.0,0.0,0.0,0.0,0.0,0.0,0.0,0.0,0.0,0.0,0.0,0.0,0.0,0.0,0.0,0.0,0.0,0.0,0.0,0.0,0.0,0.0,0.0,0.0,0.0,0.0,0.0,0.0,0.0,0.0,0.0,0.0,0.0,0.0,0.0,0.0,0.0,0.0,0.0,0.0,0.0,-3.5577,0.0,0.0,0.0,0.0,0.0,0.0,0.0,0.0,0.0,0.0,0.0,0.0,0.0,0.0,0.0,0.0,0.0,0.0,0.0,0.0,0.0,0.0,0.0,-2.5137,-2.5596,-2.5674,-2.5693,-2.6159,0.0,0.0,0.0,0.0,0.0,0.0,-2.8773,-2.9186,-2.9336,-2.9248,-2.9768,-3.0095,-3.0182,-3.027,-3.0529,-3.0996,-3.106,0.0,0.0,0.0,0.0,0.0,0.0,0.0,0.0,0.0,0.0,0.0,0.0,0.0,0.0,0.0,0.0,0.0,0.0,0.0,0.0,0.0,0.0,0.0,0.0,0.0,0.0,0.0,0.0,0.0,0.0,0.0,0.0,0.0,0.0,0.0,0.0,0.0,0.0,0.0,0.0,0.0,0.0,0.0,0.0,0.0,0.0,0.0,0.0,0.0,0.0,0.0,0.0,0.0,0.0,0.0,0.0,0.0,0.0,0.0,0.0,0.0,0.0,0.0,-3.5589,-3.5969,-3.6095,-3.6305,-3.6023,-3.5422,-3.5753,-3.4464,-3.2307,0.0,0.0,0.0,0.0,0.0,0.0,0.0,0.0,0.0,0.0,0.0,0.0,0.0,0.0,0.0,0.0,0.0,0.0,0.0,0.0,-2.2843,-2.4237,-2.4863,-2.5312,-2.5654,-2.5693,-2.5791,-2.5917,0.0,0.0,0.0,0.0,-2.6207,-2.6207,-2.6625,-2.6665,-2.6287,-2.7103,-2.7699,-2.8078,-2.8456,-2.9216,-3.0245,-3.0617,-3.0945,-3.1255,0.0,0.0,0.0,0.0,0.0,0.0,0.0,0.0,0.0,0.0,0.0,0.0,0.0,0.0,0.0,0.0,0.0,0.0,0.0,0.0,0.0,0.0,0.0,0.0,0.0,0.0,0.0,0.0,0.0,0.0,0.0,0.0,0.0,0.0,0.0,0.0,0.0,0.0,0.0,0.0,0.0,-3.2869,-3.3391,0.0,0.0,0.0,0.0,0.0,0.0,0.0,0.0,0.0,0.0,0.0,0.0,0.0,-3.5034,-3.5245,-3.621,-3.6838,-3.7222,-3.7429,-3.794,-3.8754,-3.7236,-3.6889,-3.728,-3.4878,0.0,-3.3291,-3.2553,0.0,0.0,0.0,0.0,0.0,0.0,0.0,0.0,0.0,0.0,0.0,0.0,0.0,0.0,0.0,0.0,0.0,0.0,0.0,0.0,0.0,-2.3178,-2.3695,-2.3872,-2.4192,-2.4629,-2.5066,-2.508,0.0,0.0,-2.5693,-2.581,-2.6094,-2.6523,-2.6992,-2.7519,-2.791,-2.8301,-2.8785,-2.8926,-2.9312,-2.9816,-2.9999,-3.016,-3.0299,-3.0828,0.0,0.0,0.0,0.0,0.0,0.0,0.0,0.0,0.0,0.0,0.0,0.0,0.0,0.0,0.0,0.0,0.0,0.0,0.0,0.0,0.0,0.0,0.0,0.0,0.0,0.0,0.0,0.0,0.0,0.0,0.0,0.0,0.0,0.0,0.0,0.0,0.0,0.0,0.0,-3.198,-3.3201,-3.1906,-3.3295,-3.4028,0.0,0.0,0.0,0.0,0.0,0.0,0.0,0.0,0.0,-3.4975,-3.5152,-3.5079,-3.4696,-3.5624,-3.5829,-3.5271,-3.6282,-3.6488,-3.599,-3.617,-3.6465,-3.6725,-3.5124,-3.4175,-3.3817,-3.335,-3.3093,-3.2999,0.0,0.0,0.0,0.0,-3.0571,-3.0384,0.0,0.0,0.0,0.0,0.0,0.0,0.0,0.0,0.0,0.0,0.0,0.0,-2.1048,-2.1931,-2.2515,-2.2613,-2.3047,-2.3568,-2.4157,-2.4036,-2.4356,-2.526,-2.5339,-2.5473,-2.5798,-2.5904,-2.6555,-2.7714,-2.7771,-2.8257,-2.9144,-2.9259,-2.9543,-2.9902,-2.9902,-2.9829,-2.9702,-3.0414,-2.9965,-2.889,0.0,0.0,0.0,0.0,0.0,0.0,0.0,0.0,0.0,0.0,0.0,0.0,0.0,0.0,0.0,0.0,0.0,0.0,0.0,0.0,0.0,0.0,0.0,0.0,0.0,0.0,0.0,0.0,0.0,0.0,0.0,0.0,0.0,0.0,0.0,0.0,0.0,-3.2104,-3.2882,-3.0541,-3.2435,-3.353,0.0,0.0,0.0,0.0,0.0,0.0,-3.5024,-3.5337,-3.5499,-3.5476,-3.5577,-3.5352,-3.4792,-3.5508,-3.5412,-3.4525,-3.5675,-3.5559,-3.4404,-3.5519,-3.6008,-3.6004,-3.5455,-3.4877,-3.4426,-3.4228,-3.3609,-3.2773,-3.287,-3.2696,-3.2271,-3.1192,-3.0581,-3.0329,0.0,0.0,0.0,0.0,0.0,0.0,0.0,0.0,0.0,0.0,0.0,-1.9475,-2.1291,-2.2094,-2.2629,-2.2972,-2.2966,-2.3037,-2.3059,-2.2527,-2.2791,-2.414,-2.4293,-2.4311,-2.4227,-2.3538,-2.3624,-2.4537,-2.4771,-2.5953,-2.7871,-2.831,-2.9279,-3.082,-3.082,-3.0605,-3.0113,-2.9364,-2.8991,-2.8859,-2.8107,0.0,0.0,0.0,0.0,0.0,0.0,0.0,0.0,0.0,0.0,0.0,0.0,0.0,0.0,0.0,0.0,0.0,0.0,0.0,0.0,0.0,0.0,0.0,0.0,0.0,0.0,0.0,0.0,0.0,0.0,0.0,0.0,0.0,0.0,0.0,0.0,0.0,0.0,-3.0368,-3.3291,0.0,0.0,0.0,0.0,-3.4825,-3.5235,-3.5454,-3.5455,-3.5477,-3.5474,-3.5387,-3.5751,-3.6162,-3.6543,-3.6973,-3.7293,-3.7462,-3.7022,-3.6938,-3.7059,-3.6313,-3.5995,-3.5957,-3.5441,-3.5246,-3.5215,-3.3951,-3.3897,-3.4445,-3.2376,-3.2349,-3.3215,-3.1538,-3.0897,-3.0878,0.0,0.0,0.0,0.0,0.0,0.0,0.0,0.0,-1.6149,-1.7064,-1.7496,-1.8203,-1.9449,-2.0284,-2.0859,-2.1175,-2.1391,-2.1642,-2.1959,-2.1594,-2.1682,-2.2537,-2.2604,-2.2792,-2.3165,-2.3601,-2.4121,-2.4713,-2.4787,-2.5444,-2.6628,-2.6585,-2.7029,-2.7751,-2.7751,-2.7663,-2.7623,-2.9108,-2.959,-2.9297,-2.8711,-2.8476,0.0,0.0,0.0,0.0,0.0,0.0,0.0,0.0,0.0,0.0,0.0,0.0,0.0,0.0,0.0,0.0,0.0,0.0,0.0,0.0,0.0,0.0,0.0,0.0,0.0,0.0,0.0,0.0,0.0,0.0,0.0,0.0,0.0,0.0,0.0,0.0,0.0,-3.1582,-3.38,0.0,-3.2735,-3.368,-3.4268,-3.3982,-3.486,-3.5544,-3.581,-3.613,-3.6499,-3.6992,-3.7441,-3.7598,-3.748,-3.8275,-3.8275,-3.7429,-3.7838,-3.7422,-3.6499,-3.6541,-3.6337,-3.5996,-3.5499,-3.546,-3.5723,-3.4668,-3.4305,-3.423,-3.3155,-3.2866,-3.2934,-3.2036,-3.1543,-3.1289,0.0,0.0,0.0,0.0,0.0,0.0,0.0,-1.4472,-1.4655,-1.5244,-1.555,-1.6029,-1.6851,-1.8121,-1.8975,-1.9257,-1.995,-2.0501,-2.0687,-2.0301,-2.0436,-2.1155,-2.1235,-2.1682,-2.2457,-2.2757,-2.3052,-2.3327,-2.3451,-2.3967,-2.49,-2.4787,-2.5152,-2.5863,-2.5979,-2.5984,-2.615,-2.8002,-2.8549,-2.8085,-2.7549,-2.7401,-2.7438,0.0,0.0,0.0,0.0,0.0,0.0,0.0,0.0,0.0,0.0,0.0,0.0,0.0,0.0,0.0,0.0,0.0,0.0,0.0,0.0,0.0,0.0,0.0,0.0,0.0,0.0,0.0,0.0,0.0,0.0,0.0,0.0,0.0,0.0,0.0,-3.3535,-3.2695,-3.4766,-3.5508,-3.3613,-3.4355,-3.4824,-3.4551,-3.5332,-3.6191,-3.7051,-3.7226,-3.7637,-3.834,-3.8633,-3.8574,-3.8144,-3.8804,-3.8496,-3.7319,-3.7884,-3.739,-3.602,-3.6394,-3.6259,-3.5801,-3.5508,-3.5547,-3.5694,-3.4471,-3.387,-3.3631,-3.3591,-3.3555,-3.3296,-3.2152,-3.1489,-3.1028,0.0,0.0,0.0,0.0,0.0,0.0,-1.1901,-1.1901,-1.2053,-1.2537,-1.2747,-1.3086,-1.3815,-1.5732,-1.702,-1.7338,-1.875,-1.9535,-1.9314,-1.8741,-1.8878,-1.9976,-2.0288,-2.0896,-2.1903,-2.0759,-2.0227,-2.0214,-2.0508,-2.1338,-2.2602,-2.2916,-2.3898,-2.5456,-2.5759,-2.5863,-2.5863,-2.5863,-2.5589,-2.5093,-2.4565,-2.4499,-2.4845,0.0,0.0,0.0,0.0,0.0,0.0,0.0,0.0,0.0,0.0,0.0,0.0,0.0,0.0,0.0,0.0,0.0,0.0,0.0,0.0,0.0,0.0,0.0,0.0,0.0,0.0,0.0,0.0,0.0,0.0,0.0,0.0,0.0,-3.035,-3.3019,-3.4368,-3.3506,-3.6016,-3.7039,-3.5019,-3.5928,-3.6688,-3.6688,-3.6688,-3.741,-3.9028,-3.8735,-3.8696,-3.9199,-3.9219,-3.9023,-3.8613,-3.8633,-3.8122,-3.7129,-3.711,-3.6598,-3.5774,-3.5793,-3.5615,-3.5257,-3.5237,-3.5237,-3.5084,-3.3151,-3.2453,-3.2689,-3.3593,-3.4206,-3.4224,-3.1644,-3.0501,-2.9924,0.0,0.0,0.0,0.0,0.0,0.0,-1.1901,-1.1901,-1.2053,-1.2537,-1.2931,-1.3426,-1.4161,-1.5043,-1.565,-1.6017,-1.6139,-1.6492,-1.7235,-1.6881,-1.7219,-1.8508,-1.9057,-1.9456,-1.9761,-2.0032,-2.0134,-1.992,-2.0,-2.0348,-2.0879,-2.0962,-2.1357,-2.2072,-2.231,-2.2452,-2.2452,-2.2452,-2.2347,-2.2405,-2.4253,-2.5074,-2.5123,0.0,0.0,0.0,0.0,0.0,0.0,0.0,0.0,0.0,0.0,0.0,0.0,0.0,0.0,0.0,0.0,0.0,0.0,0.0,0.0,0.0,0.0,0.0,0.0,0.0,0.0,0.0,0.0,0.0,0.0,0.0,0.0,-2.7603,-2.8503,-3.151,-3.3661,-3.3959,-3.5263,-3.6492,-3.7416,-3.6783,-3.6331,-3.6183,-3.644,-3.6679,-3.6901,-3.6809,-3.7334,-3.8735,-3.9157,-3.9123,-3.8593,-3.986,-3.8045,-3.3123,-3.256,-3.1632,-3.0491,-3.1796,-3.2017,-3.1374,-3.1028,-3.0974,-3.099,-2.9831,-2.9732,-3.0327,-3.0461,-3.0472,-3.0296,-2.9011,-2.8201,-2.7526,0.0,0.0,0.0,0.0,0.0,0.0,-1.0288,-1.0288,-1.0427,-1.0853,-1.1168,-1.1608,-1.2166,-1.3079,-1.3737,-1.3921,-1.4291,-1.4735,-1.5298,-1.5791,-1.6513,-1.7553,-1.8577,-1.9225,-1.9466,-1.9853,-1.9973,-1.98,-1.98,-1.9826,-1.9867,-2.0,-2.0214,-2.0508,-2.0802,-2.0989,-2.1109,-2.1109,-2.1109,-2.1209,-2.2857,-2.3566,-2.3566,-2.3691,-2.3834,-2.3988,-2.4486,-2.4727,-2.4825,-2.4458,0.0,0.0,0.0,0.0,0.0,0.0,0.0,0.0,0.0,0.0,0.0,0.0,0.0,0.0,0.0,0.0,0.0,0.0,0.0,0.0,0.0,0.0,0.0,0.0,-2.6483,-2.6349,-2.6768,-3.0031,-3.2572,-3.3106,-3.4,-3.4928,-3.5923,-3.5508,-3.5061,-3.4984,-3.5036,-3.5106,-3.521,-3.4915,-3.5574,-3.7237,-3.7572,-3.8045,-3.8557,-3.7652,-3.4451,-2.9041,-2.9383,-2.947,-2.9441,-3.032,-3.038,0.0,-2.9385,-2.9237,-2.9187,-2.782,-2.7566,0.0,0.0,0.0,0.0,0.0,-2.5516,-2.4434,0.0,0.0,0.0,0.0,0.0,0.0,-0.7988,-0.7988,-0.8096,-0.8445,-0.8615,-0.8825,-0.918,-1.0597,-1.1553,-1.1553,-1.2776,-1.3519,-1.3442,-1.5032,-1.6251,-1.6704,-1.8077,-1.9122,-1.9594,-1.9395,-1.9311,-1.949,-1.9463,-1.9436,-1.943,-1.9666,-1.996,-2.018,-2.0548,-2.0842,-2.1109,-2.1109,-2.1109,-2.1109,-2.1109,-2.1109,-2.1182,-2.2037,-2.2493,-2.2941,-2.4201,-2.4715,-2.4763,-2.4695,0.0,0.0,0.0,0.0,0.0,0.0,0.0,0.0,0.0,0.0,0.0,0.0,0.0,0.0,0.0,0.0,0.0,0.0,0.0,0.0,0.0,0.0,0.0,0.0,-2.4679,-2.4596,-2.5451,-2.8462,-3.0905,-3.1452,-3.2206,-3.2638,-3.2588,-3.2994,-3.3215,-3.3264,-3.2891,-3.2973,-3.3719,0.0,0.0,0.0,0.0,-3.6147,-3.6997,-3.2885,-2.8984,-2.54,-2.7187,-2.8728,-3.0074,-2.9799,-2.9444,-2.8954,-2.8664,-2.8571,-2.8337,-2.6413,-2.5731,-2.5831,-2.6753,-2.7344,-2.7392,-2.483,-2.2907,-2.1534,0.0,0.0,0.0,0.0,0.0,0.0,-0.7988,-0.7988,-0.8096,-0.8445,-0.8615,-0.8825,-0.918,-0.9573,-0.9838,-0.9838,-1.006,-1.0634,-1.1707,-1.3284,-1.4401,-1.4865,-1.5421,-1.5775,-1.599,-1.596,-1.6507,-1.7721,-1.7564,-1.816,-1.943,-1.9666,-1.996,-2.018,-2.0548,-2.0842,-2.1109,-2.1109,-2.1109,-2.1109,-2.1109,-2.1109,-2.1096,-2.1289,-2.1551,-2.1847,-2.1839,-2.2201,-2.2558,-2.2024,-2.2029,-2.2199,-2.1647,-2.1405,0.0,0.0,0.0,0.0,0.0,0.0,0.0,0.0,0.0,0.0,0.0,0.0,0.0,0.0,0.0,0.0,0.0,0.0,0.0,-2.5455,-2.5319,-2.513,-2.5785,-2.6754,-2.7982,-2.9653,-2.9991,-3.0841,-3.2824,-3.1668,-3.0849,-3.1109,-3.0999,-3.0892,-3.0755,-3.1182,-3.1919,-3.3039,-3.629,-3.4513,-2.734,-2.6391,-2.5594,-2.4794,0.0,0.0,-2.5506,-2.5615,-2.5266,-2.4526,-2.4792,-2.4582,-2.4092,-2.3639,-2.3338,-2.3173,-2.3384,-2.335,-2.314,-2.2397,-2.171,-2.1189,0.0,0.0,0.0,0.0,0.0,0.0,-0.7988,-0.7988,-0.8119,-0.8343,-0.8445,-0.8574,-0.8845,-0.8886,-0.8933,-0.8933,-0.9001,-0.9405,-1.0201,-1.2102,-1.3282,-1.3486,-1.4475,-1.5023,-1.4971,-1.4882,-1.5191,-1.591,-1.5839,-1.6208,-1.6985,-1.7114,-1.7373,-1.7749,-1.794,-1.8211,-1.8512,-1.8512,-1.8512,-1.8512,-1.8512,-1.8512,-1.8704,-2.0462,-2.1203,-2.1349,-2.1496,-2.1737,-2.2003,-2.1978,-2.212,-2.2216,-2.1883,-2.1562,-2.1353,0.0,0.0,0.0,0.0,0.0,0.0,0.0,0.0,0.0,0.0,0.0,0.0,0.0,0.0,-2.2,0.0,0.0,-2.3752,-2.5277,-2.5548,-2.5665,-2.6106,-2.6306,-2.6768,-2.7762,-2.7919,-2.8368,-2.9595,-2.8985,-2.8523,-2.8679,-2.8551,-2.8466,-2.848,-2.8447,-2.8739,-2.9453,-3.1137,-2.9619,-2.4688,-2.4583,-2.4704,-2.49,-2.4695,-2.4636,-2.4636,-2.4636,-2.4396,-2.3968,-2.3834,-2.3594,-2.337,-2.2993,-2.2779,-2.2619,-2.2472,-2.2151,-2.1737,-2.1443,-2.1243,-2.1109,0.0,0.0,0.0,0.0,0.0,0.0,0.0,-0.7988,-0.8092,-0.8248,-0.832,-0.8374,-0.8465,-0.8479,-0.8479,-0.8479,-0.8764,-0.9001,-0.92,-1.0986,-1.2086,-1.2057,-1.3491,-1.4199,-1.4085,-1.3838,-1.3825,-1.4123,-1.4123,-1.4282,-1.4538,-1.4579,-1.4832,-1.5308,-1.5308,-1.5499,-1.5913,-1.5913,-1.5913,-1.5913,-1.5913,-1.5913,-1.6237,-1.9024,-2.0132,-2.0284,-2.0744,-2.0974,-2.1047,-2.159,-2.1709,-2.1709,-2.1696,-2.1384,-2.0928,-2.0646,-2.0353,0.0,0.0,0.0,0.0,0.0,0.0,0.0,0.0,0.0,-2.1176,-2.1842,-2.2311,-2.2766,-2.3073,-2.3768,-2.4502,-2.5144,-2.5651,-2.6052,-2.6346,-2.6386,-2.6373,-2.6319,-2.636,-2.6373,-2.6306,-2.656,-2.6707,-2.6653,-2.6519,-2.6506,-2.6906,-2.6251,-2.5972,-2.6213,-2.5634,-2.5113,-2.457,-2.4602,-2.4785,-2.5072,-2.4756,-2.473,-2.4903,-2.4716,-2.4543,-2.4356,-2.3821,-2.3665,-2.3554,-2.3006,-2.2779,-2.2739,-2.2392,-2.1964,-2.1588,-2.1283,-2.1162,-2.1109,0.0,0.0,0.0,0.0,0.0,0.0,0.0,0.0,-0.8092,-0.8248,-0.832,-0.8374,-0.8465,-0.8479,-0.8479,-0.8479,-0.8764,-0.9001,-0.92,-0.9762,-1.0148,-1.0287,-1.0495,-1.0683,-1.0812,-1.0519,-1.102,-1.2449,-1.2449,-1.3136,-1.4422,-1.4567,-1.4832,-1.5308,-1.5308,-1.5499,-1.5913,-1.5913,-1.5913,-1.5913,-1.5913,-1.5913,-1.5913,-1.6302,-1.6758,-1.7093,-1.7047,-1.7208,-1.7441,-1.757,-1.7586,-1.7454,-1.749,-1.746,-1.7568,-1.8373,-1.8404,-1.8444,-1.9475,-1.98,-2.0027,-2.0775,-2.0788,-2.1042,0.0,0.0,-2.2392,-2.3006,-2.3394,-2.3714,-2.3995,-2.4342,-2.4863,-2.5718,-2.5996,-2.6052,-2.6346,-2.6386,-2.6293,-2.6039,-2.6239,-2.6293,-2.6104,-2.6266,-2.6333,-2.6079,-2.6286,-2.6456,-2.6483,-2.6353,-2.6099,-2.5611,-2.5058,-2.4646,-2.4612,-2.4586,-2.4605,-2.469,-2.4649,-2.4516,-2.4315,-2.4529,-2.4209,-2.346,-2.3113,-2.3035,-2.2939,-2.2605,-2.2472,-2.2418,-2.1857,-2.1681,-2.1614,-2.1574,-2.1336,-2.1109,0.0,0.0,0.0,0.0,0.0,0.0,0.0,0.0,-0.7153,-0.8026,-0.8133,-0.816,-0.8221,-0.8228,-0.8228,-0.8228,-0.8581,-0.8866,-0.9022,-0.9523,-0.9849,-0.9856,-0.9936,-0.9977,-1.0012,-0.9883,-1.0119,-1.0778,-1.0778,-1.1102,-1.1741,-1.1763,-1.1935,-1.2242,-1.2348,-1.2537,-1.2783,-1.2824,-1.2865,-1.2865,-1.2865,-1.2865,-1.2865,-1.2865,-1.3029,-1.3428,-1.5489,-1.6312,0.0,-1.6851,-1.697,-1.6981,-1.7227,-1.7145,-1.6957,-1.6995,-1.689,-1.683,-1.7302,-1.7467,-1.7634,-1.7961,-1.9072,-2.0249,-2.1101,-2.2151,-2.3073,-2.35,-2.4088,-2.4462,-2.4249,-2.4716,-2.5264,0.0,-2.5838,-2.6077,-2.6119,-2.6132,-2.5972,-2.5504,-2.5705,-2.5825,-2.5705,-2.5812,-2.5916,-2.5886,-2.5801,-2.5941,-2.6389,-2.5756,-2.5255,-2.4993,-2.4746,-2.4602,-2.4573,-2.4578,-2.4595,-2.4636,-2.4636,-2.4569,-2.4462,-2.4583,-2.4249,-2.3567,-2.326,-2.3033,-2.2914,-2.2726,-2.2579,-2.2392,-2.2151,-2.1844,-2.1601,-2.1363,-2.1216,-2.1109,0.0,0.0,0.0,0.0,0.0,0.0,0.0,0.0,0.0,0.0,-0.7235,-0.7584,-0.7939,-0.7988,-0.7988,-0.7988,-0.8411,-0.871,-0.8811,-0.9395,-0.972,-0.9761,-0.9849,-0.9876,-0.9822,-0.9822,-0.9802,-0.9761,-0.9802,-0.9802,-0.9768,-0.9842,-0.9964,-1.012,-1.027,-1.0419,-1.0561,-1.067,-1.0717,-1.0717,-1.0717,-1.0717,-1.0717,-1.067,-1.0629,-1.0944,-1.3558,-1.4488,-1.4554,-1.5016,-1.5184,-1.519,-1.5662,-1.5539,-1.5278,-1.5244,-1.5422,-1.5607,-1.5543,-1.565,-1.5859,-1.6062,-1.7485,-1.8889,-1.9279,-2.0615,-2.2074,-2.2937,-2.3628,-2.4139,-2.4322,-2.497,-2.5545,-2.5625,-2.5879,-2.6052,-2.605,-2.5892,-2.5611,-2.5024,-2.5077,-2.5117,-2.5125,-2.5407,-2.5568,-2.5653,-2.554,-2.5691,-2.6164,-2.5192,-2.4622,-2.4579,-2.4635,-2.4618,-2.4618,-2.4581,-2.4636,-2.4636,-2.4636,-2.4596,-2.4516,-2.4356,-2.4048,-2.3634,-2.3327,-2.302,-2.2739,-2.2659,-2.2445,-2.2178,-2.2084,-2.1804,-2.1403,-2.1189,-2.1109,-2.1109,0.0,0.0,0.0,0.0,0.0,0.0,0.0,0.0,0.0,0.0,0.0,-0.6581,-0.7839,-0.7988,-0.7988,-0.7988,-0.8316,-0.8554,-0.871,-0.9144,-0.9462,-0.9612,-0.9754,-0.9829,-0.9822,-0.9822,-0.9754,-0.9618,-0.9754,-0.9747,-0.9618,-0.9849,-1.0127,-1.0283,-1.0419,-1.0568,-1.0711,-1.0717,-1.0717,-1.0717,-1.0717,-1.0717,-1.0704,-1.0555,-1.0412,-1.0331,-1.0412,-1.0512,-1.0498,-1.0502,-1.051,-1.0525,-1.0857,-1.0911,-1.1202,-1.2716,-1.4057,-1.5044,-1.502,-1.5239,-1.5673,-1.64,-1.6756,-1.7127,-1.7933,-1.812,-1.8685,-2.0851,-2.1499,-2.2285,-2.424,-2.5117,-2.5611,-2.5892,-2.6186,-2.6279,-2.6077,-2.5705,-2.5304,-2.4716,-2.4409,-2.4214,0.0,-2.51,-2.5653,-2.5281,-2.5937,-2.6115,-2.552,-2.4972,-2.4576,-2.4589,-2.4576,-2.4576,-2.4576,-2.4562,-2.4636,-2.4636,-2.4636,-2.4489,-2.4195,-2.3621,-2.3354,-2.3327,-2.3006,-2.2712,-2.2418,-2.2124,-2.1844,-2.1614,-2.1256,-2.1136,-2.1122,-2.1109,-2.1109,-2.1109,0.0,0.0,0.0,0.0,0.0,0.0,0.0,0.0,0.0,0.0,0.0,0.0,0.0,0.0,0.0,0.0,-0.7712,-0.8404,-0.8547,-0.8893,-0.915,-0.93,-0.9544,-0.968,-0.968,-0.9774,-0.9795,-0.9747,-0.9795,-0.9795,-0.9754,-0.9849,-0.9978,-1.0134,-1.0283,-1.0432,-1.0575,-1.0677,-1.0717,-1.0711,-1.0609,-1.0568,-1.0541,-1.029,-1.0107,-0.9971,0.0,-0.9757,-0.9837,-0.9829,-0.9828,-0.987,-1.0127,-1.0184,-1.0239,-1.0783,-1.1362,-1.1917,-1.2019,-1.2292,-1.2783,-1.3177,-1.4454,-1.5741,-1.6136,-1.7205,-1.8318,-1.8916,-1.9004,-1.9146,-1.9628,-2.1174,-2.2641,-2.3104,-2.4659,-2.5772,-2.5678,-2.5654,-2.5358,-2.4281,-2.4069,0.0,0.0,0.0,0.0,-2.4823,-2.5084,-2.5092,-2.4945,-2.4703,-2.4636,-2.4636,-2.4449,-2.4342,-2.4342,-2.4155,-2.4155,-2.4342,-2.4342,-2.4195,-2.3901,-2.35,-2.3207,-2.3006,-2.2699,-2.2405,-2.2124,-2.2031,-2.1817,-2.1472,-2.018,-1.9579,-1.9215,-1.8052,-1.7667,-1.7772,0.0,0.0,0.0,0.0,0.0,0.0,0.0,0.0,0.0,0.0,0.0,0.0,0.0,0.0,0.0,0.0,0.0,-0.7055,-0.7657,-0.7933,-0.8339,-0.8988,-0.9239,-0.9367,-0.9367,-0.9462,-0.953,-0.9585,-0.9585,-0.9639,-0.9747,-0.9795,-0.993,-1.0141,-1.029,-1.0439,-1.0575,-1.0622,-1.0636,-1.0622,-1.0412,-1.0331,-1.0304,-1.0005,-0.9795,0.0,-0.9397,-0.9319,-0.9386,-0.9444,-0.9503,-0.9569,-0.9745,-0.9772,-0.9775,-0.9842,-1.0058,-1.0392,-1.0656,-1.0982,-1.1341,-1.1755,-1.2978,-1.4085,-1.4184,-1.521,-1.6194,-1.6566,-1.6648,-1.6718,-1.7049,-1.908,-2.0792,-2.1209,-2.381,-2.5793,-2.5814,-2.5745,-2.5425,-2.4607,-2.3927,-2.342,0.0,0.0,0.0,-2.4428,-2.4601,-2.4609,-2.4623,-2.4636,-2.4596,-2.4489,-2.4302,-2.4155,-2.4048,-2.3861,-2.3562,-2.2998,-2.2234,-2.181,-2.1638,-2.1187,-2.0918,-2.0803,-2.0533,-2.0263,-2.0018,-2.0018,-1.9858,-1.9484,-1.8358,-1.7736,-1.7462,-1.6273,-1.5431,-1.5096,0.0,0.0,0.0,0.0,0.0,0.0,0.0,0.0,0.0,0.0,0.0,0.0,0.0,0.0,0.0,0.0,0.0,0.0,-0.6072,-0.6287,-0.6987,-0.8407,-0.862,-0.8706,-0.8761,-0.8823,-0.8946,-0.92,-0.92,-0.9293,-0.9578,-0.9713,-0.9937,-1.0243,-1.0378,-1.0521,-1.0663,-1.0521,-1.046,-1.0432,-1.0078,-0.9963,-0.993,-0.97,-0.9496,-0.9354,-0.9262,-0.9062,-0.8947,-0.9113,-0.9286,-0.9396,-0.9396,-0.9527,-0.9673,-0.9921,-1.0186,-1.0456,-1.1036,-1.1294,-1.1558,-1.2128,-1.2169,-1.2101,-1.2237,-1.2155,-1.2476,-1.4,-1.4311,-1.4867,-1.6398,-1.8353,-1.9773,-1.9802,-2.3403,-2.6199,-2.6294,-2.5862,-2.5469,0.0,0.0,0.0,0.0,0.0,0.0,-2.3831,0.0,-2.4153,-2.4166,-2.4253,-2.4195,-2.3918,-2.3905,-2.376,-2.3456,-2.3456,-2.2561,-2.0707,-1.8678,-1.7714,-1.7684,-1.7176,-1.6973,-1.6932,-1.6855,-1.664,-1.6359,-1.6359,-1.6161,-1.5903,-1.5784,-1.5774,-1.5744,-1.5533,-1.4323,-1.3061,0.0,0.0,0.0,0.0,0.0,0.0,0.0,0.0,0.0,0.0,0.0,0.0,0.0,0.0,0.0,0.0,0.0,0.0,-0.4549,-0.4732,-0.4946,-0.5335,-0.5603,-0.624,-0.7231,-0.7375,-0.7937,-0.8994,-0.8994,-0.9035,-0.9053,-0.9087,-0.9327,-0.9612,-0.9646,-0.9808,-1.0046,-1.0005,-0.9992,-0.9978,-0.9795,-0.972,-0.9686,-0.9388,-0.9303,-0.9262,-0.9221,-0.9187,-0.9139,-0.9203,-0.9396,-0.968,-0.968,-0.9881,-1.0147,-1.0325,-1.0551,-1.0855,-1.1248,-1.1507,-1.1744,-1.1864,-1.206,-1.2203,-1.1979,-1.1918,-1.2022,-1.2436,-1.2111,-1.1835,-1.2224,-1.2418,0.0,-1.2789,-1.8654,0.0,-2.4367,-2.5426,0.0,-2.0807,0.0,-1.659,-2.0184,-1.9245,0.0,0.0,-1.8553,-1.8607,-1.8536,-1.9586,-2.0045,-1.9793,-1.9719,-1.9522,-1.9261,-1.925,-1.8877,-1.8128,-1.7816,-1.7551,-1.7145,-1.7034,-1.6868,-1.6552,-1.6491,-1.6338,-1.6004,-1.6004,-1.5927,-1.5617,-1.4428,-1.3882,-1.3684,-1.229,-1.155,-1.117,0.0,0.0,0.0,0.0,0.0,0.0,0.0,0.0,0.0,0.0,0.0,0.0,0.0,0.0,0.0,0.0,0.0,0.0,0.0,-0.3197,-0.3522,-0.4079,-0.4316,-0.4729,-0.5518,-0.5571,-0.6338,-0.7864,-0.7803,-0.8142,-0.8885,-0.8817,-0.8994,-0.9344,-0.9354,-0.951,-0.9727,-0.9727,-0.9727,0.0,0.0,-0.9408,-0.9381,-0.915,-0.9055,-0.9069,-0.9187,-0.9337,-0.9462,-0.9557,-0.9717,-0.991,-1.0003,-1.0204,-1.0412,-1.0608,-1.086,-1.113,-1.1393,-1.1647,-1.1843,-1.1883,-1.2053,-1.2135,-1.174,-1.1641,-1.1584,-1.1305,-1.0847,-1.0527,-1.0388,-1.0196,-1.0228,0.0,0.0,0.0,-1.9137,-2.0053,-1.9607,0.0,-1.4046,0.0,-1.7862,-1.6837,-1.593,0.0,-1.6325,-1.6758,-1.736,-1.8164,-1.8461,-1.8239,-1.8164,-1.7953,-1.7581,-1.6696,-1.6117,-1.585,-1.5265,-1.4736,-1.444,-1.4362,-1.4205,-1.3996,0.0,-1.3813,-1.3643,-1.3643,-1.3583,-1.3423,-1.2482,-1.2045,-1.1816,-1.0721,-1.0297,-1.0263,0.0,0.0,0.0,0.0,0.0,0.0,0.0,0.0,0.0,0.0,0.0,0.0,0.0,0.0,0.0,0.0,0.0,0.0,0.0,0.0,-0.2264,-0.3416,-0.3466,-0.3566,-0.3717,-0.3717,-0.4642,-0.6422,-0.6318,-0.7107,-0.8763,-0.8682,-0.8771,-0.9098,-0.9191,-0.9347,-0.949,-0.951,-0.9523,-0.9496,-0.9232,-0.918,-0.9173,0.0,-0.8967,-0.8988,-0.9157,-0.949,-0.9842,-1.0079,-1.0096,-1.01,-1.032,-1.0497,-1.0632,-1.0906,-1.1067,-1.1279,-1.1559,-1.1705,-1.1843,-1.2053,-1.2065,-1.1918,-1.1466,-1.1377,-1.1179,-1.0575,-1.0383,-1.0234,-1.0015,-1.0129,-1.0538,-1.1296,0.0,-1.3011,-1.3354,-1.341,-1.3411,-1.3332,-1.2835,-1.3548,-1.5975,-1.3981,-1.3233,-1.4935,-1.5633,-1.6527,-1.773,-1.7815,-1.7643,-1.7356,-1.7288,-1.7077,-1.6754,-1.491,-1.3961,-1.3805,-1.2127,-1.1294,-1.1158,-1.1016,-1.0873,-1.0847,0.0,0.0,-1.0717,-1.0717,-1.0711,-1.0677,-1.0548,-1.048,-1.0432,-1.0092,-0.9984,-0.9963,0.0,0.0,0.0,0.0,0.0,0.0,0.0,0.0,0.0,0.0,0.0,0.0,0.0,0.0,0.0,0.0,0.0,0.0,0.0,0.0,0.0,-0.0706,-0.0706,-0.121,-0.2314,-0.2364,-0.3578,-0.6088,-0.6067,-0.6799,-0.8143,-0.8116,-0.8255,-0.8484,-0.8574,-0.8723,-0.8872,-0.9001,-0.8999,-0.8993,-0.8994,-0.8974,-0.8988,-0.9083,0.0,0.0,-0.9429,-0.9734,-0.9977,-1.0172,-1.0379,-1.0574,-1.0773,-1.0954,-1.1102,-1.1244,-1.1317,-1.1437,-1.1703,-1.1803,-1.1842,-1.183,-1.1837,-1.1708,-1.1312,-1.1096,-1.0859,-1.0524,-1.0293,-1.0066,-0.9896,-0.9856,-1.0343,-1.1724,-1.2137,-1.2512,-1.329,-1.3417,-1.3342,0.0,-1.2936,0.0,0.0,0.0,0.0,0.0,0.0,-1.3329,-1.3568,-1.3568,-1.3494,-1.3339,-1.3067,-1.2831,-1.2654,-1.2137,-1.1903,-1.1875,-1.1469,-1.1192,-1.1158,-1.1016,-1.0813,-1.0758,-1.0731,0.0,-1.0717,-1.0717,-1.0643,-1.0527,-1.05,-1.0419,-1.0297,-1.0051,-0.9984,-0.9963,0.0,0.0,0.0,0.0,0.0,0.0,0.0,0.0,0.0,0.0,0.0,0.0,0.0,0.0,0.0,0.0,0.0,0.0,0.0,0.0,0.0,0.0,0.0,-0.0303,-0.0958,-0.0958,-0.1972,-0.4028,0.0,-0.5701,-0.7131,-0.7722,-0.8126,-0.8327,-0.8418,-0.8567,-0.8723,-0.8817,-0.8885,-0.8885,-0.8885,-0.8885,-0.8898,-0.9096,0.0,0.0,-0.9557,-0.9802,-1.0011,-1.0229,-1.0503,-1.0697,-1.0872,-1.1054,-1.1197,-1.1351,-1.1397,-1.143,-1.1643,-1.1728,-1.1725,-1.1723,-1.1649,-1.1497,-1.1029,-1.0822,-1.0561,-1.0149,-1.0009,-0.993,-0.9849,-0.9943,-1.0343,-1.1156,-1.1552,-1.2004,-1.263,-1.2934,0.0,-1.3044,-1.2996,0.0,0.0,0.0,0.0,0.0,0.0,-1.2427,-1.2501,-1.2433,-1.2325,-1.2176,-1.1952,-1.1796,-1.1728,-1.1586,-1.143,-1.1274,-1.1199,-1.1084,-1.0928,-1.086,-1.0792,-1.0717,-1.0717,0.0,-1.0717,-1.0717,-1.0677,-1.0595,-1.0439,-1.0337,-1.0249,-1.0019,-0.9869,-0.9856,0.0,0.0,0.0,0.0,0.0,0.0,0.0,0.0,0.0,0.0,0.0,0.0,0.0,0.0,0.0,0.0,0.0,0.0,0.0,0.0,0.0,0.0,0.0,0.0,0.0,0.0,0.0,-0.257,-0.354,0.0,0.0,0.0,0.0,0.0,-0.8452,-0.8601,-0.8723,-0.8817,-0.8885,0.0,0.0,-0.8898,0.0,0.0,0.0,0.0,0.0,-0.9802,-0.9963,-1.0181,-1.0385,-1.0609,-1.0732,-1.0982,-1.1255,-1.1302,-1.1351,-1.141,-1.1602,-1.1628,-1.1628,-1.1633,-1.15,-1.1301,-1.0804,-1.0557,-1.0322,-0.9883,-0.9822,-0.9822,-0.9822,-1.0011,-1.0273,-1.0484,-1.086,-1.1398,-1.2046,-1.2338,-1.2644,0.0,-1.2935,0.0,0.0,0.0,0.0,0.0,0.0,0.0,-1.2406,-1.2298,-1.2169,-1.202,-1.1898,-1.1803,-1.1735,-1.1626,-1.1436,-1.1234,-1.1131,-1.0995,-1.0765,-1.0738,-1.0717,-1.0717,-1.0717,0.0,0.0,-1.0717,-1.0717,-1.0697,-1.0426,-1.031,-1.0249,-0.9971,-0.9849,-0.9822,0.0,0.0,0.0,0.0,0.0,0.0,0.0,0.0,0.0,0.0,0.0,0.0,0.0,0.0,0.0,0.0,0.0,0.0,0.0,0.0,0.0,0.0,0.0,0.0,0.0,0.0,0.0,-0.3827,0.0,0.0,0.0,0.0,0.0,0.0,0.0,-0.8696,-0.8723,-0.8817,0.0,0.0,0.0,0.0,0.0,0.0,0.0,0.0,0.0,-0.9822,-0.9863,-0.9957,-1.0024,-1.0078,-1.0297,-1.0729,-1.12,-1.1241,-1.1325,-1.1437,-1.169,-1.1804,-1.1804,-1.176,-1.1557,-1.1255,-1.0819,-1.0488,-1.02,-0.9883,-0.9822,-0.9822,-0.9822,-0.9822,-1.0019,-1.0419,-1.0462,-1.0772,-1.1904,-1.1979,-1.2176,-1.2881,0.0,0.0,0.0,0.0,0.0,0.0,0.0,0.0,-1.2108,-1.2162,-1.2013,-1.1857,-1.1837,-1.1701,-1.1436,-1.1416,-1.1328,-1.1227,-1.1029,-1.0887,-1.0853,-1.0785,-1.0717,-1.0717,-1.0717,0.0,0.0,-1.0717,-1.0717,-1.0704,-1.0534,-1.0392,-1.0256,-1.0093,-0.9876,-0.9822,0.0,0.0,0.0,0.0,0.0,0.0,0.0,0.0,0.0,0.0,0.0,0.0,0.0,0.0,0.0,0.0,0.0,0.0,0.0,0.0,0.0,0.0,0.0,0.0,0.0,0.0,-0.1712,-0.2814,-0.4418,0.0,0.0,0.0,0.0,0.0,0.0,0.0,-0.8797,-0.8858,0.0,0.0,0.0,0.0,0.0,0.0,0.0,0.0,0.0,0.0,-0.9829,-0.989,-0.9909,-0.9984,-1.0012,-1.0202,-1.05,-1.0806,-1.1111,-1.1312,-1.148,-1.1682,-1.1797,-1.1674,-1.1418,-1.105,-1.0761,-1.0426,-1.0072,-0.9822,-0.9822,-0.9822,-0.9822,-0.9822,-0.9835,-1.0078,-1.0092,-1.0371,-1.1023,-1.1226,-1.1545,-1.2203,0.0,0.0,0.0,0.0,0.0,0.0,0.0,0.0,-1.1803,-1.1877,-1.1857,-1.1708,-1.1701,-1.1647,-1.1531,-1.1436,-1.1314,-1.1227,-1.1016,-1.0833,-1.0812,-1.0751,-1.0717,-1.0717,-1.0717,0.0,0.0,-1.0717,-1.0717,-1.0704,-1.0555,-1.046,-1.0392,-1.0243,-1.0093,-0.9896,0.0,0.0,0.0,0.0,0.0,0.0,0.0,0.0,0.0,0.0,0.0,0.0,0.0,0.0,0.0,0.0,0.0,0.0,0.0,0.0,0.0,0.0,0.0,0.0,0.0,0.0,-0.2213,-0.2613,-0.4947,-0.6279,0.0,0.0,0.0,0.0,0.0,0.0,0.0,0.0,0.0,0.0,0.0,0.0,0.0,0.0,0.0,0.0,0.0,0.0,0.0,0.0,0.0,-0.9896,-0.9802,-0.9863,-0.9997,-1.0473,-1.0799,-1.1084,-1.1328,-1.1606,-1.1809,-1.1708,-1.1298,-1.0934,-1.0772,-1.0354,-0.9937,-0.9829,-0.9822,-0.9822,-0.9822,-0.9822,-0.9822,-0.9822,-0.9849,-1.01,-1.0446,-1.0677,-1.1016,0.0,0.0,0.0,0.0,0.0,0.0,0.0,0.0,0.0,0.0,-1.1647,-1.1653,-1.1552,-1.1552,-1.1531,-1.1484,-1.1375,-1.1246,-1.1097,-1.0995,-1.0799,-1.0717,-1.0717,-1.0717,-1.0717,0.0,0.0,0.0,-1.0717,-1.0717,-1.0704,-1.0555,-1.0466,-1.0412,-1.0263,-1.0114,-0.9923,0.0,0.0,0.0,0.0,0.0,0.0,0.0,0.0,0.0,0.0,0.0,0.0,0.0,0.0,0.0,0.0,0.0,0.0,0.0,0.0,0.0,0.0,0.0,0.0,0.0,0.0,-0.2663,-0.3964,-0.5519,-0.6964,-0.8275,-0.8567,-0.8628,0.0,0.0,0.0,0.0,0.0,0.0,0.0,0.0,0.0,-0.9395,0.0,0.0,0.0,0.0,0.0,0.0,0.0,0.0,0.0,0.0,-0.9707,-0.9883,-1.0195,-1.0493,-1.0826,-1.1267,-1.1606,-1.183,-1.183,-1.1491,-1.1084,-1.0785,-1.0371,-0.9943,-0.9849,-0.9822,-0.9822,-0.9822,-0.9822,-0.9822,-0.9822,-0.9822,-0.9978,-1.0426,-1.0493,0.0,0.0,0.0,0.0,0.0,0.0,0.0,0.0,0.0,0.0,0.0,-1.1396,-1.1396,-1.1396,-1.1396,-1.1321,-1.1241,-1.1165,-1.109,-1.088,-1.088,-1.0799,-1.0717,-1.0717,-1.0717,0.0,0.0,0.0,0.0,-1.0717,-1.0717,-1.0704,-1.0555,-1.0405,-1.0263,-1.0107,-0.9896,-0.9822,0.0,0.0,0.0,0.0,0.0,0.0,0.0,0.0,0.0,0.0,0.0,0.0,0.0,0.0,0.0,0.0,0.0,0.0,0.0,0.0,0.0,0.0,0.0,0.0,0.0,-0.2663,-0.4017,-0.5372,-0.6907,-0.7904,-0.8327,-0.8574,-0.8682,-0.8648,-0.8797,0.0,0.0,0.0,0.0,0.0,0.0,-0.9157,-0.9374,0.0,0.0,0.0,0.0,0.0,0.0,0.0,0.0,0.0,0.0,0.0,0.0,-0.991,-1.0249,-1.0595,-1.0738,-1.0995,-1.1136,-1.1097,-1.0812,-1.0534,-1.0439,-1.0148,-0.9876,-0.9829,-0.9822,-0.9822,-0.9822,-0.9822,-0.9856,-0.9896,-0.9916,-1.0066,-1.031,0.0,0.0,0.0,0.0,0.0,0.0,0.0,0.0,0.0,0.0,0.0,0.0,-1.1294,-1.1233,-1.1233,-1.1233,-1.1212,-1.1234,-1.1063,-1.0995,-1.088,-1.0846,-1.0765,-1.0717,-1.0717,0.0,0.0,0.0,0.0,0.0,-1.0717,-1.0717,-1.0717,-1.067,-1.0622,-1.0561,-1.0405,-1.0263,-1.012,0.0,0.0,0.0,0.0,0.0,0.0,0.0,0.0,0.0,0.0,0.0,0.0,0.0,0.0,0.0,0.0,0.0,0.0,0.0,0.0,0.0,0.0,0.0,0.0,-0.1962,-0.3817,-0.5172,-0.5977,-0.7578,-0.835,-0.8357,-0.8655,-0.8764,-0.8716,-0.8817,-0.8851,0.0,0.0,0.0,0.0,-0.8885,-0.9083,-0.9344,0.0,0.0,0.0,0.0,0.0,0.0,0.0,0.0,0.0,0.0,0.0,0.0,0.0,-0.9978,-1.0263,-1.0378,-1.0629,-1.0772,-1.0744,-1.05,-1.0283,-1.0283,-1.0039,-0.9822,-0.9822,-0.9822,-0.9822,-0.9822,-0.9822,-0.9849,-0.9883,-0.9903,-1.0039,0.0,0.0,0.0,0.0,0.0,0.0,0.0,0.0,0.0,0.0,0.0,0.0,0.0,-1.1165,-1.1056,-1.0995,-1.105,-1.1056,-1.0995,-1.0907,-1.0793,-1.0793,-1.0765,-1.0717,-1.0717,-1.0717,0.0,0.0,0.0,0.0,0.0,-1.0717,-1.0717,-1.0717,-1.0656,-1.0602,-1.0534,-1.0385,-1.0229,-1.0093,0.0,0.0,0.0,0.0,0.0,0.0,0.0,0.0,0.0,0.0,0.0,0.0,0.0,0.0,0.0,0.0,0.0,0.0,0.0,0.0,0.0,0.0,0.0,0.0,-0.2264,-0.4722,-0.6032,-0.6132,-0.7698,-0.8465,-0.8472,-0.8771,-0.8838,-0.8716,-0.8804,-0.8852,0.0,0.0,0.0,0.0,-0.8885,-0.9022,0.0,0.0,0.0,0.0,0.0,0.0,0.0,0.0,0.0,0.0,0.0,0.0,0.0,0.0,0.0,0.0,0.0,-1.0446,-1.0656,-1.0656,-1.0453,-1.0249,-1.0249,-1.0025,0.0,-0.9822,-0.9822,-0.9822,-0.9836,-0.9836,-0.9842,-0.9849,-0.9863,-0.9971,0.0,-1.0473,0.0,0.0,0.0,0.0,0.0,0.0,0.0,0.0,0.0,0.0,0.0,-1.1016,-1.0799,-1.0724,-1.0793,-1.0799,-1.0724,-1.0717,-1.0717,-1.0717,-1.0717,-1.0717,-1.0717,-1.0717,0.0,0.0,0.0,0.0,0.0,-1.0717,-1.0717,-1.0704,-1.0561,-1.0419,-1.0276,-1.0058,-0.9909,-0.9836,0.0,0.0,0.0,0.0,0.0,0.0,0.0,0.0,0.0,0.0,0.0,0.0,0.0,0.0,0.0,0.0,0.0,0.0,0.0,0.0,0.0,0.0,0.0,0.0,-0.5022,-0.5677,-0.6481,-0.7534,-0.8075,-0.8374,-0.8374,-0.8506,-0.8635,-0.871,-0.875,-0.8811,0.0,0.0,0.0,0.0,-0.8885,-0.9022,0.0,0.0,0.0,0.0,-0.9612,-0.9612,0.0,0.0,0.0,0.0,0.0,0.0,0.0,0.0,-0.9795,-0.9836,-0.991,0.0,-1.0032,-1.0032,-0.9978,-0.993,0.0,-0.9869,-0.9822,-0.9822,-0.9822,-0.9856,-0.9909,-0.993,-0.997,-1.0154,-1.0263,-1.0399,0.0,0.0,0.0,0.0,0.0,0.0,0.0,0.0,0.0,0.0,0.0,0.0,0.0,-1.0914,-1.0758,-1.0724,-1.0758,-1.0758,-1.0717,-1.0717,-1.0717,-1.0717,-1.0717,-1.0717,-1.0717,-1.0717,0.0,0.0,0.0,0.0,-1.0717,-1.0717,-1.0717,-1.0717,-1.0677,-1.0575,-1.0426,-1.0283,-1.0127,-0.9916,0.0,0.0,0.0,0.0,0.0,0.0,0.0,0.0,0.0,0.0,0.0,0.0,0.0,0.0,0.0,0.0,0.0,0.0,0.0,0.0,0.0,0.0,0.0,-0.4522,-0.5977,-0.6581,-0.7285,-0.7988,-0.8194,-0.832,-0.8327,-0.8486,-0.8628,-0.8716,-0.8784,-0.8804,0.0,0.0,0.0,-0.8885,-0.8885,0.0,0.0,0.0,0.0,0.0,-0.9503,-0.9551,0.0,-0.97,-0.9673,-0.9632,0.0,0.0,0.0,0.0,-0.9822,-0.9822,-0.9822,-0.9869,-0.9862,-0.9862,-0.9862,-0.9862,-0.9862,-0.9869,-0.9822,-0.9822,-0.9876,-0.9889,-0.997,-1.0107,-1.0181,-1.0263,-1.0399,0.0,0.0,0.0,0.0,0.0,0.0,0.0,0.0,0.0,0.0,0.0,0.0,0.0,0.0,-1.0846,-1.0717,-1.0717,-1.0717,-1.0717,-1.0717,-1.0717,-1.0717,-1.0717,-1.0717,-1.0717,-1.0717,-1.0717,-1.0717,0.0,0.0,0.0,-1.0717,-1.0717,-1.0717,-1.0711,-1.0643,-1.0527,-1.0378,-1.0229,-1.0073,-0.9808,0.0,0.0,0.0,0.0,0.0,0.0,0.0,0.0,0.0,0.0,0.0,0.0,0.0,0.0,0.0,0.0,0.0,0.0,0.0,0.0,0.0,0.0,-0.4772,-0.6082,-0.6282,-0.7434,-0.7988,-0.7988,-0.8174,-0.8248,-0.8327,-0.8526,-0.8669,-0.8716,-0.8817,-0.8885,-0.8885,0.0,0.0,-0.8885,-0.8885,0.0,0.0,0.0,0.0,0.0,0.0,0.0,0.0,-0.9639,-0.9639,-0.9659,-0.9781,0.0,0.0,0.0,0.0,0.0,-0.9849,-0.9923,-1.0044,-0.9997,-1.0004,-1.0017,-0.999,-0.9889,-0.9856,-0.9856,-0.9896,-1.0004,-1.0044,-1.0222,0.0,0.0,0.0,0.0,0.0,0.0,0.0,0.0,0.0,0.0,0.0,0.0,0.0,0.0,0.0,0.0,0.0,-1.0806,-1.0717,-1.0717,-1.0717,-1.0717,-1.0717,-1.0717,-1.0717,-1.0717,-1.0717,-1.0717,-1.0717,-1.0717,-1.0717,0.0,0.0,0.0,-1.0717,-1.0717,-1.0704,-1.067,-1.0541,-1.0392,-1.0229,-0.9781,-0.9575,-0.9207,0.0,0.0,0.0,0.0,0.0,0.0,0.0,0.0,0.0,0.0,0.0,0.0,0.0,0.0,0.0,0.0,0.0,0.0,0.0,0.0,0.0,-0.5377,-0.5777,-0.6531,-0.769,-0.7889,-0.7988,-0.7988,-0.8015,-0.814,-0.8327,-0.8316,-0.8472,-0.8716,-0.8817,-0.8885,-0.8885,-0.8885,0.0,-0.8885,-0.8885,0.0,0.0,0.0,0.0,0.0,0.0,0.0,0.0,-0.9788,-0.9788,-0.9795,-0.9815,0.0,0.0,0.0,0.0,0.0,-0.9916,-1.0215,-1.0365,-1.0051,-1.0148,-1.0209,-1.0017,-0.997,-0.995,-0.995,-0.997,-1.0065,-1.0378,-1.0446,-1.046,0.0,0.0,0.0,0.0,0.0,0.0,0.0,0.0,0.0,0.0,0.0,0.0,0.0,0.0,0.0,0.0,-1.0806,-1.0717,-1.0717,-1.0717,-1.0717,-1.0717,-1.0717,-1.0717,-1.0717,-1.0717,-1.0717,-1.0717,-1.0717,-1.0717,0.0,0.0,-1.0717,-1.0717,-1.0717,-1.0643,-1.0527,-1.05,-1.0324,-0.9893,-0.8483,-0.7892,-0.7545,0.0,0.0,0.0,0.0,0.0,0.0,0.0,0.0,0.0,0.0,0.0,0.0,0.0,0.0,0.0,0.0,0.0,0.0,0.0,0.0,-0.7086,-0.7086,-0.7086,-0.7385,-0.7988,-0.7988,-0.7988,-0.7988,-0.7988,-0.8119,-0.8327,-0.8431,-0.8621,-0.8838,-0.8851,-0.8981,-0.9049,-0.8974,-0.9028,-0.9171,0.0,0.0,0.0,0.0,0.0,0.0,0.0,0.0,0.0,0.0,-0.9686,-0.9822,-0.9822,0.0,0.0,0.0,0.0,0.0,-0.9849,-1.0086,-1.0256,-1.0283,-1.0466,-1.0582,-1.0344,-1.029,-1.027,-1.0188,-1.0236,-1.0358,-1.0575,0.0,-1.0934,-1.1179,0.0,0.0,0.0,0.0,0.0,0.0,0.0,0.0,0.0,0.0,0.0,0.0,0.0,0.0,0.0,0.0,-1.0717,-1.0717,-1.0717,-1.0717,-1.0717,-1.0717,-1.0717,-1.0717,-1.0717,-1.0677,-1.0595,-1.0595,-1.0595,-1.0595,0.0,-1.0643,-1.0717,-1.0717,-1.0629,-1.0415,-0.9426,-0.8892,-0.8466,-0.6784,-0.5559,-0.4668,0.0,0.0,0.0,0.0,0.0,0.0,0.0,0.0,0.0,0.0,0.0,0.0,0.0,0.0,0.0,0.0,0.0,0.0,0.0,-0.7434,-0.7988,-0.7988,-0.7988,-0.7988,-0.7988,-0.7988,-0.7988,-0.7988,-0.7988,-0.8119,-0.8327,-0.8574,-0.8771,-0.8831,-0.896,-0.9028,-0.9096,-0.9022,-0.9117,-0.932,0.0,0.0,0.0,0.0,0.0,0.0,0.0,0.0,0.0,0.0,0.0,0.0,0.0,0.0,0.0,-0.9822,-0.9822,-0.9829,-0.9863,-0.995,-1.0209,-1.0432,-1.067,-1.0806,-1.0677,-1.0622,-1.0588,-1.0548,-1.0267,-1.0148,-1.0732,-1.0594,0.0,-1.0976,0.0,0.0,0.0,0.0,0.0,0.0,0.0,0.0,0.0,0.0,0.0,0.0,0.0,0.0,0.0,0.0,-1.0717,-1.0717,-1.0717,-1.0717,-1.0717,-1.028,-1.028,-1.0717,-1.0683,-1.0609,-1.0493,-1.0493,-1.0493,-1.0493,-1.0527,-1.0346,-1.0047,-1.0047,-0.9742,-0.9121,-0.7696,-0.6828,-0.6268,-0.482,-0.3323,-0.191,0.0,0.0,0.0,0.0,0.0,0.0,0.0,0.0,0.0,0.0,0.0,0.0,0.0,0.0,0.0,0.0,0.0,0.0,0.0,-0.7939,-0.7988,-0.7988,-0.7988,-0.7988,-0.7988,-0.7988,-0.7988,-0.7988,-0.7988,-0.8119,-0.8327,-0.8574,-0.8716,-0.8737,-0.9015,-0.9069,-0.8905,-0.9083,-0.9207,-0.9228,-0.9214,0.0,0.0,0.0,0.0,0.0,0.0,0.0,0.0,0.0,0.0,0.0,0.0,0.0,-0.9822,-0.9822,-0.9822,-0.9849,-0.993,-1.0243,-1.0466,-1.0487,-1.0507,-1.0629,-1.1023,-1.1009,-1.0989,-1.126,-0.9805,-0.9032,-1.0849,-0.9544,-0.8373,0.0,0.0,0.0,0.0,0.0,0.0,0.0,0.0,0.0,0.0,0.0,0.0,0.0,0.0,0.0,0.0,0.0,0.0,-1.0717,-1.0717,-1.0717,-1.0717,-0.905,-0.905,-1.0717,-1.0575,-1.05,-1.0493,-1.0493,-1.0493,-1.05,-1.0643,-0.9769,-0.8163,-0.8163,-0.7117,-0.5472,-0.5346,-0.4318,-0.2827,-0.2723,-0.1602,-0.0185,0.0,0.0,0.0,0.0,0.0,0.0,0.0,0.0,0.0,0.0,0.0,0.0,0.0,0.0,0.0,0.0,0.0,0.0,0.0,-0.7988,-0.7988,-0.7988,-0.7988,-0.7988,-0.7988,-0.7988,-0.7988,-0.7988,-0.8133,-0.8255,-0.8404,-0.8615,-0.8764,-0.8804,-0.8967,-0.9042,-0.9069,-0.9035,-0.913,-0.935,-0.935,-0.9388,0.0,0.0,0.0,0.0,0.0,0.0,0.0,0.0,-0.9747,-0.9822,-0.9822,-0.9822,-0.9822,-0.9822,-0.9822,-0.9836,-0.989,-1.0127,-1.0378,-1.0473,-1.0561,-1.0724,-1.1084,-1.0207,-0.9355,-0.9573,-0.7927,-0.6785,-0.766,0.0,-0.6962,0.0,0.0,0.0,0.0,0.0,0.0,0.0,0.0,0.0,0.0,0.0,0.0,0.0,0.0,0.0,0.0,0.0,0.0,-0.7436,-0.7436,-0.7436,-0.7436,-0.6736,-0.6705,-0.7403,-0.7363,-0.7276,-0.7146,-0.7148,-0.7112,-0.7121,-0.7224,-0.6907,-0.6364,-0.6364,-0.5861,-0.5003,-0.3928,-0.246,-0.0945,-0.0931,-0.0555,0.0,0.0,0.0,0.0,0.0,0.0,0.0,0.0,0.0,0.0,0.0,0.0,0.0,0.0,0.0,0.0,0.0,0.0,0.0,-0.8038,-0.7988,-0.8187,-0.8627,-0.8627,-0.8627,-0.8627,-0.8627,-0.8428,-0.7988,-0.8542,-0.8678,-0.847,-0.8984,-0.9094,-0.8817,-0.8967,-0.9035,-0.9083,-0.9028,-0.9123,-0.9313,-0.9361,-0.9469,0.0,0.0,0.0,0.0,0.0,0.0,0.0,0.0,-0.9741,-0.9822,-0.9822,-0.9822,-0.9822,-0.9822,-0.9856,-0.9883,-0.9836,-1.0046,-1.0304,-1.0399,-1.011,-0.9868,-1.0228,-0.9308,-0.8425,-0.8739,-0.7052,-0.5382,-0.4878,0.0,0.0,0.0,0.0,0.0,0.0,0.0,0.0,0.0,0.0,0.0,0.0,0.0,0.0,0.0,0.0,0.0,0.0,0.0,0.0,0.0,-0.5429,-0.5429,-0.5429,-0.4804,-0.4562,-0.4562,-0.3965,-0.417,-0.5088,-0.5076,-0.5114,-0.5077,-0.5151,-0.4961,-0.4559,-0.4559,-0.41,-0.3355,-0.2196,-0.1,0.0,0.0,0.0,0.0,0.0,0.0,0.0,0.0,0.0,0.0,0.0,0.0,0.0,0.0,0.0,0.0,0.0,0.0,0.0,0.0,0.0,0.0,-0.8137,-0.8038,-0.8627,-0.9953,-1.0002,-1.0002,-1.0002,-1.0002,-0.9361,-0.8038,-0.9361,-0.9406,-0.8327,-0.9745,-0.976,-0.8723,-0.9077,-0.9076,-0.8892,-0.9089,-0.9207,-0.9221,-0.932,-0.9469,-0.9625,0.0,0.0,0.0,0.0,0.0,0.0,0.0,-0.9822,-0.9822,-0.9822,-0.9822,-0.9822,-0.9822,-0.9869,-0.995,-0.9863,-1.0046,-1.0283,-1.0283,-0.9051,-0.7945,-0.8383,-0.8482,-0.8636,-0.9188,-0.7426,-0.5087,-0.3061,-0.2664,0.0,0.0,0.0,0.0,0.0,0.0,0.0,0.0,0.0,0.0,0.0,0.0,0.0,0.0,0.0,0.0,0.0,0.0,0.0,0.0,-0.5362,-0.5362,-0.5362,-0.3586,-0.27,-0.2635,-0.0876,-0.18,-0.5022,-0.5022,-0.5063,-0.5077,-0.5281,-0.4303,-0.2685,-0.2684,-0.1598,0.0,0.0,0.0,0.0,0.0,0.0,0.0,0.0,0.0,0.0,0.0,0.0,0.0,0.0,0.0,0.0,0.0,0.0,0.0,0.0,0.0,0.0,0.0,0.0,0.0,-1.0779,-1.073,-1.0925,-1.1317,-1.1365,-1.1365,-1.1365,-1.1559,-1.0915,-0.941,-0.9805,-0.9896,-0.9622,-0.9235,-0.8931,-0.8716,-0.8913,-0.8981,-0.8885,-0.8981,-0.9001,-0.9022,-0.9279,-0.9408,-0.9476,0.0,0.0,0.0,0.0,0.0,0.0,0.0,0.0,0.0,-0.9822,-0.9822,-0.9822,-0.9822,-0.9849,-0.9876,-0.9836,-1.0046,-0.9985,-0.8711,-0.8179,-0.7738,-0.6777,-0.5478,-0.4121,-0.3004,-0.22,-0.1558,-0.0887,0.0,0.0,0.0,0.0,0.0,0.0,0.0,0.0,0.0,0.0,0.0,0.0,0.0,0.0,0.0,0.0,0.0,0.0,0.0,0.0,0.0,-0.1613,-0.1605,-0.1589,-0.1041,-0.077,-0.0825,-0.0249,-0.0556,-0.1489,-0.1505,-0.1525,-0.1547,-0.1553,-0.1316,-0.0806,-0.079,-0.0456,0.0,0.0,0.0,0.0,0.0,0.0,0.0,0.0,0.0,0.0,0.0,0.0,0.0,0.0,0.0,0.0,0.0,-1.3451,-1.3451,0.0,0.0,0.0,0.0,0.0,0.0,-1.195,-1.1901,-1.2145,-1.2668,-1.2668,-1.2668,-1.2668,-1.3002,-1.236,-1.073,-1.091,-1.0792,-1.0484,-0.9652,-0.9065,-0.8804,-0.8844,-0.8885,-0.8885,-0.8885,-0.8885,-0.8905,-0.9198,-0.9327,-0.9408,0.0,0.0,0.0,0.0,0.0,0.0,0.0,0.0,0.0,-0.9822,-0.9822,-0.9822,-0.9822,-0.9863,-0.9849,-0.9849,-0.9587,-0.8968,-0.7958,-0.6728,-0.5424,-0.3869,-0.3131,-0.2349,-0.0384,0.0,0.0,0.0,0.0,0.0,0.0,0.0,0.0,0.0,0.0,0.0,0.0,0.0,0.0,0.0,0.0,0.0,0.0,0.0,0.0,0.0,0.0,0.0,0.0,0.0,0.0,0.0,0.0,0.0,0.0,0.0,0.0,0.0,0.0,0.0,0.0,0.0,0.0,0.0,0.0,0.0,0.0,0.0,0.0,0.0,0.0,0.0,0.0,0.0,0.0,0.0,0.0,0.0,0.0,0.0,0.0,0.0,0.0,-1.5879,-1.5784,0.0,0.0,0.0,0.0,0.0,0.0,0.0,-1.2242,-1.2813,-1.4016,-1.4064,-1.4064,-1.4064,-1.435,-1.3736,-1.2157,-1.2342,-1.1875,-1.0824,-1.041,-0.9739,-0.8865,-0.8865,-0.8871,-0.8885,-0.8871,-0.8871,-0.8898,-0.911,-0.9316,-0.9401,-0.9551,0.0,0.0,0.0,0.0,0.0,0.0,0.0,0.0,-0.9815,-0.9822,-0.9822,-0.9822,-0.9794,-0.9777,-0.979,-0.8557,-0.7355,-0.7318,-0.4806,-0.1842,-0.0364,-0.1452,-0.2286,-0.0385,0.0,0.0,0.0,0.0,0.0,0.0,0.0,0.0,0.0,0.0,0.0,0.0,0.0,0.0,0.0,0.0,0.0,0.0,0.0,0.0,0.0,0.0,0.0,0.0,0.0,0.0,0.0,0.0,0.0,0.0,0.0,0.0,0.0,0.0,0.0,0.0,0.0,0.0,0.0,0.0,0.0,0.0,0.0,0.0,0.0,0.0,0.0,0.0,0.0,0.0,0.0,0.0,0.0,0.0,0.0,0.0,0.0,0.0,0.0,0.0,0.0,0.0,0.0,0.0,0.0,0.0,0.0,-1.4949,-1.5105,-1.5391,-1.5391,-1.5391,-1.5391,-1.5885,-1.5457,-1.4032,-1.2946,-1.1721,-1.0331,-0.9369,-0.8846,-0.8757,-0.8757,-0.8825,-0.8878,-0.8811,-0.8825,-0.8905,-0.9225,-0.9354,-0.9401,-0.9551,-0.97,0.0,0.0,0.0,0.0,0.0,0.0,0.0,-0.9788,-0.9822,-0.9822,-0.9822,-0.8915,-0.7971,-0.7946,-0.6728,-0.5174,-0.3969,-0.2053,-0.0443,-0.0075,-0.0379,-0.0532,-0.0074,0.0,0.0,0.0,0.0,0.0,0.0,0.0,0.0,0.0,0.0,0.0,0.0,0.0,0.0,0.0,0.0,0.0,0.0,0.0,0.0,0.0,0.0,0.0,0.0,0.0,0.0,0.0,0.0,0.0,0.0,0.0,0.0,0.0,0.0,0.0,0.0,0.0,0.0,0.0,0.0,0.0,0.0,0.0,0.0,0.0,0.0,0.0,0.0,0.0,0.0,0.0,0.0,0.0,0.0,0.0,0.0,0.0,0.0,0.0,0.0,0.0,0.0,0.0,0.0,0.0,0.0,0.0,0.0,-1.5784,-1.5784,-1.5784,-1.5784,-1.5784,-1.6273,-1.5482,-1.3456,-1.2789,-1.1872,-1.0617,-0.9217,-0.8676,-0.8818,-0.8818,-0.8811,-0.8878,-0.8797,-0.8906,-0.9055,-0.9211,-0.9361,-0.949,-0.9496,-0.9591,-0.9707,-0.9639,0.0,0.0,0.0,0.0,0.0,0.0,0.0,-0.9822,-0.9822,-0.8647,-0.7383,-0.75,-0.5678,-0.3355,-0.1722,-0.0647,0.0,0.0,0.0,0.0,0.0,0.0,0.0,0.0,0.0,0.0,0.0,0.0,0.0,0.0,0.0,0.0,0.0,0.0,0.0,0.0,0.0,0.0,0.0,0.0,0.0,0.0,0.0,0.0,0.0,0.0,0.0,0.0,0.0,0.0,0.0,0.0,0.0,0.0,0.0,0.0,0.0,0.0,0.0,0.0,0.0,0.0,0.0,0.0,0.0,0.0,0.0,0.0,0.0,0.0,0.0,0.0,0.0,0.0,0.0,0.0,0.0,0.0,0.0,0.0,0.0,0.0,0.0,0.0,0.0,0.0,0.0,0.0,0.0,0.0,-1.5784,-1.5784,-1.5784,-1.5784,-1.5919,-1.474,-1.2224,-1.2291,-1.1776,-1.0712,-0.9327,-0.8791,-0.8885,-0.8858,-0.8858,-0.8885,-0.8885,-0.9022,-0.9214,-0.9268,-0.9367,-0.9557,-0.9429,-0.9462,-0.9564,-0.9544,-0.9449,-0.9388,-0.9686,0.0,0.0,0.0,0.0,-0.9822,-0.9822,-0.8465,-0.7016,-0.7122,-0.4652,-0.171,-0.0349,0.0,0.0,0.0,0.0,0.0,0.0,0.0,0.0,0.0,0.0,0.0,0.0,0.0,0.0,0.0,0.0,0.0,0.0,0.0,0.0,0.0,0.0,0.0,0.0,0.0,0.0,0.0,0.0,0.0,0.0,0.0,0.0,0.0,0.0,0.0,0.0,0.0,0.0,0.0,0.0,0.0,0.0,0.0,0.0,0.0,0.0,0.0,0.0,0.0,0.0,0.0,0.0,0.0,0.0,0.0,0.0,0.0,0.0,0.0,0.0,0.0,0.0,0.0,0.0,-2.0178,-1.9451,0.0,0.0,0.0,0.0,0.0,0.0,-1.7498,0.0,0.0,-1.5784,-1.5784,-1.5784,-1.5784,-1.4972,-1.3868,-1.2352,-1.1526,-1.055,-0.9455,-0.8948,-0.8791,-0.8878,-0.8798,-0.8811,-0.8885,-0.8885,-0.9022,-0.9234,-0.9442,-0.9496,-0.9408,-0.9388,-0.9395,-0.9395,-0.9316,-0.9255,-0.9289,-0.9537,-0.9537,0.0,0.0,0.0,-0.9822,-0.9822,-0.7612,-0.5241,-0.5251,-0.2849,-0.0268,-0.0068,0.0,0.0,0.0,0.0,0.0,0.0,0.0,0.0,0.0,0.0,0.0,0.0,0.0,0.0,0.0,0.0,0.0,0.0,0.0,0.0,0.0,0.0,0.0,0.0,0.0,0.0,0.0,0.0,0.0,0.0,0.0,0.0,0.0,0.0,0.0,0.0,0.0,0.0,0.0,0.0,0.0,0.0,0.0,0.0,0.0,0.0,0.0,0.0,0.0,0.0,0.0,0.0,0.0,0.0,0.0,0.0,0.0,0.0,0.0,0.0,0.0,0.0,0.0,0.0,0.0,-2.1257,0.0,0.0,0.0,-1.9542,-1.9497,-1.8993,-1.7777,-1.6527,-1.5784,-1.5784,-1.5784,-1.5784,-1.5784,-1.4678,-1.3478,-1.2314,-1.1084,-0.9973,-0.8906,-0.8859,-0.896,-0.9184,-0.9117,-0.9076,-0.9062,-0.915,-0.9225,-0.93,-0.9517,-0.9571,-0.9503,-0.9415,-0.9327,-0.9316,-0.933,-0.9171,-0.9103,-0.9571,-0.9571,-0.9435,-0.9727,0.0,0.0,0.0,-0.6137,-0.3339,-0.2407,-0.11,0.0,0.0,0.0,0.0,0.0,0.0,0.0,0.0,0.0,0.0,0.0,0.0,0.0,0.0,0.0,0.0,0.0,0.0,0.0,0.0,0.0,0.0,0.0,0.0,0.0,0.0,0.0,0.0,0.0,0.0,0.0,0.0,0.0,0.0,0.0,0.0,0.0,0.0,0.0,0.0,0.0,0.0,0.0,0.0,0.0,0.0,0.0,0.0,0.0,0.0,0.0,0.0,0.0,0.0,0.0,0.0,0.0,0.0,0.0,0.0,0.0,0.0,0.0,0.0,0.0,0.0,0.0,0.0,0.0,0.0,0.0,0.0,-2.0404,-1.977,-1.8272,-1.6983,-1.615,-1.5832,-1.5784,-1.5784,-1.5784,-1.422,-1.3019,-1.2214,-1.056,-0.9399,-0.8771,-0.892,-0.913,-0.9381,-0.9381,-0.9357,-0.9221,-0.9313,-0.9401,-0.9449,-0.9523,-0.9551,-0.9537,-0.9381,-0.9232,-0.9117,-0.9266,-0.9184,0.0,0.0,-0.9618,-0.9424,-0.9252,-0.8343,0.0,0.0,0.0,-0.2105,-0.0444,0.0,0.0,0.0,0.0,0.0,0.0,0.0,0.0,0.0,0.0,0.0,0.0,0.0,0.0,0.0,0.0,0.0,0.0,0.0,0.0,0.0,0.0,0.0,0.0,0.0,0.0,0.0,0.0,0.0,0.0,0.0,0.0,0.0,0.0,0.0,0.0,0.0,0.0,0.0,0.0,0.0,0.0,0.0,0.0,0.0,0.0,0.0,0.0,0.0,0.0,0.0,0.0,0.0,0.0,0.0,0.0,0.0,0.0,0.0,0.0,0.0,0.0,0.0,0.0,0.0,0.0,0.0,0.0,0.0,-2.2994,-2.2994,-2.2994,-2.2906,-2.2906,-2.1898,-1.9542,-1.8272,-1.7044,-1.5832,-1.5784,0.0,-1.5784,-1.3307,-1.2051,-1.2214,-0.978,-0.8681,-0.8871,-0.9076,-0.9282,-0.9381,-0.9381,-0.9357,-0.9221,-0.9313,-0.9462,-0.9585,-0.9449,-0.9395,-0.9374,-0.9282,-0.9076,-0.8912,-0.9117,0.0,0.0,0.0,0.0,0.0,0.0,0.0,-0.7118,0.0,0.0,0.0,-0.0433,0.0,0.0,0.0,0.0,0.0,0.0,0.0,0.0,0.0,0.0,0.0,0.0,0.0,0.0,0.0,0.0,0.0,0.0,0.0,0.0,0.0,0.0,0.0,0.0,0.0,0.0,0.0,0.0,0.0,0.0,0.0,0.0,0.0,0.0,0.0,0.0,0.0,0.0,0.0,0.0,0.0,0.0,0.0,0.0,0.0,0.0,0.0,0.0,0.0,0.0,0.0,0.0,0.0,0.0,0.0,0.0,0.0,0.0,0.0,0.0,0.0,0.0,0.0,0.0,0.0,0.0,0.0,0.0,0.0,0.0,-2.3101,-2.3101,-2.3101,-2.2403,-2.1257,-1.9633,-1.8365,-1.7138,-1.5879,-1.5784,-1.5784,-1.5784,-1.3258,-1.1932,-1.2012,-0.9411,-0.8303,-0.8513,-0.8757,-0.8899,-0.896,-0.9252,-0.9354,-0.9306,-0.9462,-0.9557,-0.9605,-0.9551,-0.9469,-0.9361,-0.9268,-0.9062,0.0,0.0,0.0,0.0,0.0,0.0,0.0,0.0,0.0,0.0,-0.2216,-0.1356,-0.0742,-0.0187,0.0,0.0,0.0,0.0,0.0,0.0,0.0,0.0,0.0,0.0,0.0,0.0,0.0,0.0,0.0,0.0,0.0,0.0,0.0,0.0,0.0,0.0,0.0,0.0,0.0,0.0,0.0,0.0,0.0,0.0,0.0,0.0,0.0,0.0,0.0,0.0,0.0,0.0,0.0,0.0,0.0,0.0,0.0,0.0,0.0,0.0,0.0,0.0,0.0,0.0,0.0,0.0,0.0,0.0,0.0,0.0,0.0,0.0,0.0,0.0,0.0,0.0,0.0,0.0,0.0,-2.3101,-2.3101,0.0,0.0,0.0,0.0,-2.3101,-2.3101,-2.2359,-2.1212,-1.9633,-1.8734,-1.7544,-1.5879,-1.5784,-1.5581,-1.514,-1.3017,-1.1707,-1.1268,-0.918,-0.8241,-0.835,-0.8648,-0.8784,-0.8798,-0.9103,-0.9286,-0.9388,-0.949,-0.9591,-0.9666,-0.9517,-0.9456,-0.9442,-0.9344,0.0,0.0,0.0,0.0,0.0,0.0,0.0,0.0,0.0,0.0,0.0,0.0,0.0,0.0,0.0,0.0,0.0,0.0,0.0,0.0,0.0,0.0,0.0,0.0,0.0,0.0,0.0,0.0,0.0,0.0,0.0,0.0,0.0,0.0,0.0,0.0,0.0,0.0,0.0,0.0,0.0,0.0,0.0,0.0,0.0,0.0,0.0,0.0,0.0,0.0,0.0,0.0,0.0,0.0,0.0,0.0,0.0,0.0,0.0,0.0,0.0,0.0,0.0,0.0,0.0,0.0,0.0,0.0,0.0,0.0,0.0,0.0,0.0,0.0,0.0,0.0,0.0,0.0,0.0,0.0,-2.3101,-2.3101,0.0,0.0,0.0,0.0,0.0,-2.3101,-2.3057,-2.205,-1.9679,-1.9451,-1.8349,-1.5927,-1.5784,-1.5188,-1.392,-1.2571,-1.1268,-1.0002,-0.8991,-0.8472,-0.8479,-0.8791,-0.8878,-0.8878,-0.8885,-0.9103,-0.9374,-0.9374,-0.9544,-0.9781,-0.934,-0.934,-0.9591,0.0,0.0,0.0,-0.9537,-0.9496,0.0,-0.9374,0.0,0.0,0.0,0.0,0.0,0.0,0.0,0.0,0.0,0.0,0.0,0.0,0.0,0.0,0.0,0.0,0.0,0.0,0.0,0.0,0.0,0.0,0.0,0.0,0.0,0.0,0.0,0.0,0.0,0.0,0.0,0.0,0.0,0.0,0.0,0.0,0.0,0.0,0.0,0.0,0.0,0.0,0.0,0.0,0.0,0.0,0.0,0.0,0.0,0.0,0.0,0.0,0.0,0.0,0.0,0.0,0.0,0.0,0.0,0.0,0.0,0.0,0.0,0.0,0.0,0.0,0.0,0.0,0.0,0.0,0.0,-2.3101,-2.3101,-2.3101,-2.3101,0.0,0.0,0.0,-2.3101,-2.3101,-2.3101,-2.3101,-2.2296,-2.1123,-1.9588,-1.8688,-1.7498,-1.5879,-1.5784,-1.5188,-1.392,-1.2571,-1.1268,-1.0002,-0.8889,-0.8381,-0.8336,-0.8635,-0.8771,-0.8777,-0.8838,-0.9042,-0.9275,-0.9275,-0.9449,-0.9788,-0.9456,-0.9435,0.0,0.0,0.0,0.0,0.0,-0.9164,-0.9275,0.0,-0.7544,-0.4903,0.0,0.0,0.0,0.0,0.0,0.0,0.0,0.0,0.0,0.0,0.0,0.0,0.0,0.0,0.0,0.0,0.0,0.0,0.0,0.0,0.0,0.0,0.0,0.0,0.0,0.0,0.0,0.0,0.0,0.0,0.0,0.0,0.0,0.0,0.0,0.0,0.0,0.0,0.0,0.0,0.0,0.0,0.0,0.0,0.0,0.0,0.0,0.0,0.0,0.0,0.0,0.0,0.0,0.0,0.0,0.0,0.0,0.0,0.0,0.0,0.0,0.0,0.0,0.0,0.0,0.0,0.0,-2.3101,-2.3101,-2.3101,-2.3101,-2.3101,-2.3101,0.0,0.0,0.0,-2.3101,-2.3101,-2.3101,-2.3101,-2.1987,-2.0792,-1.9588,-1.8365,-1.7138,-1.5879,-1.5784,-1.4949,-1.3102,-1.2374,-1.1145,-0.928,-0.8756,-0.8452,-0.8459,-0.8696,-0.8804,-0.8811,-0.8844,-0.8988,-0.9062,-0.9062,-0.9286,0.0,-0.9449,0.0,0.0,-0.935,-0.9157,0.0,0.0,0.0,-0.9289,-0.9103,-0.7117,0.0,0.0,0.0,0.0,0.0,0.0,0.0,0.0,0.0,0.0,0.0,0.0,0.0,0.0,0.0,0.0,0.0,0.0,0.0,0.0,0.0,0.0,0.0,0.0,0.0,0.0,0.0,0.0,0.0,0.0,0.0,0.0,0.0,0.0,0.0,0.0,0.0,0.0,0.0,0.0,0.0,0.0,0.0,0.0,0.0,0.0,0.0,0.0,0.0,0.0,0.0,0.0,0.0,0.0,0.0,0.0,0.0,0.0,0.0,0.0,0.0,0.0,0.0,0.0,0.0,0.0,0.0,-2.3101,-2.3101,-2.3101,-2.3101,-2.3101,-2.3101,-2.3101,0.0,-2.314,-2.3179,-2.3237,-2.3198,-2.3198,-2.3237,-2.1954,-2.0674,-1.9637,-1.8241,-1.6998,-1.5832,-1.5689,-1.4424,-1.195,-1.1954,-1.0768,-0.832,-0.8567,-0.871,-0.8716,-0.8811,-0.8885,-0.8885,-0.8885,-0.8885,-0.8885,-0.8919,0.0,-0.9306,-0.9327,-0.9273,0.0,0.0,-0.9211,-0.9152,-0.9232,-0.9293,-0.9215,-0.8644,-0.6677,0.0,0.0,0.0,0.0,0.0,0.0,0.0,0.0,0.0,0.0,0.0,0.0,0.0,0.0,0.0,0.0,0.0,0.0,0.0,0.0,0.0,0.0,0.0,0.0,0.0,0.0,0.0,0.0,0.0,0.0,0.0,0.0,0.0,0.0,0.0,0.0,0.0,0.0,0.0,0.0,0.0,0.0,0.0,0.0,0.0,0.0,0.0,0.0,0.0,0.0,0.0,0.0,0.0,0.0,0.0,0.0,0.0,0.0,0.0,0.0,0.0,0.0,0.0,0.0,0.0,0.0,-2.3101,-2.3101,-2.3101,-2.3101,-2.3101,-2.3101,-2.3101,-2.3101,-2.3101,-2.3437,-2.3789,-2.4141,-2.3867,-2.3789,-2.4141,-2.1499,-1.9887,-1.9986,-1.7584,-1.6055,-1.5832,-1.4806,-1.3536,-1.195,-1.1061,-0.9817,-0.832,-0.8567,-0.871,-0.8716,-0.8811,-0.8885,-0.8885,-0.8885,-0.8885,-0.8898,-0.9191,0.0,-0.8852,-0.8974,0.0,-0.93,-0.8967,-0.8743,-0.8615,-0.8648,-0.8737,-0.8481,-0.6163,-0.4971,-0.3974,0.0,0.0,0.0,0.0,0.0,0.0,0.0,0.0,0.0,0.0,0.0,0.0,0.0,0.0,0.0,0.0,0.0,0.0,0.0,0.0,0.0,0.0,0.0,0.0,0.0,0.0,0.0,0.0,0.0,0.0,0.0,0.0,0.0,0.0,0.0,0.0,0.0,0.0,0.0,0.0,0.0,0.0,0.0,0.0,0.0,0.0,0.0,0.0,0.0,0.0,0.0,0.0,0.0,0.0,0.0,0.0,0.0,0.0,0.0,0.0,0.0,0.0,0.0,0.0,-2.3101,-2.3101,-2.3101,-2.3101,-2.3101,-2.3101,-2.3101,-2.3101,-2.3179,-2.3437,-2.3828,-2.4102,-2.4102,-2.4102,-2.3905,-2.3448,-2.1322,-1.9825,-1.9335,-1.7398,-1.6206,-1.6059,-1.5454,-1.4121,-1.2112,-1.157,-1.0399,-0.8492,-0.8716,-0.8825,-0.8825,-0.8851,-0.8844,-0.8825,-0.8851,-0.8844,-0.8838,-0.9062,-0.9069,-0.894,-0.9015,0.0,-0.8811,-0.8655,-0.8506,-0.8384,-0.8459,-0.8533,-0.8154,-0.5421,-0.4408,0.0,0.0,0.0,0.0,0.0,0.0,0.0,0.0,0.0,0.0,0.0,0.0,0.0,0.0,0.0,0.0,0.0,0.0,0.0,0.0,0.0,0.0,0.0,0.0,0.0,0.0,0.0,0.0,0.0,0.0,0.0,0.0,0.0,0.0,0.0,0.0,0.0,0.0,0.0,0.0,0.0,0.0,0.0,0.0,0.0,0.0,0.0,0.0,0.0,0.0,0.0,0.0,0.0,0.0,0.0,0.0,0.0,0.0,0.0,0.0,0.0,0.0,0.0,0.0,0.0,-2.3101,-2.3101,-2.3101,-2.3101,-2.3101,-2.3101,-2.3101,-2.3101,-2.3276,-2.3848,-2.4048,-2.4036,-2.3863,-2.3841,-2.3465,-2.2509,-2.1074,-1.9763,-1.8786,-1.7455,-1.658,-1.6286,-1.6117,-1.4813,-1.2274,-1.2118,-1.0993,-0.871,-0.8811,-0.8885,-0.8885,-0.8885,-0.8817,-0.8757,-0.8797,-0.8859,-0.8804,-0.8844,0.0,-0.9125,0.0,-0.8852,-0.8404,-0.8431,-0.837,-0.834,-0.8397,-0.8438,-0.8059,-0.533,0.0,-0.3681,-0.0909,0.0,0.0,0.0,0.0,0.0,0.0,0.0,0.0,0.0,0.0,0.0,0.0,0.0,0.0,0.0,0.0,0.0,0.0,0.0,0.0,0.0,0.0,0.0,0.0,0.0,0.0,0.0,0.0,0.0,0.0,0.0,0.0,0.0,0.0,0.0,0.0,0.0,0.0,0.0,0.0,0.0,0.0,0.0,0.0,0.0,0.0,0.0,0.0,0.0,0.0,0.0,0.0,0.0,0.0,0.0,0.0,0.0,0.0,0.0,0.0,0.0,0.0,0.0,-2.3101,-2.3101,-2.3101,-2.3101,-2.3101,-2.3101,-2.3101,-2.3101,-2.3393,-2.4238,-2.356,-2.3268,-2.3985,-2.2702,-2.1995,-2.2452,-2.0175,-1.8945,-1.9427,-1.7742,-1.658,-1.6286,-1.5445,-1.4093,-1.2224,-1.1435,-1.0281,-0.871,-0.8811,-0.8885,-0.8885,-0.8885,-0.8871,-0.8851,-0.8791,-0.8872,-0.9152,-0.8988,-0.8872,0.0,-0.8757,-0.8804,0.0,-0.8438,-0.8333,-0.8327,-0.834,-0.8347,-0.7917,0.0,-0.4205,-0.3726,0.0,0.0,0.0,0.0,0.0,0.0,0.0,0.0,0.0,0.0,0.0,0.0,0.0,0.0,0.0,0.0,0.0,0.0,0.0,0.0,0.0,0.0,0.0,0.0,0.0,0.0,0.0,0.0,0.0,0.0,0.0,0.0,0.0,0.0,0.0,0.0,0.0,0.0,0.0,0.0,0.0,0.0,0.0,0.0,0.0,0.0,0.0,0.0,0.0,0.0,0.0,0.0,0.0,0.0,0.0,0.0,0.0,0.0,0.0,0.0,0.0,0.0,0.0,0.0,-2.3198,-2.3101,-2.2862,-2.2164,-2.2192,-2.206,-2.1177,-2.2034,-2.2841,-2.2861,-2.3147,-2.3161,-2.2655,0.0,0.0,0.0,0.0,-1.9366,0.0,0.0,-1.7341,-1.7048,-1.6509,-1.5152,-1.2902,-1.2269,-1.0988,-0.8845,-0.8851,-0.8885,-0.8885,-0.8885,-0.8885,-0.8878,-0.8777,-0.8777,-0.8893,0.0,-0.8771,0.0,0.0,0.0,0.0,-0.8309,-0.814,-0.814,-0.814,-0.814,-0.7705,0.0,-0.4093,0.0,0.0,0.0,0.0,0.0,0.0,0.0,0.0,0.0,0.0,0.0,0.0,0.0,0.0,0.0,0.0,0.0,0.0,0.0,0.0,0.0,0.0,0.0,0.0,0.0,0.0,0.0,0.0,0.0,0.0,0.0,0.0,0.0,0.0,0.0,0.0,0.0,0.0,0.0,0.0,0.0,0.0,0.0,0.0,0.0,0.0,0.0,0.0,0.0,0.0,0.0,0.0,0.0,0.0,0.0,0.0,0.0,0.0,0.0,0.0,0.0,0.0,0.0,0.0,0.0,-2.2497,-2.2655,-2.252,-2.1263,-2.1281,-2.1043,-1.9919,-2.1041,-2.1919,-2.1602,-2.2146,-2.2182,-2.1306,-2.1239,0.0,0.0,-2.0152,-1.9525,0.0,0.0,-1.7876,0.0,0.0,0.0,0.0,-1.308,-1.1666,-0.8885,-0.8885,-0.8885,-0.8885,-0.8885,-0.8885,-0.8878,-0.8777,-0.873,-0.8771,0.0,-0.8648,-0.8642,-0.8608,-0.8567,-0.8492,-0.8208,-0.8029,-0.7988,-0.7988,-0.7988,-0.7603,-0.4924,-0.4008,0.0,-0.0851,0.0,0.0,0.0,0.0,0.0,0.0,0.0,0.0,0.0,0.0,0.0,0.0,0.0,0.0,0.0,0.0,0.0,0.0,0.0,0.0,0.0,0.0,0.0,0.0,0.0,0.0,0.0,0.0,0.0,0.0,0.0,0.0,0.0,0.0,0.0,0.0,0.0,0.0,0.0,0.0,0.0,0.0,0.0,0.0,0.0,0.0,0.0,0.0,0.0,0.0,0.0,0.0,0.0,0.0,0.0,0.0,0.0,0.0,0.0,0.0,0.0,0.0,0.0,-2.0489,-2.151,-2.1984,-2.0681,-2.0457,-2.0409,-2.0392,-2.0409,-2.0588,-2.0983,-2.0167,0.0,0.0,0.0,0.0,0.0,0.0,-1.8905,-1.8891,0.0,-1.7782,0.0,0.0,-1.6382,0.0,0.0,-1.21,-0.8885,-0.8885,-0.8885,-0.8885,-0.8885,-0.8885,-0.8878,-0.8777,-0.8791,-0.8858,-0.8615,-0.8486,-0.8479,-0.8336,-0.8194,-0.8029,0.0,-0.8167,-0.7988,-0.7988,0.0,0.0,-0.4924,-0.3975,0.0,0.0,0.0,0.0,0.0,0.0,0.0,0.0,0.0,0.0,0.0,0.0,0.0,0.0,0.0,0.0,0.0,0.0,0.0,0.0,0.0,0.0,0.0,0.0,0.0,0.0,0.0,0.0,0.0,0.0,0.0,0.0,0.0,0.0,0.0,0.0,0.0,0.0,0.0,0.0,0.0,0.0,0.0,0.0,0.0,0.0,0.0,0.0,0.0,0.0,0.0,0.0,0.0,0.0,0.0,0.0,0.0,0.0,0.0,0.0,0.0,0.0,0.0,0.0,0.0,-2.0385,-2.059,-2.0522,-1.9352,-1.9315,-1.9468,-1.9468,-1.9568,-1.9768,0.0,0.0,0.0,0.0,-1.973,-1.9666,0.0,0.0,-1.9626,-1.9239,-1.9025,0.0,0.0,0.0,-1.6925,0.0,0.0,0.0,-0.9083,-0.8988,-0.8885,-0.8885,-0.8885,-0.8988,-0.9069,-0.8825,-0.8737,0.0,0.0,0.0,0.0,0.0,-0.8241,-0.8187,0.0,0.0,-0.7988,-0.7988,-0.7988,0.0,-0.5917,-0.5315,-0.485,-0.2158,-0.1305,-0.1168,-0.0263,0.0,0.0,0.0,0.0,0.0,0.0,0.0,0.0,0.0,0.0,0.0,0.0,0.0,0.0,0.0,0.0,0.0,0.0,0.0,0.0,0.0,0.0,0.0,0.0,0.0,0.0,0.0,0.0,0.0,0.0,0.0,0.0,0.0,0.0,0.0,0.0,0.0,0.0,0.0,0.0,0.0,0.0,0.0,0.0,0.0,0.0,0.0,0.0,0.0,0.0,0.0,0.0,0.0,0.0,0.0,0.0,0.0,0.0,0.0,0.0,-1.9522,-1.9305,-1.9007,0.0,0.0,-1.8511,-1.8511,0.0,0.0,0.0,-1.9828,0.0,-1.9838,0.0,-2.0027,0.0,-2.0167,-1.9987,-1.947,-1.9265,0.0,-1.8784,-1.8069,0.0,0.0,0.0,0.0,0.0,-0.8981,-0.8885,-0.8885,-0.8885,-0.8988,-0.9062,-0.8818,-0.8682,-0.8621,-0.8472,-0.8323,0.0,0.0,-0.8187,0.0,0.0,-0.8022,-0.8113,0.0,-0.7988,-0.7789,-0.6431,-0.567,-0.5001,-0.3279,-0.2046,-0.1198,-0.0824,-0.0363,0.0,0.0,0.0,0.0,0.0,0.0,0.0,0.0,0.0,0.0,0.0,0.0,0.0,0.0,0.0,0.0,0.0,0.0,0.0,0.0,0.0,0.0,0.0,0.0,0.0,0.0,0.0,0.0,0.0,0.0,0.0,0.0,0.0,0.0,0.0,0.0,0.0,0.0,0.0,0.0,0.0,0.0,0.0,0.0,0.0,0.0,0.0,0.0,0.0,0.0,0.0,0.0,0.0,0.0,0.0,0.0,0.0,0.0,0.0,-1.7983,0.0,0.0,0.0,-1.7796,0.0,0.0,0.0,-1.8504,0.0,-1.9052,-1.9533,-1.9826,-2.0107,-2.0267,-2.0254,-2.0193,0.0,-1.9484,-1.9118,0.0,0.0,-1.7142,-1.5546,-1.376,0.0,0.0,0.0,0.0,-0.8885,-0.8885,-0.8885,-0.8885,-0.8878,-0.8784,-0.8635,-0.8472,-0.8388,-0.8137,-0.7889,-0.7889,-0.7846,-0.7796,-0.7789,-0.7932,-0.8095,-0.7942,-0.7839,-0.7584,-0.6331,-0.5072,-0.3964,-0.3917,-0.2163,-0.0353,-0.1561,-0.1008,0.0,0.0,0.0,0.0,0.0,0.0,0.0,0.0,0.0,0.0,0.0,0.0,0.0,0.0,0.0,0.0,0.0,0.0,0.0,0.0,0.0,0.0,0.0,0.0,0.0,0.0,0.0,0.0,0.0,0.0,0.0,0.0,0.0,0.0,0.0,0.0,0.0,0.0,0.0,0.0,0.0,0.0,0.0,0.0,0.0,0.0,0.0,0.0,0.0,0.0,0.0,0.0,0.0,0.0,0.0,0.0,0.0,0.0,0.0,-1.8397,-1.8303,-1.821,0.0,-1.7796,-1.7662,0.0,0.0,0.0,0.0,-1.9653,-2.0201,-2.0722,-2.0842,-2.0802,-2.0575,-2.0561,0.0,0.0,0.0,0.0,-1.9158,-1.7654,-1.6031,-1.4405,-1.2648,0.0,-0.9266,0.0,-0.8885,-0.8885,-0.8885,-0.8885,-0.8885,-0.8844,-0.873,-0.8479,-0.8445,-0.7705,-0.6531,-0.6531,-0.5977,0.0,0.0,-0.5128,-0.5355,-0.6218,-0.5877,-0.4968,-0.4618,-0.4268,-0.3817,-0.2814,-0.2063,-0.136,-0.0706,-0.0252,0.0,0.0,0.0,0.0,0.0,0.0,0.0,0.0,0.0,0.0,0.0,0.0,0.0,0.0,0.0,0.0,0.0,0.0,0.0,0.0,0.0,0.0,0.0,0.0,0.0,0.0,0.0,0.0,0.0,0.0,0.0,0.0,0.0,0.0,0.0,0.0,0.0,0.0,0.0,0.0,0.0,0.0,0.0,0.0,0.0,0.0,0.0,0.0,0.0,0.0,0.0,0.0,0.0,0.0,0.0,0.0,0.0,0.0,0.0,-1.8691,0.0,0.0,-1.8408,0.0,0.0,-1.8342,0.0,0.0,-1.9479,-1.984,0.0,-2.0681,-2.0722,-2.0615,-2.0321,-2.0294,0.0,-1.9639,0.0,0.0,-1.8415,-1.6739,-1.5109,-1.3381,-1.1578,0.0,-0.9191,0.0,-0.8885,-0.8885,-0.8885,-0.8885,-0.8878,-0.8811,-0.8743,-0.8521,-0.7857,-0.6627,-0.5132,-0.514,0.0,0.0,-0.4031,-0.3688,-0.3313,-0.3984,-0.4117,-0.4014,-0.4014,-0.3616,-0.3115,-0.2914,-0.2063,-0.1109,-0.0907,-0.0454,0.0,0.0,0.0,0.0,0.0,0.0,0.0,0.0,0.0,0.0,0.0,0.0,0.0,0.0,0.0,0.0,0.0,0.0,0.0,0.0,0.0,0.0,0.0,0.0,0.0,0.0,0.0,0.0,0.0,0.0,0.0,0.0,0.0,0.0,0.0,0.0,0.0,0.0,0.0,0.0,0.0,0.0,0.0,0.0,0.0,0.0,0.0,0.0,0.0,0.0,0.0,0.0,0.0,0.0,0.0,0.0,0.0,0.0,0.0,0.0,0.0,0.0,0.0,0.0,0.0,0.0,-1.9038,0.0,-1.9733,0.0,-1.9947,-2.014,-2.0167,-2.012,-1.9826,0.0,-1.9679,-1.9444,-1.9185,-1.846,-1.7079,-1.5168,-1.3413,-1.1917,-1.0117,0.0,0.0,0.0,-0.8885,-0.8885,-0.8865,-0.8865,-0.8878,-0.8777,-0.8588,0.0,-0.6681,-0.5141,-0.375,-0.3739,-0.3616,-0.3466,-0.3466,-0.2764,-0.1762,-0.1762,-0.2465,-0.3466,-0.3466,-0.2714,-0.1962,-0.3115,-0.1861,-0.0252,-0.141,-0.0909,0.0,0.0,0.0,0.0,0.0,0.0,0.0,0.0,0.0,0.0,0.0,0.0,0.0,0.0,0.0,0.0,0.0,0.0,0.0,0.0,0.0,0.0,0.0,0.0,0.0,0.0,0.0,0.0,0.0,0.0,0.0,0.0,0.0,0.0,0.0,0.0,0.0,0.0,0.0,0.0,0.0,0.0,0.0,0.0,0.0,0.0,0.0,0.0,0.0,0.0,0.0,0.0,0.0,0.0,0.0,0.0,0.0,0.0,0.0,0.0,0.0,0.0,0.0,0.0,-1.9653,-1.9653,-1.9653,-1.9679,-1.9786,-2.0013,-2.0174,-2.0167,-2.0167,-2.012,-1.9826,-1.98,0.0,0.0,0.0,0.0,-1.702,-1.4143,-1.2448,-1.2116,-1.0288,-0.9327,0.0,0.0,-0.8885,-0.8878,-0.8811,-0.8818,-0.8878,-0.8777,-0.8047,-0.6801,-0.5124,0.0,-0.2374,-0.2366,-0.1712,-0.0706,-0.0706,-0.0555,-0.0353,-0.0353,-0.0504,-0.0706,-0.0706,-0.0555,-0.0404,-0.0605,-0.0353,-0.005,-0.0303,-0.0204,0.0,0.0,0.0,0.0,0.0,0.0,0.0,0.0,0.0,0.0,0.0,0.0,0.0,0.0,0.0,0.0,0.0,0.0,0.0,0.0,0.0,0.0,0.0,0.0,0.0,0.0,0.0,0.0,0.0,0.0,0.0,0.0,0.0,0.0,0.0,0.0,0.0,0.0,0.0,0.0,0.0,0.0,0.0,0.0,0.0,0.0,0.0,0.0,0.0,0.0,0.0,0.0,0.0,0.0,0.0,0.0,0.0,0.0,0.0,0.0,0.0,0.0,0.0,0.0,0.0,0.0,-1.7841,0.0,-1.9562,-1.9653,-1.9613,-1.9773,-1.9786,-1.9733,-1.9586,-1.9573,-1.9155,-1.8227,-1.7443,-1.6256,-1.4589,-1.2949,0.0,-1.0768,-0.978,-0.9225,-0.915,0.0,0.0,-0.8818,-0.8743,-0.875,-0.8763,-0.7979,-0.6393,0.0,0.0,0.0,-0.0971,-0.0962,-0.0555,0.0,0.0,0.0,0.0,0.0,0.0,0.0,0.0,0.0,0.0,0.0,0.0,0.0,0.0,0.0,0.0,0.0,0.0,0.0,0.0,0.0,0.0,0.0,0.0,0.0,0.0,0.0,0.0,0.0,0.0,0.0,0.0,0.0,0.0,0.0,0.0,0.0,0.0,0.0,0.0,0.0,0.0,0.0,0.0,0.0,0.0,0.0,0.0,0.0,0.0,0.0,0.0,0.0,0.0,0.0,0.0,0.0,0.0,0.0,0.0,0.0,0.0,0.0,0.0,0.0,0.0,0.0,0.0,0.0,0.0,0.0,0.0,0.0,0.0,0.0,-1.8829,0.0,0.0,-1.7541,0.0,-1.6788,-1.58,-1.5903,-1.8464,-1.8331,-1.8103,-1.8331,-1.8357,-1.8357,-1.8357,-1.8357,-1.7806,-1.655,-1.6141,-1.4813,-1.2269,-1.1677,-1.0829,-0.9439,-0.9289,-0.9083,0.0,0.0,0.0,0.0,-0.8696,-0.8528,0.0,0.0,0.0,0.0,0.0,-0.1086,0.0,0.0,0.0,0.0,0.0,0.0,0.0,0.0,0.0,0.0,0.0,0.0,0.0,0.0,0.0,0.0,0.0,0.0,0.0,0.0,0.0,0.0,0.0,0.0,0.0,0.0,0.0,0.0,0.0,0.0,0.0,0.0,0.0,0.0,0.0,0.0,0.0,0.0,0.0,0.0,0.0,0.0,0.0,0.0,0.0,0.0,0.0,0.0,0.0,0.0,0.0,0.0,0.0,0.0,0.0,0.0,0.0,0.0,0.0,0.0,0.0,0.0,0.0,0.0,0.0,0.0,0.0,0.0,0.0,0.0,0.0,0.0,0.0,0.0,0.0,0.0,0.0,0.0,0.0,0.0,0.0,0.0,0.0,0.0,-1.4922,-1.5115,-1.5418,-1.5199,-1.4994,-1.5074,-1.5074,-1.5074,-1.5074,-1.5074,-1.5015,-1.4837,-1.3348,-1.2308,-1.2014,-1.0514,-0.9569,-0.9381,-0.9289,-0.9083,0.0,0.0,0.0,0.0,0.0,0.0,0.0,0.0,0.0,0.0,-0.0779,-0.0103,0.0,0.0,0.0,0.0,0.0,0.0,0.0,0.0,0.0,0.0,0.0,0.0,0.0,0.0,0.0,0.0,0.0,0.0,0.0,0.0,0.0,0.0,0.0,0.0,0.0,0.0,0.0,0.0,0.0,0.0,0.0,0.0,0.0,0.0,0.0,0.0,0.0,0.0,0.0,0.0,0.0,0.0,0.0,0.0,0.0,0.0,0.0,0.0,0.0,0.0,0.0,0.0,0.0,0.0,0.0,0.0,0.0,0.0,0.0,0.0,0.0,0.0,0.0,0.0,0.0,0.0,0.0,0.0,0.0,0.0,0.0,0.0,0.0,0.0,0.0,0.0,0.0,0.0,0.0,0.0,0.0,0.0,0.0,0.0,-1.225,-1.1643,-1.1643,-1.332,-1.4455,-1.4455,-1.4392,-1.431,-1.431,-1.431,-1.3905,-1.2987,-1.2276,-1.1429,-1.0507,-0.9723,-0.9303,-0.9303,-0.9103,-0.8994,0.0,0.0,0.0,0.0,0.0,0.0,0.0,0.0,-0.2289,-0.0856,-0.0265,0.0,0.0,0.0,0.0,0.0,0.0,0.0,0.0,0.0,0.0,0.0,0.0,0.0,0.0,0.0,0.0,0.0,0.0,0.0,0.0,0.0,0.0,0.0,0.0,0.0,0.0,0.0,0.0,0.0,0.0,0.0,0.0,0.0,0.0,0.0,0.0,0.0,0.0,0.0,0.0,0.0,0.0,0.0,0.0,0.0,0.0,0.0,0.0,0.0,0.0,0.0,0.0,0.0,0.0,0.0,0.0,0.0,0.0,0.0,0.0,0.0,0.0,0.0,0.0,0.0,0.0,0.0,0.0,0.0,0.0,0.0,0.0,0.0,0.0,0.0,0.0,0.0,0.0,-1.5751,0.0,-1.3544,0.0,-1.2098,-1.1219,-1.1219,-1.0193,-0.9381,-0.9381,-1.1438,-1.2885,-1.295,-1.282,-1.2728,-1.2728,-1.2728,-1.228,-1.115,-1.1052,-1.0505,-0.9371,-0.9171,0.0,-0.9089,-0.8988,-0.8858,-0.8817,-0.8817,0.0,0.0,0.0,0.0,0.0,-0.2564,-0.1396,0.0,0.0,0.0,0.0,0.0,0.0,0.0,0.0,0.0,0.0,0.0,0.0,0.0,0.0,0.0,0.0,0.0,0.0,0.0,0.0,0.0,0.0,0.0,0.0,0.0,0.0,0.0,0.0,0.0,0.0,0.0,0.0,0.0,0.0,0.0,0.0,0.0,0.0,0.0,0.0,0.0,0.0,0.0,0.0,0.0,0.0,0.0,0.0,0.0,0.0,0.0,0.0,0.0,0.0,0.0,0.0,0.0,0.0,0.0,0.0,0.0,0.0,0.0,0.0,0.0,0.0,0.0,0.0,0.0,0.0,0.0,0.0,0.0,0.0,0.0,0.0,0.0,0.0,0.0,0.0,-1.2788,-1.1854,-1.1149,-0.9874,-0.9541,-0.9439,-0.9439,-0.9439,-0.9381,-0.9381,-0.9309,-0.9325,-0.9425,-0.9439,-0.9439,-0.9439,-0.9439,-0.9439,-0.9439,-0.9296,-0.9214,0.0,0.0,-0.8885,-0.8885,-0.8885,-0.8811,-0.8716,0.0,0.0,-0.8275,0.0,-0.4876,-0.2234,-0.222,-0.1394,0.0,0.0,0.0,0.0,0.0,0.0,0.0,0.0,0.0,0.0,0.0,0.0,0.0,0.0,0.0,0.0,0.0,0.0,0.0,0.0,0.0,0.0,0.0,0.0,0.0,0.0,0.0,0.0,0.0,0.0,0.0,0.0,0.0,0.0,0.0,0.0,0.0,0.0,0.0,0.0,0.0,0.0,0.0,0.0,0.0,0.0,0.0,0.0,0.0,0.0,0.0,0.0,0.0,0.0,0.0,0.0,0.0,0.0,0.0,0.0,0.0,0.0,0.0,0.0,0.0,0.0,0.0,0.0,0.0,0.0,0.0,0.0,0.0,0.0,0.0,0.0,0.0,0.0,0.0,0.0,-1.2372,-1.1228,-1.0196,-0.9678,-0.9571,-0.9503,-0.9395,-0.9381,-0.9347,-0.9296,-0.9241,-0.9193,-0.9083,-0.9083,-0.9083,0.0,-0.9083,-0.9083,0.0,-0.9035,-0.9008,-0.9008,-0.8905,-0.8885,-0.8885,-0.8885,-0.8858,-0.8811,0.0,0.0,0.0,-0.4632,-0.3009,-0.2022,-0.1085,-0.0435,0.0,0.0,0.0,0.0,0.0,0.0,0.0,0.0,0.0,0.0,0.0,0.0,0.0,0.0,0.0,0.0,0.0,0.0,0.0,0.0,0.0,0.0,0.0,0.0,0.0,0.0,0.0,0.0,0.0,0.0,0.0,0.0,0.0,0.0,0.0,0.0,0.0,0.0,0.0,0.0,0.0,0.0,0.0,0.0,0.0,0.0,0.0,0.0,0.0,0.0,0.0,0.0,0.0,0.0,0.0,0.0,0.0,0.0,0.0,0.0,0.0,0.0,0.0,0.0,0.0,0.0,0.0,0.0,0.0,0.0,0.0,0.0,0.0,0.0,0.0,0.0,0.0,0.0,0.0,0.0,-1.1426,-1.0432,-0.9693,-0.9551,-0.9476,-0.9388,-0.9239,-0.9211,-0.9184,-0.9083,-0.9076,-0.9042,-0.8892,-0.8885,0.0,-0.8885,-0.8885,-0.8885,-0.8885,-0.8885,-0.8885,-0.8885,-0.8885,-0.8885,-0.8885,0.0,0.0,-0.8885,-0.8268,-0.6931,-0.4789,-0.2944,-0.1791,-0.1237,-0.0381,0.0,0.0,0.0,0.0,0.0,0.0,0.0,0.0,0.0,0.0,0.0,0.0,0.0,0.0,0.0,0.0,0.0,0.0,0.0,0.0,0.0,0.0,0.0,0.0,0.0,0.0,0.0,0.0,0.0,0.0,0.0,0.0,0.0,0.0,0.0,0.0,0.0,0.0,0.0,0.0,0.0,0.0,0.0,0.0,0.0,0.0,0.0,0.0,0.0,0.0,0.0,0.0,0.0,0.0,0.0,0.0,0.0,0.0,0.0,0.0,0.0,0.0,0.0,0.0,0.0,0.0,0.0,0.0,0.0,0.0,0.0,0.0,0.0,0.0,0.0,0.0,0.0,0.0,0.0,0.0,0.0,-1.0063,-0.9693,0.0,0.0,-0.9323,0.0,-0.8981,-0.8905,-0.8912,-0.8898,-0.8898,-0.8892,-0.8885,-0.8885,-0.8885,-0.8885,0.0,0.0,0.0,-0.8885,-0.8885,-0.8885,-0.8885,-0.8885,-0.8885,-0.8885,-0.883,-0.8768,-0.7035,-0.4742,-0.2019,-0.191,-0.1201,0.0,0.0,0.0,0.0,0.0,0.0,0.0,0.0,0.0,0.0,0.0,0.0,0.0,0.0,0.0,0.0,0.0,0.0,0.0,0.0,0.0,0.0,0.0,0.0,0.0,0.0,0.0,0.0,0.0,0.0,0.0,0.0,0.0,0.0,0.0,0.0,0.0,0.0,0.0,0.0,0.0,0.0,0.0,0.0,0.0,0.0,0.0,0.0,0.0,0.0,0.0,0.0,0.0,0.0,0.0,0.0,0.0,0.0,0.0,0.0,0.0,0.0,0.0,0.0,0.0,0.0,0.0,0.0,0.0,0.0,0.0,0.0,0.0,0.0,0.0,0.0,0.0,0.0,0.0,0.0,0.0,0.0,0.0,0.0,0.0,-0.9523,-0.9309,-0.9367,-0.9408,-0.9144,-0.9198,-0.9232,-0.9117,-0.9103,-0.9062,-0.8898,-0.8885,-0.8885,-0.8885,-0.8885,-0.8885,-0.8885,-0.8885,-0.8885,-0.8885,-0.8885,-0.8885,-0.8885,-0.8885,-0.8325,-0.7204,-0.4557,-0.287,-0.2128,-0.0984,-0.0324,0.0,0.0,0.0,0.0,0.0,0.0,0.0,0.0,0.0,0.0,0.0,0.0,0.0,0.0,0.0,0.0,0.0,0.0,0.0,0.0,0.0,0.0,0.0,0.0,0.0,0.0,0.0,0.0,0.0,0.0,0.0,0.0,0.0,0.0,0.0,0.0,0.0,0.0,0.0,0.0,0.0,0.0,0.0,0.0,0.0,0.0,0.0,0.0,0.0,0.0,0.0,0.0,0.0,0.0,0.0,0.0,0.0,0.0,0.0,0.0,0.0,0.0,0.0,0.0,0.0,0.0,0.0,0.0,0.0,0.0,0.0,0.0,0.0,0.0,0.0,0.0,0.0,0.0,0.0,0.0,0.0,0.0,0.0,-0.9367,-0.9449,-0.9429,-0.9248,-0.935,-0.932,-0.9089,-0.9123,-0.915,-0.9062,-0.9055,-0.9028,-0.8892,-0.8885,-0.8885,-0.8885,-0.8885,-0.8885,-0.8885,-0.8885,-0.8885,-0.8885,-0.8885,-0.8602,-0.7931,-0.7875,-0.6811,-0.4634,-0.3017,-0.183,-0.1203,-0.0383,0.0,0.0,0.0,0.0,0.0,0.0,0.0,0.0,0.0,0.0,0.0,0.0,0.0,0.0,0.0,0.0,0.0,0.0,0.0,0.0,0.0,0.0,0.0,0.0,0.0,0.0,0.0,0.0,0.0,0.0,0.0,0.0,0.0,0.0,0.0,0.0,0.0,0.0,0.0,0.0,0.0,0.0,0.0,0.0,0.0,0.0,0.0,0.0,0.0,0.0,0.0,0.0,0.0,0.0,0.0,0.0,0.0,0.0,0.0,0.0,0.0,0.0,0.0,0.0,0.0,0.0,0.0,0.0,0.0,0.0,0.0,0.0,0.0,0.0,0.0,0.0,0.0,0.0,0.0,0.0,0.0,0.0,0.0,0.0,-0.9286,-0.9334,-0.93,-0.9207,-0.9193,-0.9103,-0.8905,-0.8885,-0.8885,-0.8885,-0.8885,-0.8885,-0.8885,-0.8885,-0.8885,-0.8885,-0.8885,-0.8885,-0.8885,-0.8885,-0.883,-0.8602,-0.8546,-0.7875,-0.6422,-0.6144,-0.4745,-0.218,-0.1956,-0.1219,0.0,0.0,0.0,0.0,0.0,0.0,0.0,0.0,0.0,0.0,0.0,0.0,0.0,0.0,0.0,0.0,0.0,0.0,0.0,0.0,0.0,0.0,0.0,0.0,0.0,0.0,0.0,0.0,0.0,0.0,0.0,0.0,0.0,0.0,0.0,0.0,0.0,0.0,0.0,0.0,0.0,0.0,0.0,0.0,0.0,0.0,0.0,0.0,0.0,0.0,0.0,0.0,0.0,0.0,0.0,0.0,0.0,0.0,0.0,0.0,0.0,0.0,0.0,0.0,0.0,0.0,0.0,0.0,0.0,0.0,0.0,0.0,0.0,0.0,0.0,0.0,0.0,0.0,0.0,0.0,0.0,0.0,0.0,0.0,0.0,0.0,-0.8946,-0.9103,-0.92,-0.8994,-0.9076,-0.9103,-0.8905,-0.8885,-0.8885,-0.8885,-0.8885,-0.8885,-0.8885,-0.8885,-0.8885,-0.8885,-0.8885,-0.8885,-0.8885,-0.8885,-0.8325,-0.7093,-0.7038,-0.6366,-0.486,-0.3575,-0.2682,-0.218,-0.0952,-0.0221,0.0,0.0,0.0,0.0,0.0,0.0,0.0,0.0,0.0,0.0,0.0,0.0,0.0,0.0,0.0,0.0,0.0,0.0,0.0,0.0,0.0,0.0,0.0,0.0,0.0,0.0,0.0,0.0,0.0,0.0,0.0,0.0,0.0,0.0,0.0,0.0,0.0,0.0,0.0,0.0,0.0,0.0,0.0,0.0,0.0,0.0,0.0,0.0,0.0,0.0,0.0,0.0,0.0,0.0,0.0,0.0,0.0,0.0,0.0,0.0,0.0,0.0,0.0,0.0,0.0,0.0,0.0,0.0,0.0,0.0,0.0,0.0,0.0,0.0,0.0,0.0,0.0,0.0,0.0,0.0,0.0,0.0,0.0,0.0,0.0,0.0,-0.8885,-0.8994,-0.9015,-0.8892,-0.8994,-0.9015,-0.8892,-0.8885,-0.8885,-0.8885,-0.8885,-0.8885,-0.8885,-0.8885,-0.8602,-0.7765,-0.7709,-0.7371,-0.6589,-0.726,-0.7038,-0.5584,-0.5528,-0.4786,-0.3311,-0.1767,-0.099,-0.1035,-0.0328,0.0,0.0,0.0,0.0,0.0,0.0,0.0,0.0,0.0,0.0,0.0,0.0,0.0,0.0,0.0,0.0,0.0,0.0,0.0,0.0,0.0,0.0,0.0,0.0,0.0,0.0,0.0,0.0,0.0,0.0,0.0,0.0,0.0,0.0,0.0,0.0,0.0,0.0,0.0,0.0,0.0,0.0,0.0,0.0,0.0,0.0,0.0,0.0,0.0,0.0,0.0,0.0,0.0,0.0,0.0,0.0,0.0,0.0,0.0,0.0,0.0,0.0,0.0,0.0,0.0,0.0,0.0,0.0,0.0,0.0,0.0,0.0,0.0,0.0,0.0,0.0,0.0,0.0,0.0,0.0,0.0,0.0,0.0,0.0,0.0,0.0,0.0,-0.8892,-0.8967,-0.8981,-0.8892,-0.8885,-0.8885,-0.8885,-0.8885,-0.8885,-0.8885,-0.8885,-0.8885,-0.8885,-0.8602,-0.7931,-0.6811,-0.6366,-0.5528,-0.408,-0.5027,-0.5139,-0.4024,-0.3634,-0.2886,-0.1693,-0.0602,0.0,0.0,0.0,0.0,0.0,0.0,0.0,0.0,0.0,0.0,0.0,0.0,0.0,0.0,0.0,0.0,0.0,0.0,0.0,0.0,0.0,0.0,0.0,0.0,0.0,0.0,0.0,0.0,0.0,0.0,0.0,0.0,0.0,0.0,0.0,0.0,0.0,0.0,0.0,0.0,0.0,0.0,0.0,0.0,0.0,0.0,0.0,0.0,0.0,0.0,0.0,0.0,0.0,0.0,0.0,0.0,0.0,0.0,0.0,0.0,0.0,0.0,0.0,0.0,0.0,0.0,0.0,0.0,0.0,0.0,0.0,0.0,0.0,0.0,0.0,0.0,0.0,0.0,0.0,0.0,0.0,0.0,0.0,0.0,0.0,0.0,0.0,0.0,0.0271,0.0615,-0.8912,-0.9049,-0.9096,-0.8905,-0.8885,-0.8885,-0.8885,-0.8885,-0.8885,-0.8885,-0.8885,-0.8885,-0.8885,-0.7709,-0.6811,-0.67,-0.5472,-0.4024,-0.2459,-0.2459,-0.2459,-0.2347,-0.1064,-0.0278,-0.0164,-0.0055,0.0,0.0,0.0,0.0,0.0,0.0,0.0,0.0,0.0,0.0,0.0,0.0,0.0,0.0,0.0,0.0,0.0,0.0,0.0,0.0,0.0,0.0,0.0,0.0,0.0,0.0,0.0,0.0,0.0,0.0,0.0,0.0,0.0,0.0,0.0,0.0,0.0,0.0,0.0,0.0,0.0,0.0,0.0,0.0,0.0,0.0,0.0,0.0,0.0,0.0,0.0,0.0,0.0,0.0,0.0,0.0,0.0,0.0,0.0,0.0,0.0,0.0,0.0,0.0,0.0,0.0,0.0,0.0,0.0,0.0,0.0,0.0,0.0,0.0,0.0,0.0,0.0,0.0,0.0,0.0,0.0,0.0,0.0,0.0,0.0,0.0,0.0,0.0,0.1076,0.2493,-0.8892,-0.8981,-0.9001,-0.8892,-0.8885,-0.8885,-0.8885,-0.8885,-0.8546,-0.7648,-0.7537,-0.7204,-0.6255,-0.5695,-0.4972,-0.4021,-0.3408,-0.2459,-0.0952,-0.084,-0.084,-0.084,-0.028,0.0,0.0,0.0,0.0,0.0,0.0,0.0,0.0,0.0,0.0,0.0,0.0,0.0,0.0,0.0,0.0,0.0,0.0,0.0,0.0,0.0,0.0,0.0,0.0,0.0,0.0,0.0,0.0,0.0,0.0,0.0,0.0,0.0,0.0,0.0,0.0,0.0,0.0,0.0,0.0,0.0,0.0,0.0,0.0,0.0,0.0,0.0,0.0,0.0,0.0,0.0,0.0,0.0,0.0,0.0,0.0,0.0,0.0,0.0,0.0,0.0,0.0,0.0,0.0,0.0,0.0,0.0,0.0,0.0,0.0,0.0,0.0,0.0,0.0,0.0,0.0,0.0,0.0,0.0,0.0,0.0,0.0,0.0,0.0,0.0,0.0,0.0,0.0,0.0,0.0,0.0,0.1149,0.2723,-0.8892,-0.8974,-0.8994,-0.8892,-0.8885,-0.8768,-0.8269,-0.8208,-0.7709,-0.62,-0.6033,-0.5644,-0.4582,-0.408,-0.3352,-0.2291,-0.179,-0.1064,-0.0056,0.0,0.0,0.0,0.0,0.0,0.0,0.0,0.0,0.0,0.0,0.0,0.0,0.0,0.0,0.0,0.0,0.0,0.0,0.0,0.0,0.0,0.0,0.0,0.0,0.0,0.0,0.0,0.0,0.0,0.0,0.0,0.0,0.0,0.0,0.0,0.0,0.0,0.0,0.0,0.0,0.0,0.0,0.0,0.0,0.0,0.0,0.0,0.0,0.0,0.0,0.0,0.0,0.0,0.0,0.0,0.0,0.0,0.0,0.0,0.0,0.0,0.0,0.0,0.0,0.0,0.0,0.0,0.0,0.0,0.0,0.0,0.0,0.0,0.0,0.0,0.0,0.0,0.0,0.0,0.0,0.0,0.0,0.0,0.0,0.0,0.0,0.0,0.0,0.0,0.0,0.0,0.0,0.0,0.0,0.0,0.1565,0.3629,-0.8912,-0.9055,-0.9103,-0.8905,-0.8885,-0.838,-0.6922,-0.67,-0.6144,-0.4693,-0.447,-0.447,-0.447,-0.3073,-0.218,-0.218,-0.084,0.0,0.0,0.0,0.0,0.0,0.0,0.0,0.0,0.0,0.0,0.0,0.0,0.0,0.0,0.0,0.0,0.0,0.0,0.0,0.0,0.0,0.0,0.0,0.0,0.0,0.0,0.0,0.0,0.0,0.0,0.0,0.0,0.0,0.0,0.0,0.0,0.0,0.0,0.0,0.0,0.0,0.0,0.0,0.0,0.0,0.0,0.0,0.0,0.0,0.0,0.0,0.0,0.0,0.0,0.0,0.0,0.0,0.0,0.0,0.0,0.0,0.0,0.0,0.0,0.0,0.0,0.0,0.0,0.0,0.0,0.0,0.0,0.0,0.0,0.0,0.0,0.0,0.0,0.0,0.0,0.0,0.0,0.0,0.0,0.0,0.0,0.0,0.0,0.0,0.0,0.0,0.0,0.0,0.0,0.0,0.0,0.0,0.2398,0.5604,-0.8892,-0.8128,-0.741,-0.7376,-0.6478,-0.5639,-0.525,-0.5139,-0.4637,-0.3073,-0.2905,-0.2517,-0.1456,-0.0952,-0.0672,-0.0672,-0.028,0.0,0.0,0.0,0.0,0.0,0.0,0.0,0.0,0.0,0.0,0.0,0.0,0.0,0.0,0.0,0.0,0.0,0.0,0.0,0.0,0.0,0.0,0.0,0.0,0.0,0.0,0.0,0.0,0.0,0.0,0.0,0.0,0.0,0.0,0.0,0.0,0.0,0.0,0.0,0.0,0.0,0.0,0.0,0.0,0.0,0.0,0.0,0.0,0.0,0.0,0.0,0.0,0.0,0.0,0.0,0.0,0.0,0.0,0.0,0.0,0.0,0.0,0.0,0.0,0.0,0.0,0.0,0.0,0.0,0.0,0.0,0.0,0.0,0.0,0.0,0.0,0.0,0.0,0.0,0.0,0.0,0.0,0.0,0.0,0.0,0.0,0.0,0.0,0.0,0.0,0.0,0.0,0.0,0.0,0.0807,0.1885,0.1979,0.4286,0.7282,-0.8042,-0.6871,-0.5819,-0.5855,-0.5106,-0.4313,-0.3664,-0.3591,-0.3073,-0.151,-0.1343,-0.1008,-0.0112,0.0,0.0,0.0,0.0,0.0,0.0,0.0,0.0,0.0,0.0,0.0,0.0,0.0,0.0,0.0,0.0,0.0,0.0,0.0,0.0,0.0,0.0,0.0,0.0,0.0,0.0,0.0,0.0,0.0,0.0,0.0,0.0,0.0,0.0,0.0,0.0,0.0,0.0,0.0,0.0,0.0,0.0,0.0,0.0,0.0,0.0,0.0,0.0,0.0,0.0,0.0,0.0,0.0,0.0,0.0,0.0,0.0,0.0,0.0,0.0,0.0,0.0,0.0,0.0,0.0,0.0,0.0,0.0,0.0,0.0,0.0,0.0,0.0,0.0,0.0,0.0,0.0,0.0,0.0,0.0,0.0,0.0,0.0,0.0,0.0,0.0,0.0,0.0,0.0,0.0,0.0,0.0,0.0,0.0,0.0,0.0,0.0067,0.0807,0.1747,0.2825,0.3614,0.5715,0.8107,-0.6548,-0.5326,-0.4283,-0.4281,-0.4183,-0.3602,-0.2229,-0.198,-0.1514,-0.0168,0.0,0.0,0.0,0.0,0.0,0.0,0.0,0.0,0.0,0.0,0.0,0.0,0.0,0.0,0.0,0.0,0.0,0.0,0.0,0.0,0.0,0.0,0.0,0.0,0.0,0.0,0.0,0.0,0.0,0.0,0.0,0.0,0.0,0.0,0.0,0.0,0.0,0.0,0.0,0.0,0.0,0.0,0.0,0.0,0.0,0.0,0.0,0.0,0.0,0.0,0.0,0.0,0.0,0.0,0.0,0.0,0.0,0.0,0.0,0.0,0.0,0.0,0.0,0.0,0.0,0.0,0.0,0.0,0.0,0.0,0.0,0.0,0.0,0.0,0.0,0.0,0.0,0.0,0.0,0.0,0.0,0.0,0.0,0.0,0.0,0.0,0.0,0.0,0.0,0.0,0.0,0.0,0.0,0.0,0.0,0.0067,0.0269,0.0269,0.0336,0.0672,0.2283,0.3021,0.336,0.504,0.6902,0.846,-0.5176,-0.3739,-0.2722,-0.2696,-0.1715,-0.0858,-0.0517,-0.0458,-0.0343,-0.0057,0.0,0.0,0.0,0.0,0.0,0.0,0.0,0.0,0.0,0.0,0.0,0.0,0.0,0.0,0.0,0.0,0.0,0.0,0.0,0.0,0.0,0.0,0.0,0.0,0.0,0.0,0.0,0.0,0.0,0.0,0.0,0.0,0.0,0.0,0.0,0.0,0.0,0.0,0.0,0.0,0.0,0.0,0.0,0.0,0.0,0.0,0.0,0.0,0.0,0.0,0.0,0.0,0.0,0.0,0.0,0.0,0.0,0.0,0.0,0.0,0.0,0.0,0.0,0.0,0.0,0.0,0.0,0.0,0.0,0.0,0.0,0.0,0.0,0.0,0.0,0.0,0.0,0.0,0.0,0.0,0.0,0.0,0.0,0.0,0.0,0.0,0.0,0.0,0.0,0.0,0.0,0.0,0.0,0.0,0.0,0.0807,0.2081,0.2081,0.2954,0.4292,0.4693,0.5629,0.6907,0.7481,0.876,1.0159,-0.3562,-0.2167,-0.1149,-0.1148,-0.0513,0.0,0.0,0.0,0.0,0.0,0.0,0.0,0.0,0.0,0.0,0.0,0.0,0.0,0.0,0.0,0.0,0.0,0.0,0.0,0.0,0.0,0.0,0.0,0.0,0.0,0.0,0.0,0.0,0.0,0.0,0.0,0.0,0.0,0.0,0.0,0.0,0.0,0.0,0.0,0.0,0.0,0.0,0.0,0.0,0.0,0.0,0.0,0.0,0.0,0.0,0.0,0.0,0.0,0.0,0.0,0.0,0.0,0.0,0.0,0.0,0.0,0.0,0.0,0.0,0.0,0.0,0.0,0.0,0.0,0.0,0.0,0.0,0.0,0.0,0.0,0.0,0.0,0.0,0.0,0.0,0.0,0.0,0.0,0.0,0.0,0.0,0.0,0.0,0.0,0.0,0.0,0.0,0.0,0.0,0.0,0.0,0.0,0.0481,0.1303,0.1285,0.2283,0.3957,0.3957,0.4559,0.5496,0.6297,0.7231,0.8107,0.9113,0.9977,1.0717,-0.1853,-0.0846,0.0,0.0,0.0,0.0,0.0,0.0,0.0,0.0,0.0,0.0,0.0,0.0,0.0,0.0,0.0,0.0,0.0,0.0,0.0,0.0,0.0,0.0,0.0,0.0,0.0,0.0,0.0,0.0,0.0,0.0,0.0,0.0,0.0,0.0,0.0,0.0,0.0,0.0,0.0,0.0,0.0,0.0,0.0,0.0,0.0,0.0,0.0,0.0,0.0,0.0,0.0,0.0,0.0,0.0,0.0,0.0,0.0,0.0,0.0,0.0,0.0,0.0,0.0,0.0,0.0,0.0,0.0,0.0,0.0,0.0,0.0,0.0,0.0,0.0,0.0,0.0,0.0,0.0,0.0,0.0,0.0,0.0,0.0,0.0,0.0,0.0,0.0,0.0,0.0,0.0,0.0,0.0,0.0,0.0,0.0,0.0,0.0,0.0,0.0,0.0,0.0963,0.2671,0.2709,0.39,0.583,0.5912,0.6046,0.6431,0.7897,0.8435,0.8634,1.018,1.0717,1.0717,-0.0572,-0.0116,0.0,0.0,0.0,0.0,0.0,0.0,0.0,0.0,0.0,0.0,0.0,0.0,0.0,0.0,0.0,0.0,0.0,0.0,0.0,0.0,0.0,0.0,0.0,0.0,0.0,0.0,0.0,0.0,0.0,0.0,0.0,0.0,0.0,0.0,0.0,0.0,0.0,0.0,0.0,0.0,0.0,0.0,0.0,0.0,0.0,0.0,0.0,0.0,0.0,0.0,0.0,0.0,0.0,0.0,0.0,0.0,0.0,0.0,0.0,0.0,0.0,0.0,0.0,0.0,0.0,0.0,0.0,0.0,0.0,0.0,0.0,0.0,0.0,0.0,0.0,0.0,0.0,0.0,0.0,0.0,0.0,0.0,0.0,0.0,0.0,0.0,0.0,0.0,0.0,0.0,0.0,0.0,0.0,0.0,0.0,0.0,0.0,0.0,0.0,0.0,0.0972,0.2673,0.2805,0.4676,0.7636,0.7868,0.8733,0.9981,1.0246,1.0319,1.0379,1.0585,1.0717,1.0717,-0.0113,0.0,0.0,0.0,0.0,0.0,0.0,0.0,0.0,0.0,0.0,0.0,0.0,0.0,0.0,0.0,0.0,0.0,0.0,0.0,0.0,0.0,0.0,0.0,0.0,0.0,0.0,0.0,0.0,0.0,0.0,0.0,0.0,0.0,0.0,0.0,0.0,0.0,0.0,0.0,0.0,0.0,0.0,0.0,0.0,0.0,0.0,0.0,0.0,0.0,0.0,0.0,0.0,0.0,0.0,0.0,0.0,0.0,0.0,0.0,0.0,0.0,0.0,0.0,0.0,0.0,0.0,0.0,0.0,0.0,0.0,0.0,0.0,0.0,0.0,0.0,0.0,0.0,0.0,0.0,0.0,0.0,0.0,0.0,0.0,0.0,0.0,0.0,0.0,0.0,0.0,0.0,0.0,0.0,0.0,0.0,0.0,0.0,0.0,0.0,0.0,0.0,0.1518,0.4245,0.4278,0.6266,0.951,0.957,1.0038,1.0717,1.0717,1.0717,1.0717,1.0717,1.0717,1.0717]},{"header":{"parameterUnit":"m.s-1","parameterCategory":1,"la1":30.6,"la2":28.766,"lo1":-90.7593,"lo2":-88.6598,"dy":0.0162,"dx":0.0183,"nx":116,"ny":114,"refTime":"2023-10-02T12:00:00:Z","depth":0,"parameterNumber":3,"parameterNumberName":"V-component_of_WINDS"},"data":[0.0,0.0,0.0,0.0,0.0,0.0,0.0,0.0,0.0,0.0,0.0,0.0,0.0,0.0,0.0,0.0,0.0,0.0,0.0,0.0,0.0,0.0,0.0,0.0,0.0,0.0,0.0,0.0,0.0,0.0,0.0,0.0,0.0,0.0,0.0,0.0,0.0,0.0,0.0,0.0,0.0,0.0,0.0,0.0,0.0,0.0,0.0,0.0,0.0,0.0,0.0,0.0,0.0,0.0,0.0,0.0,0.0,0.0,0.0,0.0,0.0,0.0,0.0,0.0,0.0,0.0,0.0,0.0,0.0,0.0,0.0,0.0,0.0,0.0,0.0,0.0,0.0,0.0,0.0,0.0,0.0,0.0,0.0,0.0,0.0,0.0,0.0,0.0,0.0,0.0,0.0,0.0,0.0,0.0,0.0,0.0,0.0,0.0,0.0,0.0,0.0,0.0,0.0,0.0,0.0,0.0,0.0,0.0,0.0,0.0,0.0,0.0,0.0,0.0,0.0,0.0,0.0,0.0,0.0,0.0,0.0,0.0,0.0,0.0,0.0,0.0,0.0,0.0,0.0,0.0,0.0,0.0,0.0,0.0,0.0,0.0,0.0,0.0,0.0,0.0,0.0,0.0,0.0,0.0,0.0,0.0,0.0,0.0,0.0,0.0,0.0,0.0,0.0,0.0,0.0,0.0,0.0,0.0,0.0,0.0,0.0,0.0,0.0,0.0,0.0,0.0,0.0,0.0,0.0,0.0,0.0,0.0,0.0,0.0,0.0,0.0,0.0,0.0,0.0,0.0,0.0,0.0,0.0,0.0,0.0,0.0,0.0,0.0,0.0,0.0,0.0,0.0,0.0,0.0,0.0,0.0,0.0,0.0,0.0,0.0,0.0,0.0,0.0,0.0,0.0,0.0,0.0,0.0,0.0,0.0,0.0,0.0,0.0,0.0,0.0,0.0,0.0,0.0,0.0,0.0,0.0,0.0,0.0,0.0,0.0,0.0,0.0,0.0,0.0,0.0,0.0,0.0,0.0,0.0,0.0,0.0,0.0,0.0,0.0,0.0,0.0,0.0,0.0,0.0,0.0,0.0,0.0,0.0,0.0,0.0,0.0,0.0,0.0,0.0,0.0,0.0,0.0,0.0,0.0,0.0,0.0,0.0,0.0,0.0,0.0,0.0,0.0,0.0,0.0,0.0,0.0,0.0,0.0,0.0,0.0,0.0,0.0,0.0,0.0,0.0,0.0,0.0,0.0,0.0,0.0,0.0,0.0,0.0,0.0,0.0,0.0,0.0,0.0,0.0,0.0,0.0,0.0,0.0,0.0,0.0,0.0,0.0,0.0,0.0,0.0,0.0,0.0,0.0,0.0,0.0,0.0,0.0,0.0,0.0,0.0,0.0,0.0,0.0,0.0,0.0,0.0,0.0,0.0,0.0,0.0,0.0,0.0,0.0,0.0,0.0,0.0,0.0,0.0,0.0,0.0,0.0,0.0,0.0,0.0,0.0,0.0,0.0,0.0,0.0,0.0,0.0,0.0,0.0,0.0,0.0,0.0,0.0,0.0,0.0,0.0,0.0,0.0,0.0,0.0,0.0,0.0,0.0,0.0,0.0,0.0,0.0,0.0,0.0,0.0,0.0,0.0,0.0,0.0,0.0,0.0,0.0,0.0,0.0,0.0,0.0,0.0,0.0,0.0,0.0,0.0,0.0,0.0,0.0,0.0,0.0,0.0,0.0,0.0,0.0,0.0,0.0,0.0,0.0,0.0,0.0,0.0,0.0,0.0,0.0,0.0,0.0,0.0,0.0,0.0,0.0,0.0,0.0,0.0,0.0,0.0,0.0,0.0,0.0,0.0,0.0,0.0,0.0,0.0,0.0,0.0,0.0,0.0,0.0,0.0,0.0,0.0,0.0,0.0,0.0,0.0,0.0,0.0,0.0,0.0,0.0,0.0,0.0,0.0,0.0,0.0,0.0,0.0,0.0,0.0,0.0,0.0,0.0,0.0,0.0,0.0,0.0,0.0,0.0,0.0,0.0,0.0,0.0,0.0,0.0,0.0,0.0,0.0,0.0,0.0,0.0,0.0,0.0,0.0,0.0,0.0,0.0,0.0,0.0,0.0,0.0,0.0,0.0,0.0,0.0,0.0,0.0,0.0,0.0,0.0,0.0,0.0,0.0,0.0,0.0,0.0,0.0,0.0,0.0,0.0,0.0,0.0,0.0,0.0,0.0,0.0,0.0,0.0,0.0,0.0,0.0,0.0,0.0,0.0,0.0,0.0,0.0,0.0,0.0,0.0,0.0,0.0,0.0,0.0,0.0,0.0,0.0,0.0,0.0,0.0,0.0,0.0,0.0,0.0,0.0,0.0,0.0,0.0,0.0,0.0,0.0,0.0,0.0,0.0,0.0,0.0,0.0,0.0,0.0,0.0,0.0,0.0,0.0,0.0,0.0,0.0,0.0,0.0,0.0,0.0,0.0,0.0,0.0,0.0,0.0,0.0,0.0,0.0,0.0,0.0,0.0,0.0,0.0,0.0,0.0,0.0,0.0,0.0,0.0,0.0,0.0,0.0,0.0,0.0,0.0,0.0,0.0,0.0,0.0,0.0,0.0,0.0,0.0,0.0,0.0,0.0,0.0,0.0,0.0,0.0,0.0,0.0,0.0,0.0,0.0,0.0,0.0,0.0,0.0,0.0,0.0,0.0,0.0,0.0,0.0,0.0,0.0,0.0,0.0,0.0,0.0,0.0,0.0,0.0,0.0,0.0,0.0,0.0,0.0,0.0,0.0,0.0,0.0,0.0,0.0,0.0,0.0,0.0,0.0,0.0,0.0,0.0,0.0,0.0,0.0,0.0,0.0,0.0,0.0,0.0,0.0,0.0,0.0,0.0,0.0,0.0,0.0,0.0,0.0,0.0,0.0,0.0,0.0,0.0,0.0,0.0,0.0,0.0,0.0,0.0,0.0,0.0,0.0,0.0,0.0,0.0,0.0,0.0,0.0,0.0,0.0,0.0,0.0,0.0,0.0,0.0,0.0,0.0,0.0,0.0,0.0,0.0,0.0,0.0,0.0,0.0,0.0,0.0,0.0,0.0,0.0,0.0,0.0,0.0,0.0,0.0,0.0,0.0,0.0,0.0,0.0,0.0,0.0,0.0,0.0,0.0,0.0,0.0,0.0,0.0,0.0,0.0,0.0,0.0,0.0,0.0,0.0,0.0,0.0,0.0,0.0,0.0,0.0,0.0,0.0,0.0,0.0,0.0,0.0,0.0,0.0,0.0,0.0,0.0,0.0,0.0,0.0,0.0,0.0,0.0,0.0,0.0,0.0,0.0,0.0,0.0,0.0,0.0,0.0,0.0,0.0,0.0,0.0,0.0,0.0,0.0,0.0,0.0,0.0,0.0,0.0,0.0,0.0,0.0,0.0,0.0,0.0,0.0,0.0,0.0,0.0,0.0,0.0,0.0,0.0,0.0,0.0,0.0,0.0,0.0,0.0,0.0,0.0,0.0,0.0,0.0,0.0,0.0,0.0,0.0,0.0,0.0,0.0,0.0,0.0,0.0,0.0,0.0,0.0,0.0,0.0,0.0,0.0,0.0,0.0,0.0,0.0,0.0,0.0,0.0,0.0,0.0,0.0,0.0,0.0,0.0,0.0,0.0,0.0,0.0,0.0,0.0,0.0,0.0,0.0,0.0,0.0,0.0,0.0,0.0,0.0,0.0,0.0,0.0,0.0,0.0,0.0,0.0,0.0,0.0,0.0,0.0,0.0,0.0,0.0,0.0,0.0,0.0,0.0,0.0,0.0,0.0,0.0,0.0,0.0,0.0,0.0,0.0,0.0,0.0,0.0,0.0,0.0,0.0,0.0,0.0,0.0,0.0,0.0,0.0,0.0,0.0,0.0,0.0,0.0,0.0,0.0,0.0,0.0,0.0,0.0,0.0,0.0,0.0,0.0,0.0,0.0,0.0,0.0,0.0,0.0,0.0,0.0,0.0,0.0,0.0,0.0,0.0,0.0,0.0,0.0,0.0,0.0,0.0,0.0,0.0,0.0,0.0,0.0,0.0,0.0,0.0,0.0,0.0,0.0,0.0,0.0,0.0,0.0,0.0,0.0,0.0,0.0,0.0,0.0,0.0,0.0,0.0,0.0,0.0,0.0,0.0,0.0,0.0,0.0,0.0,0.0,0.0,0.0,0.0,0.0,0.0,0.0,0.0,0.0,0.0,0.0,0.0,0.0,0.0,0.0,0.0,0.0,0.0,0.0,0.0,0.0,0.0,0.0,0.0,0.0,0.0,0.0,0.0,0.0,0.0,0.0,0.0,0.0,0.0,0.0,0.0,0.0,0.0,0.0,0.0,0.0,0.0,0.0,0.0,0.0,0.0,0.0,0.0,0.0,0.0,0.0,0.0,0.0,0.0,0.0,0.0,0.0,0.0,0.0,0.0,0.0,0.0,0.0,0.0,0.0,0.0,0.0,0.0,0.0,0.0,0.0,0.0,0.0,0.0,0.0,0.0,0.0,0.0,0.0,0.0,0.0,0.0,0.0,0.0,0.0,0.0,0.0,0.0,0.0,0.0,0.0,0.0,0.0,0.0,0.0,0.0,0.0,0.0,0.0,0.0,0.0,0.0,0.0,0.0,0.0,0.0,0.0,0.0,0.0,0.0,0.0,0.0,0.0,0.0,0.0,0.0,0.0,0.0,0.0,0.0,0.0,0.0,0.0,0.0,0.0,0.0,0.0,0.0,0.0,0.0,0.0,0.0,0.0,0.0,0.0,0.0,0.0,0.0,0.0,0.0,0.0,0.0,0.0,0.0,0.0,0.0,0.0,0.0,0.0,0.0,0.0,0.0,0.0,0.0,0.0,0.0,0.0,0.0,0.0,0.0,0.0,0.0,0.0,0.0,0.0,0.0,0.0,0.0,0.0,0.0,0.0,0.0,0.0,0.0,0.0,0.0,0.0,0.0,0.0,0.0,0.0,0.0,0.0,0.0,0.0,0.0,0.0,0.0,0.0,0.0,0.0,0.0,0.0,0.0,0.0,0.0,0.0,0.0,0.0,0.0,0.0,0.0,0.0,0.0,0.0,0.0,0.0,0.0,0.0,0.0,0.0,0.0,0.0,0.0,0.0,0.0,0.0,0.0,0.0,0.0,0.0,0.0,0.0,0.0,0.0,0.0,0.0,0.0,0.0,0.0,0.0,0.0,0.0,0.0,0.0,0.0,0.0,0.0,0.0,0.0,0.0,0.0,0.0,0.0,0.0,0.0,0.0,0.0,0.0,0.0,0.0,0.0,0.0,0.0,0.0,0.0,0.0,0.0,0.0,0.0,0.0,0.0,0.0,0.0,0.0,0.0,0.0,0.0,0.0,0.0,0.0,0.0,0.0,0.0,0.0,0.0,0.0,0.0,0.0,0.0,0.0,0.0,0.0,0.0,0.0,0.0,0.0,0.0,0.0,0.0,0.0,0.0,0.0,0.0,0.0,0.0,0.0,0.0,0.0,0.0,0.0,0.0,0.0,0.0,0.0,0.0,0.0,0.0,0.0,0.0,0.0,0.0,0.0,0.0,0.0,0.0,0.0,0.0,0.0,0.0,0.0,0.0,0.0,0.0,0.0,0.0,0.0,0.0,0.0,0.0,0.0,0.0,0.0,0.0,0.0,0.0,0.0,0.0,0.0,0.0,0.0,0.0,0.0,0.0,0.0,0.0,0.0,0.0,0.0,0.0,0.0,0.0,0.0,0.0,0.0,0.0,0.0,0.0,0.0,0.0,0.0,0.0,0.0,0.0,0.0,0.0,0.0,0.0,0.0,0.0,0.0,0.0,0.0,0.0,0.0,0.0,0.0,0.0,0.0,0.0,0.0,0.0,0.0,0.0,0.0,0.0,0.0,0.0,0.0,0.0,0.0,0.0,0.0,0.0,0.0,0.0,0.0,0.0,0.0,0.0,0.0,0.0,0.0,0.0,0.0,0.0,0.0,0.0,0.0,0.0,0.0,0.0,0.0,0.0,0.0,0.0,0.0,0.0,0.0,0.0,0.0,0.0,0.0,0.0,0.0,0.0,0.0,0.0,0.0,0.0,0.0,0.0,0.0,0.0,0.0,4.4567,0.0,0.0,0.0,0.0,0.0,0.0,0.0,0.0,0.0,0.0,0.0,0.0,0.0,0.0,0.0,0.0,0.0,0.0,0.0,0.0,0.0,0.0,0.0,0.0,0.0,0.0,0.0,0.0,0.0,0.0,0.0,0.0,0.0,0.0,0.0,0.0,0.0,0.0,4.2526,4.2879,4.3071,4.3038,4.2134,4.1098,4.0025,0.0,0.0,0.0,0.0,0.0,0.0,0.0,0.0,0.0,0.0,0.0,0.0,0.0,0.0,0.0,0.0,0.0,0.0,0.0,0.0,0.0,0.0,0.0,0.0,0.0,0.0,0.0,0.0,0.0,0.0,0.0,0.0,0.0,0.0,0.0,0.0,0.0,0.0,0.0,0.0,0.0,0.0,0.0,0.0,0.0,0.0,0.0,0.0,0.0,0.0,0.0,0.0,0.0,0.0,0.0,0.0,0.0,0.0,0.0,0.0,0.0,0.0,0.0,0.0,0.0,0.0,0.0,0.0,0.0,0.0,0.0,4.6261,0.0,0.0,0.0,0.0,0.0,0.0,0.0,0.0,0.0,0.0,0.0,0.0,0.0,0.0,0.0,0.0,0.0,0.0,0.0,0.0,0.0,0.0,0.0,4.3538,4.4445,4.4581,4.4615,4.4298,0.0,0.0,0.0,0.0,0.0,0.0,4.2458,4.3169,4.3492,4.3362,4.4237,4.4723,4.4853,4.4982,4.3905,4.1888,4.15,0.0,0.0,0.0,0.0,0.0,0.0,0.0,0.0,0.0,0.0,0.0,0.0,0.0,0.0,0.0,0.0,0.0,0.0,0.0,0.0,0.0,0.0,0.0,0.0,0.0,0.0,0.0,0.0,0.0,0.0,0.0,0.0,0.0,0.0,0.0,0.0,0.0,0.0,0.0,0.0,0.0,0.0,0.0,0.0,0.0,0.0,0.0,0.0,0.0,0.0,0.0,0.0,0.0,0.0,0.0,0.0,0.0,0.0,0.0,0.0,0.0,0.0,0.0,5.1662,5.197,5.1549,5.2212,5.217,5.154,5.0356,4.9448,4.8695,0.0,0.0,0.0,0.0,0.0,0.0,0.0,0.0,0.0,0.0,0.0,0.0,0.0,0.0,0.0,0.0,0.0,0.0,0.0,0.0,4.2181,4.2298,4.3064,4.3842,4.4547,4.4615,4.4559,4.444,0.0,0.0,0.0,0.0,4.427,4.427,4.4976,4.5043,4.4404,4.5782,4.6791,4.7429,4.8068,4.7793,4.6684,4.4652,4.4092,4.4637,0.0,0.0,0.0,0.0,0.0,0.0,0.0,0.0,0.0,0.0,0.0,0.0,0.0,0.0,0.0,0.0,0.0,0.0,0.0,0.0,0.0,0.0,0.0,0.0,0.0,0.0,0.0,0.0,0.0,0.0,0.0,0.0,0.0,0.0,0.0,0.0,0.0,0.0,0.0,0.0,0.0,4.6941,4.7577,0.0,0.0,0.0,0.0,0.0,0.0,0.0,0.0,0.0,0.0,0.0,0.0,0.0,5.0384,5.1282,5.2563,5.36,5.4285,5.4332,5.4691,5.5218,5.5596,5.5733,5.5661,5.5681,0.0,4.9823,4.8719,0.0,0.0,0.0,0.0,0.0,0.0,0.0,0.0,0.0,0.0,0.0,0.0,0.0,0.0,0.0,0.0,0.0,0.0,0.0,0.0,0.0,4.549,4.663,4.6978,4.7867,4.7819,4.6529,4.6433,0.0,0.0,4.4615,4.4818,4.5196,4.594,4.6752,4.7665,4.8342,4.9018,4.9731,5.0101,5.0012,4.9622,4.8596,4.7342,4.5995,4.517,0.0,0.0,0.0,0.0,0.0,0.0,0.0,0.0,0.0,0.0,0.0,0.0,0.0,0.0,0.0,0.0,0.0,0.0,0.0,0.0,0.0,0.0,0.0,0.0,0.0,0.0,0.0,0.0,0.0,0.0,0.0,0.0,0.0,0.0,0.0,0.0,0.0,0.0,0.0,4.7079,4.8421,4.7977,4.7882,4.7268,0.0,0.0,0.0,0.0,0.0,0.0,0.0,0.0,0.0,5.3346,5.3743,5.4536,5.5795,5.7288,5.7758,5.7276,5.8488,5.882,5.8302,5.8879,5.8927,5.8488,5.86,5.7301,5.4915,5.2349,5.0236,4.8465,0.0,0.0,0.0,0.0,4.6518,4.6453,0.0,0.0,0.0,0.0,0.0,0.0,0.0,0.0,0.0,0.0,0.0,0.0,4.5526,4.7571,4.8979,4.9192,5.0282,5.0256,4.8583,4.8076,4.7037,4.522,4.5131,4.5369,4.5948,4.7096,4.8655,5.0647,5.0883,5.1241,5.1775,5.1979,5.1953,5.1792,5.1792,5.0387,4.7998,4.6946,4.6586,4.6572,0.0,0.0,0.0,0.0,0.0,0.0,0.0,0.0,0.0,0.0,0.0,0.0,0.0,0.0,0.0,0.0,0.0,0.0,0.0,0.0,0.0,0.0,0.0,0.0,0.0,0.0,0.0,0.0,0.0,0.0,0.0,0.0,0.0,0.0,0.0,0.0,0.0,4.9436,5.0514,4.8995,4.9826,4.971,0.0,0.0,0.0,0.0,0.0,0.0,5.2047,5.2637,5.4403,5.7609,5.7914,5.8691,6.011,6.1501,6.1646,6.0714,6.2261,6.2373,6.1276,6.1675,6.1436,6.0668,6.0492,6.0106,5.9329,5.5854,5.3526,5.2068,5.0615,4.9281,4.8297,4.9555,4.966,4.9493,0.0,0.0,0.0,0.0,0.0,0.0,0.0,0.0,0.0,0.0,0.0,4.5329,4.6317,4.7926,4.9228,4.9973,5.0104,5.0115,5.0019,4.8586,4.7382,4.6621,4.6541,4.6576,4.6664,4.8799,5.0661,5.2174,5.2971,5.3359,5.3398,5.4094,5.4065,5.3382,5.3382,5.2875,5.1896,5.0479,4.9837,4.9734,4.8318,0.0,0.0,0.0,0.0,0.0,0.0,0.0,0.0,0.0,0.0,0.0,0.0,0.0,0.0,0.0,0.0,0.0,0.0,0.0,0.0,0.0,0.0,0.0,0.0,0.0,0.0,0.0,0.0,0.0,0.0,0.0,0.0,0.0,0.0,0.0,0.0,0.0,0.0,5.2335,5.4459,0.0,0.0,0.0,0.0,5.0434,5.1147,5.2935,5.6057,5.6228,5.7748,6.0984,6.1767,6.2477,6.3294,6.4038,6.4756,6.5379,6.4776,6.4464,6.4349,6.3696,6.2978,6.2279,6.154,6.1201,6.0994,5.8656,5.6694,5.5123,5.4554,5.3705,5.2897,5.3143,5.3247,5.3213,0.0,0.0,0.0,0.0,0.0,0.0,0.0,0.0,4.3922,4.504,4.5878,4.7113,4.9059,5.1165,5.2786,5.3585,5.413,5.3566,5.1575,5.0413,4.8841,4.6594,4.6474,4.6991,4.8025,5.0326,5.2024,5.2998,5.3308,5.3949,5.4899,5.4659,5.4659,5.4909,5.4909,5.4734,5.4361,5.2377,5.1251,5.0744,4.9729,4.9323,0.0,0.0,0.0,0.0,0.0,0.0,0.0,0.0,0.0,0.0,0.0,0.0,0.0,0.0,0.0,0.0,0.0,0.0,0.0,0.0,0.0,0.0,0.0,0.0,0.0,0.0,0.0,0.0,0.0,0.0,0.0,0.0,0.0,0.0,0.0,0.0,0.0,5.4702,5.7524,0.0,5.5022,5.5502,5.5784,5.5318,5.6887,5.8575,6.0192,6.0729,6.1963,6.4072,6.485,6.5121,6.4918,6.6128,6.6128,6.4993,6.5208,6.4816,6.386,6.3611,6.3097,6.2347,6.1641,6.1574,6.1873,6.0047,5.8676,5.7678,5.6995,5.6215,5.5494,5.5071,5.4634,5.4194,0.0,0.0,0.0,0.0,0.0,0.0,0.0,4.3886,4.4443,4.6059,4.6986,4.8432,5.0917,5.3003,5.4527,5.5339,5.5757,5.5015,5.2686,5.1536,4.9798,4.7237,4.7415,4.8413,5.0292,5.2337,5.3656,5.4133,5.442,5.4792,5.5275,5.5026,5.5032,5.5306,5.5554,5.5724,5.5603,5.4079,5.2994,5.2268,5.127,5.0995,5.1064,0.0,0.0,0.0,0.0,0.0,0.0,0.0,0.0,0.0,0.0,0.0,0.0,0.0,0.0,0.0,0.0,0.0,0.0,0.0,0.0,0.0,0.0,0.0,0.0,0.0,0.0,0.0,0.0,0.0,0.0,0.0,0.0,0.0,0.0,0.0,5.8084,5.663,6.0216,6.1501,5.822,5.9505,6.0317,5.9844,6.1197,6.2685,6.4174,6.4478,6.5189,6.6406,6.6914,6.6812,6.6068,6.7041,6.6677,6.4966,6.5452,6.4925,6.3503,6.3515,6.2962,6.2009,6.1501,6.1569,6.198,6.1238,6.0634,6.0052,5.8773,5.8118,5.7816,5.7119,5.6372,5.5689,0.0,0.0,0.0,0.0,0.0,0.0,4.4612,4.4612,4.5178,4.6787,4.7782,4.9268,5.1783,5.311,5.4187,5.4988,5.4646,5.4038,5.3246,5.1667,5.0159,4.8677,4.9436,5.0918,5.3207,5.4793,5.5574,5.5537,5.6345,5.5952,5.4567,5.5324,5.5291,5.4591,5.5398,5.578,5.578,5.578,5.5347,5.4587,5.2981,5.2839,5.3281,0.0,0.0,0.0,0.0,0.0,0.0,0.0,0.0,0.0,0.0,0.0,0.0,0.0,0.0,0.0,0.0,0.0,0.0,0.0,0.0,0.0,0.0,0.0,0.0,0.0,0.0,0.0,0.0,0.0,0.0,0.0,0.0,0.0,5.4055,5.748,5.9678,5.8327,6.2696,6.4316,6.0655,6.2386,6.3706,6.3706,6.3706,6.4959,6.7768,6.7261,6.7193,6.7895,6.7929,6.759,6.688,6.6914,6.6532,6.5793,6.5759,6.5017,6.3553,6.3587,6.279,6.1375,6.1341,6.1341,6.1384,6.2184,6.2507,6.2296,5.9984,5.9546,6.0031,5.9357,5.8591,5.779,0.0,0.0,0.0,0.0,0.0,0.0,4.4612,4.4612,4.5178,4.6787,4.8258,5.0107,5.262,5.4242,5.5491,5.6321,5.5148,5.3941,5.2846,5.1195,5.0009,4.9338,5.0634,5.1694,5.2331,5.4481,5.5317,5.473,5.495,5.5155,5.5291,5.551,5.5819,5.6212,5.7,5.7364,5.7364,5.7364,5.7279,5.6879,5.4794,5.4079,5.4185,0.0,0.0,0.0,0.0,0.0,0.0,0.0,0.0,0.0,0.0,0.0,0.0,0.0,0.0,0.0,0.0,0.0,0.0,0.0,0.0,0.0,0.0,0.0,0.0,0.0,0.0,0.0,0.0,0.0,0.0,0.0,0.0,5.9365,5.8765,6.1016,6.2975,6.3701,6.5972,6.6862,6.5135,6.6702,6.7792,6.7871,6.8354,6.8802,6.9038,6.8865,6.8582,6.8116,6.8685,6.8974,6.8913,6.8866,6.8459,6.7724,6.713,6.6319,6.5389,6.5373,6.4568,6.3099,6.2573,6.2295,6.2156,6.1333,6.1641,6.2525,6.1938,6.1453,6.093,5.9647,5.8303,5.7068,0.0,0.0,0.0,0.0,0.0,0.0,4.5011,4.5011,4.562,4.7246,4.8616,5.0279,5.2435,5.3704,5.4587,5.5064,5.4041,5.2908,5.1853,5.1051,5.0822,5.134,5.2099,5.2821,5.3482,5.4546,5.4876,5.4399,5.4399,5.4473,5.4583,5.495,5.5537,5.6345,5.7152,5.7666,5.7997,5.7997,5.7997,5.7877,5.6573,5.6027,5.5857,5.4486,5.4168,5.4356,5.3576,5.3637,5.385,5.2901,0.0,0.0,0.0,0.0,0.0,0.0,0.0,0.0,0.0,0.0,0.0,0.0,0.0,0.0,0.0,0.0,0.0,0.0,0.0,0.0,0.0,0.0,0.0,0.0,6.0726,6.3416,6.4426,6.4956,6.5688,6.6949,6.8381,6.892,6.8098,6.9501,7.0514,7.0552,7.0657,7.0797,7.1007,7.0412,6.9819,6.9301,6.9742,6.9707,6.9202,6.9166,6.8723,6.8004,6.7175,6.6582,6.6125,6.5769,6.4966,0.0,6.3017,6.2698,6.2592,6.1757,6.1914,0.0,0.0,0.0,0.0,0.0,5.8335,5.7738,0.0,0.0,0.0,0.0,0.0,0.0,4.5594,4.5594,4.621,4.7894,4.8856,5.0048,5.1731,5.2376,5.2654,5.2654,5.221,5.1578,5.0831,5.1157,5.2135,5.3794,5.3637,5.4186,5.5718,5.4959,5.4533,5.447,5.4396,5.3949,5.3203,5.4032,5.484,5.5633,5.6455,5.7262,5.7997,5.7997,5.7997,5.7997,5.7997,5.7997,5.7804,5.5765,5.5498,5.6075,5.5329,5.5187,5.5294,5.4982,0.0,0.0,0.0,0.0,0.0,0.0,0.0,0.0,0.0,0.0,0.0,0.0,0.0,0.0,0.0,0.0,0.0,0.0,0.0,0.0,0.0,0.0,0.0,0.0,6.4712,6.7577,6.9926,6.8925,6.8208,6.8817,7.0061,7.0594,6.9885,7.1161,7.2048,7.2155,7.1552,7.1729,7.2934,0.0,0.0,0.0,0.0,7.0184,6.8854,6.8751,6.8283,6.7487,6.6661,6.6267,6.6183,6.5578,6.4796,6.3903,6.3262,6.2875,6.2724,6.2796,6.2699,6.2362,6.0266,5.9828,6.0107,5.8673,5.8528,5.8964,0.0,0.0,0.0,0.0,0.0,0.0,4.5594,4.5594,4.621,4.7894,4.8856,5.0048,5.1731,5.2613,5.308,5.308,5.2363,5.1691,5.1218,5.1599,5.2595,5.4291,5.4907,5.57,5.6694,5.5891,5.5283,5.4947,5.4259,5.3691,5.3203,5.4032,5.484,5.5633,5.6455,5.7262,5.7997,5.7997,5.7997,5.7997,5.7997,5.7997,5.796,5.7514,5.7834,5.8432,5.7642,5.8215,5.8957,5.6818,5.6648,5.7085,5.5665,5.4166,0.0,0.0,0.0,0.0,0.0,0.0,0.0,0.0,0.0,0.0,0.0,0.0,0.0,0.0,0.0,0.0,0.0,0.0,0.0,6.3401,6.6391,6.9045,7.0844,7.1319,7.1266,7.0714,7.0868,7.0929,7.0593,7.1547,7.2456,7.3067,7.3029,7.2777,7.2454,7.2143,7.1692,7.1054,7.1032,7.0958,7.0761,7.012,6.9375,6.8586,0.0,0.0,6.6445,6.6947,6.6035,6.4101,6.4585,6.4038,6.2761,6.2808,6.242,6.1773,6.1317,6.0828,6.0281,5.931,5.865,5.8217,0.0,0.0,0.0,0.0,0.0,0.0,4.5594,4.5594,4.6047,4.7317,4.7894,4.8625,4.9846,5.0394,5.0664,5.0664,5.1048,5.1373,5.1579,5.3211,5.4539,5.5374,5.5971,5.6312,5.6366,5.5541,5.5011,5.4808,5.434,5.4068,5.387,5.428,5.5099,5.6292,5.6682,5.7538,5.8713,5.8713,5.8713,5.8713,5.8713,5.8713,5.8652,5.8186,5.8253,5.8657,5.9061,5.9722,6.0248,5.9175,5.9164,5.942,5.8335,5.6912,5.5444,0.0,0.0,0.0,0.0,0.0,0.0,0.0,0.0,0.0,0.0,0.0,0.0,0.0,0.0,5.9834,0.0,0.0,6.46,6.6281,6.8558,7.0513,7.1725,7.2275,7.2314,7.1854,7.1794,7.1786,7.1669,7.2423,7.311,7.351,7.3182,7.2964,7.3,7.2216,7.1806,7.1769,7.1396,7.1067,7.0696,6.9905,6.9282,6.8879,6.8081,6.7687,6.7687,6.7687,6.7026,6.5852,6.5485,6.4824,6.3991,6.3172,6.2585,6.2144,6.1741,6.086,5.9722,5.8914,5.8364,5.7997,0.0,0.0,0.0,0.0,0.0,0.0,0.0,4.5594,4.5893,4.6778,4.6885,4.7192,4.8009,4.8086,4.8086,4.8086,4.9702,5.1048,5.1846,5.4609,5.6255,5.6421,5.6738,5.6686,5.6231,5.5246,5.4686,5.4609,5.4609,5.4487,5.4258,5.4409,5.5352,5.6882,5.6882,5.7842,5.9389,5.9389,5.9389,5.9389,5.9389,5.9389,5.9302,5.8549,5.8467,5.891,6.0032,6.0697,6.1126,6.1392,6.1516,6.1516,6.1479,6.0595,5.9099,5.6918,5.611,0.0,0.0,0.0,0.0,0.0,0.0,0.0,0.0,0.0,5.818,5.9808,6.13,6.2548,6.3392,6.5301,6.732,6.9082,7.0477,7.1578,7.2386,7.2496,7.2459,7.2312,7.2422,7.2459,7.2275,7.2973,7.3377,7.323,7.2614,7.2577,7.3179,7.188,7.1358,7.2018,7.1397,7.0671,6.9868,6.9235,6.8796,6.8651,6.8017,6.7944,6.8421,6.7907,6.743,6.6916,6.5448,6.4798,6.4714,6.3209,6.2585,6.2475,6.152,6.0346,5.9111,5.8474,5.8143,5.7997,0.0,0.0,0.0,0.0,0.0,0.0,0.0,0.0,4.5893,4.6778,4.6885,4.7192,4.8009,4.8086,4.8086,4.8086,4.9702,5.1048,5.1846,5.4325,5.6121,5.689,5.6971,5.7294,5.7985,5.641,5.5399,5.5015,5.5015,5.4453,5.3359,5.4129,5.5352,5.6882,5.6882,5.7842,5.9389,5.9389,5.9389,5.9389,5.9389,5.9389,5.9389,5.9284,6.0171,6.1375,6.0698,6.1789,6.3427,6.2824,6.2616,6.2937,6.4709,6.5162,6.4162,5.9861,5.7928,5.6766,5.4807,5.4399,5.5023,5.7079,5.7116,5.7813,0.0,0.0,6.152,6.3209,6.4273,6.5154,6.5925,6.688,6.8311,7.066,7.1183,7.1578,7.2386,7.2496,7.2239,7.1541,7.2092,7.2239,7.1476,7.2165,7.2349,7.1651,7.1492,7.1471,7.1545,7.0718,7.0271,7.0367,7.0275,6.9841,6.9024,6.8951,6.8529,6.7834,6.7724,6.7357,6.6806,6.7393,6.6512,6.4457,6.3503,6.3074,6.3025,6.2108,6.1741,6.1594,6.0052,5.9368,5.9184,5.9074,5.8621,5.7997,0.0,0.0,0.0,0.0,0.0,0.0,0.0,0.0,4.5812,4.6103,4.6124,4.6278,4.6624,4.6663,4.6663,4.6663,4.8663,5.0279,5.1164,5.401,5.5857,5.6252,5.6714,5.6945,5.678,5.6049,5.561,5.5446,5.5446,5.5183,5.4651,5.5046,5.5848,5.6981,5.7477,5.8356,5.9502,6.0012,6.0203,6.0203,6.0203,6.0203,6.0203,6.0203,6.0647,6.12,6.0711,6.1143,0.0,6.2616,6.2786,6.2824,6.2918,6.1563,5.9628,5.8072,5.7248,5.6817,5.6594,5.6911,5.7677,5.9211,5.9806,6.0737,6.3294,6.3431,6.3392,6.4567,6.6182,6.721,6.6623,6.7907,6.9412,0.0,7.0991,7.1403,7.1762,7.1798,7.1358,7.0073,7.0624,7.0954,7.0624,7.0917,7.0962,7.0641,7.0172,7.0079,7.058,6.9814,6.9623,7.0091,6.964,6.9235,6.8914,6.8456,6.8035,6.7687,6.7687,6.7504,6.721,6.754,6.6623,6.4751,6.3906,6.3282,6.2743,6.2438,6.2034,6.152,6.086,6.0015,5.9148,5.8694,5.829,5.7997,0.0,0.0,0.0,0.0,0.0,0.0,0.0,0.0,0.0,0.0,4.568,4.5624,4.5603,4.5594,4.5594,4.5594,4.7702,4.9394,5.0289,5.328,5.5126,5.5357,5.6214,5.6368,5.5703,5.5703,5.5588,5.5357,5.5588,5.5588,5.5395,5.5818,5.6511,5.7396,5.8242,5.9088,5.9896,6.0512,6.0781,6.0781,6.0781,6.0781,6.0781,6.0512,6.0281,6.0145,6.0531,6.0637,6.0621,6.079,6.1473,6.2075,6.1111,5.8761,5.6526,5.7142,5.6811,5.6517,5.7507,5.8408,5.9444,6.1007,6.1996,6.3011,6.4566,6.489,6.5027,6.568,6.7425,6.8405,6.7053,6.8605,7.0183,7.0403,7.1101,7.1578,7.1329,7.1138,7.0367,6.8752,6.8898,6.9009,6.8798,6.9568,7.0008,6.9769,6.9228,6.9172,6.9746,6.8981,6.8813,6.9409,6.885,6.8566,6.8566,6.7998,6.7687,6.7687,6.7687,6.7577,6.7357,6.6916,6.6072,6.4934,6.409,6.3246,6.2475,6.2254,6.1667,6.0933,6.0676,5.9905,5.8804,5.8217,5.7997,5.7997,0.0,0.0,0.0,0.0,0.0,0.0,0.0,0.0,0.0,0.0,0.0,4.574,4.562,4.5594,4.5594,4.5594,4.7163,4.8509,4.9394,5.1856,5.3664,5.4511,5.5318,5.5742,5.5703,5.5703,5.5318,5.4549,5.5318,5.528,5.4549,5.6214,5.7434,5.8319,5.9088,5.9935,6.0742,6.0781,6.0781,6.0781,6.0781,6.0781,6.0704,5.9858,5.905,5.8588,6.02,6.0777,6.0304,5.7009,5.812,6.0854,6.0796,5.9595,5.8309,5.8877,5.7446,5.5902,5.6797,5.7628,5.9008,6.2291,6.3086,6.3917,6.7219,6.7331,6.6811,6.715,6.7929,6.8333,6.7747,6.9009,7.0367,7.1138,7.1945,7.2202,7.1403,7.0624,6.9522,6.7907,6.7063,6.6303,0.0,6.8266,6.9769,6.899,6.8913,6.893,6.8944,6.8147,6.7751,6.7787,6.7751,6.7751,6.7751,6.7714,6.7687,6.7687,6.7687,6.7283,6.6476,6.4897,6.4163,6.409,6.3209,6.2401,6.1594,6.0786,6.0015,5.9184,5.84,5.807,5.8033,5.7997,5.7997,5.7997,0.0,0.0,0.0,0.0,0.0,0.0,0.0,0.0,0.0,0.0,0.0,0.0,0.0,0.0,0.0,0.0,4.6711,4.7663,4.8471,5.0433,5.1895,5.2741,5.4126,5.4895,5.4895,5.5434,5.5549,5.528,5.5549,5.5549,5.5318,5.5857,5.6588,5.7473,5.8319,5.9165,5.9973,6.055,6.0781,6.0742,6.0165,5.9935,5.9781,5.8357,5.7319,5.6549,0.0,5.6785,5.7247,5.6099,5.6456,5.7439,5.7434,5.7027,5.6621,5.6798,5.7123,5.7608,5.8425,6.0083,6.2136,6.4408,6.5534,6.6522,6.8195,6.8054,6.748,6.7071,6.6274,6.542,6.4705,6.5654,6.6939,6.8308,6.9878,7.0807,7.055,7.0725,6.9669,6.6486,6.7269,0.0,0.0,0.0,0.0,6.7286,6.7314,6.7561,6.8073,6.7871,6.7687,6.7687,6.7173,6.688,6.688,6.6366,6.6366,6.688,6.688,6.6476,6.5668,6.4567,6.3759,6.3209,6.2365,6.1557,6.0786,6.0529,5.9942,5.9195,5.9235,5.8943,5.8487,5.8815,5.8932,5.8819,0.0,0.0,0.0,0.0,0.0,0.0,0.0,0.0,0.0,0.0,0.0,0.0,0.0,0.0,0.0,0.0,0.0,4.6855,4.767,4.905,5.0171,5.0971,5.2395,5.3126,5.3126,5.3664,5.4049,5.4357,5.4357,5.4664,5.528,5.5549,5.6319,5.7511,5.8357,5.9204,5.9973,6.0242,6.0319,6.0242,5.905,5.8588,5.8434,5.6742,5.5549,0.0,5.3636,5.3531,5.3916,5.3905,5.3895,5.3923,5.3891,5.472,5.5791,5.6175,5.7407,5.8934,6.0435,6.2281,6.432,6.6667,6.7554,6.809,6.8947,6.8608,6.778,6.6442,6.5253,6.4065,6.2805,6.3647,6.471,6.5274,6.7237,6.8759,6.9043,6.9319,6.8687,6.6699,6.7568,6.7539,0.0,0.0,0.0,6.689,6.691,6.7156,6.765,6.7687,6.7577,6.7283,6.6769,6.6366,6.6072,6.5558,6.5625,6.6321,6.621,6.5899,6.5379,6.4253,6.3437,6.2858,6.2042,6.1226,6.0484,6.0484,6.0002,5.9303,5.958,5.9401,5.8952,5.8927,5.8871,5.8635,0.0,0.0,0.0,0.0,0.0,0.0,0.0,0.0,0.0,0.0,0.0,0.0,0.0,0.0,0.0,0.0,0.0,0.0,4.6913,4.7752,4.8562,4.9248,5.0163,5.0664,5.0654,5.0683,5.1058,5.1846,5.1846,5.2702,5.4318,5.5088,5.6357,5.8088,5.8858,5.9665,6.0473,5.9665,5.9319,5.9165,5.7522,5.6868,5.6676,5.5011,5.3857,5.3049,5.2192,5.1395,5.0741,5.0711,5.0719,5.0699,5.0699,5.3018,5.5927,5.6994,5.8138,5.9677,6.2589,6.4051,6.5551,6.8783,6.9013,6.8629,6.9398,6.8936,6.7727,6.5513,6.4886,6.4079,6.2009,6.2966,6.368,6.2566,6.4519,6.651,6.7396,6.6935,6.7002,0.0,0.0,0.0,0.0,0.0,0.0,6.7768,0.0,6.7736,6.7773,6.7784,6.739,6.6617,6.6581,6.6176,6.5331,6.5331,6.5521,6.5926,6.5677,6.5539,6.5426,6.3823,6.3068,6.2918,6.2089,6.1297,6.0523,6.0523,6.0051,5.9351,5.9424,5.9386,5.9273,5.848,5.7984,5.772,0.0,0.0,0.0,0.0,0.0,0.0,0.0,0.0,0.0,0.0,0.0,0.0,0.0,0.0,0.0,0.0,0.0,0.0,4.6183,4.6989,4.7556,4.775,4.9174,4.9924,4.9869,5.048,5.0829,5.101,5.101,5.1241,5.1674,5.1866,5.2895,5.4511,5.4703,5.5626,5.6973,5.6742,5.6665,5.6588,5.5549,5.5126,5.4934,5.3241,5.2423,5.2192,5.1962,5.1769,5.15,5.0893,5.0699,5.0685,5.0685,5.2993,5.5764,5.6049,5.7278,5.9288,6.2988,6.5679,6.7462,6.7718,6.8398,6.8769,6.7936,6.759,6.6897,6.5112,6.2669,6.0533,5.942,6.0696,0.0,6.3211,6.6698,0.0,7.0518,7.1554,0.0,6.9409,0.0,6.9773,6.7598,6.8236,0.0,0.0,6.8347,6.8251,6.8877,6.8871,6.8494,6.7632,6.7653,6.6978,6.5549,6.5511,6.5295,6.4817,6.5349,6.4935,6.371,6.3295,6.2409,6.124,6.1014,6.0448,5.9729,5.9729,5.9183,5.8538,5.9526,5.9536,5.898,5.9087,5.9077,5.8832,0.0,0.0,0.0,0.0,0.0,0.0,0.0,0.0,0.0,0.0,0.0,0.0,0.0,0.0,0.0,0.0,0.0,0.0,0.0,4.6452,4.6703,4.6619,4.7539,4.801,4.7965,4.843,4.8966,4.9654,4.9269,4.9649,5.0712,5.0327,5.101,5.2654,5.3049,5.3933,5.5164,5.5164,5.5164,0.0,0.0,5.3356,5.3203,5.1895,5.1356,5.1433,5.1769,5.2615,5.3664,5.4203,5.3738,5.3146,5.4639,5.6428,5.7939,5.7943,5.9684,6.1937,6.3398,6.6051,6.8475,6.8706,6.8796,6.8821,6.8771,6.8193,6.6974,6.4525,6.1908,5.9704,5.8538,5.8572,5.9914,0.0,0.0,0.0,7.0495,7.1702,7.223,0.0,7.1843,0.0,6.9378,6.9795,7.0047,0.0,6.8993,6.8809,6.9304,6.9299,6.8898,6.8067,6.8087,6.7295,6.5615,6.5443,6.4944,6.4165,6.4828,6.447,6.3175,6.2833,6.2147,6.1233,0.0,6.0433,5.9991,5.9991,5.9725,5.932,5.9685,5.9536,5.9064,5.8558,5.8396,5.8204,0.0,0.0,0.0,0.0,0.0,0.0,0.0,0.0,0.0,0.0,4.6289,0.0,0.0,0.0,0.0,0.0,0.0,0.0,0.0,0.0,4.6077,4.5967,4.5963,4.5955,4.5944,4.5944,4.6605,4.797,4.7196,4.7913,5.0019,4.924,4.974,5.1269,5.2125,5.301,5.3818,5.3933,5.401,5.3857,5.2356,5.1731,5.1692,0.0,5.0856,5.0971,5.1933,5.3818,5.6175,5.8275,5.7995,5.728,6.0453,6.1493,6.147,6.1462,6.3575,6.5639,6.4321,6.5962,6.8475,7.0144,6.9309,6.8462,6.9925,6.8911,6.6805,6.3619,6.1631,5.9953,5.8286,5.672,5.7559,6.3257,0.0,6.8939,6.951,7.0215,7.1487,7.3726,7.3259,7.2217,7.0958,7.1099,7.0964,7.0266,6.9794,6.9507,6.9493,6.9511,6.9152,6.8338,6.8073,6.724,6.567,6.5232,6.4642,6.3917,6.4256,6.4051,6.3281,6.2474,6.2062,6.1908,0.0,0.0,6.0781,6.0781,6.0742,6.055,5.9819,5.9435,5.9165,5.7599,5.6983,5.6868,0.0,0.0,0.0,0.0,0.0,0.0,0.0,0.0,0.0,0.0,4.6289,4.6289,0.0,0.0,0.0,0.0,0.0,0.0,0.0,0.0,0.0,4.6245,4.6245,4.6195,4.6075,4.6072,4.6111,4.6242,4.6087,4.6182,4.6479,4.6326,4.6817,4.7808,4.8625,4.9471,5.0317,5.1048,5.1366,5.1327,5.101,5.0894,5.0971,5.151,0.0,0.0,5.3472,5.5203,5.6945,5.8061,6.0007,6.2352,6.4378,6.5021,6.5036,6.5011,6.5435,6.6127,6.7231,6.6936,6.6731,6.8398,6.7564,6.6397,6.6704,6.5433,6.3611,6.1647,5.9903,5.8198,5.6483,5.5895,5.7555,6.3258,6.5486,6.792,7.2145,7.2837,7.3327,0.0,7.3836,0.0,0.0,0.0,0.0,0.0,0.0,7.0628,7.0622,7.0622,7.0239,6.9433,6.8014,6.6786,6.5866,6.5089,6.4616,6.4462,6.3821,6.3474,6.3281,6.2474,6.1716,6.1012,6.0858,0.0,6.0781,6.0781,6.0358,5.9704,5.955,5.9088,5.8396,5.7368,5.6983,5.6868,0.0,0.0,0.0,0.0,0.0,0.0,0.0,4.6289,4.6289,4.6289,4.6289,4.6289,4.6289,4.6289,4.6289,0.0,0.0,0.0,0.0,0.0,0.0,4.6289,4.6289,4.6288,4.6201,4.6201,4.6325,4.6623,0.0,4.6015,4.6329,4.5838,4.6086,4.6923,4.774,4.8586,4.9471,5.0327,5.0712,5.0712,5.0712,5.0712,5.0789,5.1587,0.0,0.0,5.4203,5.5588,5.7137,5.8011,5.9946,6.2252,6.3688,6.433,6.4742,6.5627,6.5897,6.6089,6.6885,6.6513,6.6077,6.691,6.6487,6.5205,6.2551,6.0604,5.9142,5.8303,5.7495,5.6676,5.5857,5.5682,5.7197,6.1695,6.3886,6.6384,7.028,7.1972,0.0,7.3976,7.3707,0.0,0.0,0.0,0.0,0.0,0.0,7.0475,7.0898,7.0514,6.9898,6.9052,6.7782,6.6898,6.6513,6.5705,6.482,6.3935,6.3512,6.2858,6.1973,6.1589,6.1204,6.0781,6.0781,0.0,6.0781,6.0781,6.055,6.0089,5.9204,5.8627,5.8127,5.6819,5.6329,5.6252,0.0,0.0,0.0,0.0,0.0,0.0,0.0,4.6289,4.6289,4.6289,4.6289,4.6289,4.6289,4.6289,4.6289,0.0,0.0,0.0,0.0,0.0,0.0,0.0,0.0,0.0,4.6289,0.0,0.0,4.7078,4.6271,0.0,0.0,0.0,0.0,0.0,4.7932,4.8779,4.9471,5.0327,5.0712,0.0,0.0,5.0789,0.0,0.0,0.0,0.0,0.0,5.5588,5.6868,5.7742,5.8896,6.0165,6.1254,6.2281,6.3423,6.4922,6.5627,6.5973,6.6218,6.6372,6.6372,6.5974,6.5641,6.4089,5.9377,5.696,5.5692,5.5692,5.5703,5.5703,5.5703,5.5709,5.6813,6.0227,6.1985,6.4231,6.7885,6.9975,7.1706,0.0,7.336,0.0,0.0,0.0,0.0,0.0,0.0,0.0,7.036,6.9744,6.9013,6.8167,6.7475,6.6936,6.6551,6.5936,6.4859,6.3308,6.3128,6.2358,6.105,6.0896,6.0781,6.0781,6.0781,0.0,0.0,6.0781,6.0781,6.0666,5.9127,5.8473,5.8127,5.6549,5.5857,5.5703,0.0,0.0,0.0,0.0,0.0,0.0,0.0,4.6289,4.6289,4.6289,4.6289,4.6289,4.6289,4.6289,4.6289,0.0,0.0,0.0,0.0,0.0,0.0,0.0,0.0,0.0,0.0,0.0,0.0,4.6052,0.0,0.0,0.0,0.0,0.0,0.0,0.0,4.9317,4.9471,5.0327,0.0,0.0,0.0,0.0,0.0,0.0,0.0,0.0,0.0,5.5703,5.5934,5.683,5.7214,5.7522,5.8396,6.0462,6.2719,6.3346,6.464,6.6127,6.7154,6.7808,6.7808,6.6269,6.4718,6.2629,5.9096,5.6933,5.5714,5.5692,5.5703,5.5703,5.5703,5.5703,5.6819,6.0238,5.9715,6.1089,6.7513,6.7936,6.9052,7.3053,0.0,0.0,0.0,0.0,0.0,0.0,0.0,0.0,6.8667,6.8538,6.8129,6.7244,6.7128,6.6359,6.4859,6.4743,6.4243,6.3269,6.2551,6.2139,6.1947,6.1166,6.0781,6.0781,6.0781,0.0,0.0,6.0781,6.0781,6.0704,5.9742,5.8934,5.8165,5.7242,5.6368,5.5703,0.0,0.0,0.0,0.0,0.0,0.0,4.6289,4.6289,4.6289,4.6289,4.6289,4.6289,4.6289,4.6289,4.6289,4.6289,0.0,0.0,0.0,0.0,0.0,0.0,0.0,0.0,0.0,0.0,4.614,4.6008,4.5881,0.0,0.0,0.0,0.0,0.0,0.0,0.0,5.0212,5.0558,0.0,0.0,0.0,0.0,0.0,0.0,0.0,0.0,0.0,0.0,5.5742,5.6088,5.656,5.6983,5.678,5.7857,5.955,6.1281,6.3012,6.4563,6.5525,6.668,6.7334,6.6205,6.4346,6.2269,6.0258,5.7659,5.5698,5.5703,5.5703,5.5703,5.5703,5.5703,5.6137,5.7522,5.7599,5.8819,6.2512,6.3666,6.5474,6.9206,0.0,0.0,0.0,0.0,0.0,0.0,0.0,0.0,6.6936,6.7359,6.7244,6.6397,6.6359,6.6051,6.5397,6.4859,6.4166,6.3269,6.2474,6.1831,6.132,6.0973,6.0781,6.0781,6.0781,0.0,0.0,6.0781,6.0781,6.0704,5.9858,5.9319,5.8934,5.8088,5.7242,5.6483,0.0,0.0,0.0,0.0,0.0,4.6289,4.6289,4.6289,4.6289,4.6289,4.6289,4.6289,4.6289,4.6289,4.6289,4.6289,4.6289,0.0,0.0,0.0,0.0,0.0,0.0,0.0,0.0,0.0,4.608,4.602,4.6102,4.6137,0.0,0.0,0.0,0.0,0.0,0.0,0.0,0.0,0.0,0.0,0.0,0.0,0.0,0.0,0.0,0.0,0.0,0.0,0.0,0.0,0.0,5.6483,5.5588,5.5934,5.706,5.9396,6.1243,6.2858,6.4243,6.582,6.6974,6.6397,6.4486,6.2409,6.1089,5.8346,5.6,5.5742,5.5703,5.5703,5.5703,5.5703,5.5703,5.5703,5.6214,5.728,5.9242,6.055,6.2474,0.0,0.0,0.0,0.0,0.0,0.0,0.0,0.0,0.0,0.0,6.6051,6.609,6.5513,6.5513,6.5397,6.5128,6.4512,6.3782,6.2935,6.2358,6.1639,6.0781,6.0781,6.0781,6.0781,0.0,0.0,0.0,6.0781,6.0781,6.0704,5.9858,5.9358,5.905,5.8204,5.7357,5.6637,0.0,0.0,0.0,0.0,0.0,0.0,4.6289,4.6289,4.6289,4.6289,4.6289,4.6289,4.6289,4.6289,4.6289,4.6289,4.6289,0.0,0.0,0.0,0.0,0.0,0.0,0.0,0.0,0.0,4.6017,4.5884,4.6628,4.6947,4.6932,4.8586,4.8933,0.0,0.0,0.0,0.0,0.0,0.0,0.0,0.0,0.0,5.328,0.0,0.0,0.0,0.0,0.0,0.0,0.0,0.0,0.0,0.0,5.5049,5.6049,5.7819,5.9511,6.1396,6.3897,6.582,6.709,6.709,6.5166,6.2858,6.1166,5.8819,5.6753,5.5857,5.5703,5.5703,5.5703,5.5703,5.5703,5.5703,5.5703,5.6588,5.9127,5.9511,0.0,0.0,0.0,0.0,0.0,0.0,0.0,0.0,0.0,0.0,0.0,6.4628,6.4628,6.4628,6.4628,6.4205,6.3346,6.332,6.2897,6.2101,6.2101,6.1639,6.0781,6.0781,6.0781,0.0,0.0,0.0,0.0,6.0781,6.0781,6.0704,5.9858,5.9011,5.8204,5.7319,5.6483,5.5703,0.0,0.0,0.0,0.0,0.0,0.0,0.0,4.6289,4.6289,4.6289,4.6289,4.6289,4.6289,4.6289,4.6289,4.6289,4.6289,0.0,0.0,0.0,0.0,0.0,0.0,0.0,0.0,4.6017,4.5918,4.5819,4.6561,4.6917,4.6923,4.8625,4.924,4.9048,5.0212,0.0,0.0,0.0,0.0,0.0,0.0,5.1933,5.3164,0.0,0.0,0.0,0.0,0.0,0.0,0.0,0.0,0.0,0.0,0.0,0.0,5.6203,5.8127,6.0089,6.0896,6.2358,6.3563,6.2935,6.132,5.9742,5.9204,5.755,5.6011,5.5742,5.5703,5.5703,5.5703,5.5703,5.5895,5.6483,5.6599,5.7088,5.8473,0.0,0.0,0.0,0.0,0.0,0.0,0.0,0.0,0.0,0.0,0.0,0.0,6.4051,6.3705,6.3705,6.3705,6.3589,6.3308,6.2743,6.2358,6.2101,6.1512,6.105,6.0781,6.0781,0.0,0.0,0.0,0.0,0.0,6.0781,6.0781,6.0781,6.0512,6.0242,5.9896,5.9011,5.8204,5.7396,0.0,0.0,0.0,0.0,0.0,0.0,0.0,4.6094,4.6172,4.5859,4.6094,4.6289,4.6289,4.6289,4.6289,4.6289,4.6289,0.0,0.0,0.0,0.0,0.0,0.0,0.0,4.6091,4.5935,4.5842,4.5783,4.6852,4.7355,4.7394,4.9086,4.9702,4.9433,5.0327,5.0519,0.0,0.0,0.0,0.0,5.0712,5.151,5.2654,0.0,0.0,0.0,0.0,0.0,0.0,0.0,0.0,0.0,0.0,0.0,0.0,0.0,5.6588,5.8204,5.8858,6.0281,6.1485,6.0935,5.955,5.8319,5.8319,5.6934,5.5703,5.5703,5.5703,5.5703,5.5703,5.5703,5.5857,5.6406,5.6522,5.6934,0.0,0.0,0.0,0.0,0.0,0.0,0.0,0.0,0.0,0.0,0.0,0.0,0.0,6.332,6.2704,6.2358,6.2666,6.2704,6.2358,6.1858,6.1601,6.1601,6.105,6.0781,6.0781,6.0781,0.0,0.0,0.0,0.0,0.0,6.0781,6.0781,6.0781,6.0435,6.0127,5.9742,5.8896,5.8011,5.7242,0.0,0.0,0.0,0.0,0.0,0.0,0.0,4.5742,4.5976,4.5117,4.5742,4.6289,4.6289,4.6289,4.6289,4.6289,0.0,0.0,0.0,0.0,0.0,0.0,0.0,0.0,4.6077,4.589,4.5815,4.5802,4.7268,4.8009,4.8048,4.974,5.0125,4.9433,5.025,5.0202,0.0,0.0,0.0,0.0,5.0712,5.1164,0.0,0.0,0.0,0.0,0.0,0.0,0.0,0.0,0.0,0.0,0.0,0.0,0.0,0.0,0.0,0.0,0.0,5.9242,6.0435,6.0435,5.9281,5.8127,5.8127,5.6857,0.0,5.5703,5.5703,5.5703,5.578,5.578,5.5818,5.5857,5.5934,5.6549,0.0,5.9396,0.0,0.0,0.0,0.0,0.0,0.0,0.0,0.0,0.0,0.0,0.0,6.2474,6.1639,6.0819,6.1601,6.1639,6.0819,6.0781,6.0781,6.0781,6.0781,6.0781,6.0781,6.0781,0.0,0.0,0.0,0.0,0.0,6.0781,6.0781,6.0704,5.9896,5.9088,5.828,5.7407,5.656,5.578,0.0,0.0,0.0,0.0,0.0,0.0,0.0,0.0,0.0,0.0,4.5742,4.6289,4.6289,4.6289,4.6289,0.0,0.0,0.0,0.0,0.0,0.0,0.0,0.0,0.0,4.5859,4.5821,4.5754,4.5632,4.669,4.7192,4.7192,4.824,4.8971,4.9394,4.9625,4.9971,0.0,0.0,0.0,0.0,5.0712,5.1164,0.0,0.0,0.0,0.0,5.4511,5.4511,0.0,0.0,0.0,0.0,0.0,0.0,0.0,0.0,5.5549,5.578,5.6203,0.0,5.6896,5.6896,5.6588,5.6319,0.0,5.5972,5.5703,5.5703,5.5703,5.5895,5.656,5.6676,5.6907,5.7588,5.8204,5.8973,0.0,0.0,0.0,0.0,0.0,0.0,0.0,0.0,0.0,0.0,0.0,0.0,0.0,6.1897,6.1012,6.0819,6.1012,6.1012,6.0781,6.0781,6.0781,6.0781,6.0781,6.0781,6.0781,6.0781,0.0,0.0,0.0,0.0,6.0781,6.0781,6.0781,6.0781,6.055,5.9973,5.9127,5.8319,5.7434,5.6599,0.0,0.0,0.0,0.0,0.0,0.0,0.0,0.0,0.0,0.0,0.0,4.6289,4.6289,4.6289,0.0,0.0,0.0,0.0,0.0,0.0,0.0,0.0,0.0,4.5911,4.5783,4.574,4.5673,4.5594,4.6471,4.6885,4.6923,4.8125,4.8933,4.9433,4.9817,5.025,0.0,0.0,0.0,5.0712,5.0712,0.0,0.0,0.0,0.0,0.0,5.3895,5.4164,0.0,5.5011,5.4857,5.4626,0.0,0.0,0.0,0.0,5.5703,5.5703,5.5703,5.5972,5.6291,5.6291,5.6291,5.6291,5.6291,5.5972,5.5703,5.5703,5.6011,5.6445,5.6907,5.7319,5.7742,5.8204,5.8973,0.0,0.0,0.0,0.0,0.0,0.0,0.0,0.0,0.0,0.0,0.0,0.0,0.0,0.0,6.1512,6.0781,6.0781,6.0781,6.0781,6.0781,6.0781,6.0781,6.0781,6.0781,6.0781,6.0781,6.0781,6.0781,0.0,0.0,0.0,6.0781,6.0781,6.0781,6.0742,6.0358,5.9704,5.8858,5.8011,5.7126,5.634,0.0,0.0,0.0,0.0,0.0,0.0,0.0,0.0,0.0,0.0,0.0,0.0,0.0,0.0,0.0,0.0,0.0,0.0,0.0,0.0,0.0,0.0,4.5885,4.5809,4.5782,4.5648,4.5594,4.5594,4.6355,4.6778,4.6923,4.8355,4.9163,4.9433,5.0327,5.0712,5.0712,0.0,0.0,5.0712,5.0712,0.0,0.0,0.0,0.0,0.0,0.0,0.0,0.0,5.4664,5.4664,5.478,5.5472,0.0,0.0,0.0,0.0,0.0,5.5857,5.6637,5.733,5.706,5.7099,5.7176,5.7022,5.6445,5.5895,5.5895,5.6483,5.7099,5.733,5.7973,0.0,0.0,0.0,0.0,0.0,0.0,0.0,0.0,0.0,0.0,0.0,0.0,0.0,0.0,0.0,0.0,0.0,6.1281,6.0781,6.0781,6.0781,6.0781,6.0781,6.0781,6.0781,6.0781,6.0781,6.0781,6.0781,6.0781,6.0781,0.0,0.0,0.0,6.0781,6.0781,6.0704,6.0512,5.9781,5.8934,5.8011,5.7296,5.6459,5.5768,0.0,0.0,0.0,0.0,0.0,0.0,0.0,0.0,0.0,0.0,0.0,0.0,0.0,0.0,0.0,0.0,0.0,0.0,0.0,0.0,0.0,4.5858,4.5809,4.5747,4.5646,4.5612,4.5594,4.5594,4.5748,4.6163,4.6923,4.7163,4.8048,4.9433,5.0327,5.0712,5.0712,5.0712,0.0,5.0712,5.0712,0.0,0.0,0.0,0.0,0.0,0.0,0.0,0.0,5.5511,5.5511,5.5549,5.5665,0.0,0.0,0.0,0.0,0.0,5.6599,5.7934,5.8781,5.7368,5.755,5.7896,5.7176,5.6907,5.6791,5.6791,5.6907,5.7445,5.8858,5.9242,5.9319,0.0,0.0,0.0,0.0,0.0,0.0,0.0,0.0,0.0,0.0,0.0,0.0,0.0,0.0,0.0,0.0,6.1281,6.0781,6.0781,6.0781,6.0781,6.0781,6.0781,6.0781,6.0781,6.0781,6.0781,6.0781,6.0781,6.0781,0.0,0.0,6.0781,6.0781,6.0781,6.0358,5.9704,5.955,5.855,5.7198,5.7187,5.6601,5.5899,0.0,0.0,0.0,0.0,0.0,0.0,0.0,0.0,0.0,0.0,0.0,0.0,0.0,0.0,0.0,0.0,0.0,0.0,0.0,0.0,4.5704,4.5704,4.5704,4.5657,4.5594,4.5594,4.5594,4.5594,4.5594,4.6047,4.6923,4.7817,4.8894,5.0125,5.0519,5.0933,5.1318,5.0894,5.1202,5.201,0.0,0.0,0.0,0.0,0.0,0.0,0.0,0.0,0.0,0.0,5.4934,5.5703,5.5703,0.0,0.0,0.0,0.0,0.0,5.6214,5.7203,5.8165,5.8319,5.9358,6.0012,5.8665,5.8357,5.8242,5.778,5.805,5.8742,5.9973,0.0,6.2012,6.3397,0.0,0.0,0.0,0.0,0.0,0.0,0.0,0.0,0.0,0.0,0.0,0.0,0.0,0.0,0.0,0.0,6.0781,6.0781,6.0781,6.0781,6.0781,6.0781,6.0781,6.0781,6.0781,6.055,6.0089,6.0089,6.0089,6.0089,0.0,6.0358,6.0781,6.0781,6.0281,5.9446,5.9097,5.8192,5.7071,5.6784,5.6446,5.6173,0.0,0.0,0.0,0.0,0.0,0.0,0.0,0.0,0.0,0.0,0.0,0.0,0.0,0.0,0.0,0.0,0.0,0.0,0.0,4.5648,4.5594,4.5594,4.5594,4.5594,4.5594,4.5594,4.5594,4.5594,4.5594,4.6047,4.6923,4.8625,4.974,5.0404,5.0818,5.1202,5.1587,5.1164,5.1702,5.2856,0.0,0.0,0.0,0.0,0.0,0.0,0.0,0.0,0.0,0.0,0.0,0.0,0.0,0.0,0.0,5.5703,5.5703,5.5742,5.5934,5.6791,5.7896,5.9165,6.0512,6.1281,6.055,6.0242,6.005,5.9819,6.0145,6.0641,6.1254,6.2467,0.0,6.6483,0.0,0.0,0.0,0.0,0.0,0.0,0.0,0.0,0.0,0.0,0.0,0.0,0.0,0.0,0.0,0.0,6.0781,6.0781,6.0781,6.0781,6.0781,6.0619,6.0619,6.0781,6.0589,6.0165,5.9511,5.9511,5.9511,5.9511,5.9704,6.0211,6.0856,6.0856,6.0233,5.9263,5.8953,5.8234,5.7236,5.6513,5.6347,5.6452,0.0,0.0,0.0,0.0,0.0,0.0,0.0,0.0,0.0,0.0,0.0,0.0,0.0,0.0,0.0,0.0,0.0,0.0,0.0,4.5603,4.5594,4.5594,4.5594,4.5594,4.5594,4.5594,4.5594,4.5594,4.5594,4.6047,4.6923,4.8625,4.9433,4.9548,5.1125,5.1433,5.0827,5.151,5.1885,5.2,5.1923,0.0,0.0,0.0,0.0,0.0,0.0,0.0,0.0,0.0,0.0,0.0,0.0,0.0,5.5703,5.5703,5.5703,5.5857,5.6676,5.8088,5.9358,5.9473,5.9588,6.0281,6.2512,6.2435,6.232,6.3858,6.3703,6.3265,6.3137,6.3387,6.4143,0.0,0.0,0.0,0.0,0.0,0.0,0.0,0.0,0.0,0.0,0.0,0.0,0.0,0.0,0.0,0.0,0.0,0.0,6.0781,6.0781,6.0781,6.0781,6.0104,6.0104,6.0781,5.9973,5.955,5.9511,5.9511,5.9511,5.955,6.0358,6.0822,6.0979,6.0979,6.0127,5.8848,5.9604,5.8983,5.7548,5.6692,5.6462,5.6601,0.0,0.0,0.0,0.0,0.0,0.0,0.0,0.0,0.0,0.0,0.0,0.0,0.0,0.0,0.0,0.0,0.0,0.0,0.0,4.5594,4.5594,4.5594,4.5594,4.5594,4.5594,4.5594,4.5594,4.5594,4.6124,4.6817,4.7663,4.8856,4.9702,5.025,5.0856,5.1279,5.1433,5.1241,5.1779,5.2692,5.2692,5.3241,0.0,0.0,0.0,0.0,0.0,0.0,0.0,0.0,5.528,5.5703,5.5703,5.5703,5.5703,5.5703,5.5703,5.578,5.6088,5.7434,5.8858,5.9396,5.9896,6.0819,6.2858,6.3996,6.452,6.4054,6.5144,6.5941,6.5334,0.0,6.6943,0.0,0.0,0.0,0.0,0.0,0.0,0.0,0.0,0.0,0.0,0.0,0.0,0.0,0.0,0.0,0.0,0.0,0.0,6.1112,6.1112,6.1112,6.1112,6.0289,6.0017,6.0289,5.9428,5.8731,5.8196,5.8746,5.8987,5.9064,5.9917,6.0623,6.1193,6.1193,6.0184,5.8654,5.7992,5.7799,5.7727,5.6867,5.656,5.6601,0.0,0.0,0.0,0.0,0.0,0.0,0.0,0.0,0.0,0.0,0.0,0.0,0.0,0.0,0.0,0.0,0.0,0.0,4.5586,4.5594,4.5559,4.5438,4.5438,4.5438,4.5438,4.5438,4.5475,4.5594,4.609,4.682,4.7731,4.8471,4.9365,5.0327,5.0856,5.1241,5.151,5.1202,5.1741,5.2818,5.3087,5.3703,0.0,0.0,0.0,0.0,0.0,0.0,0.0,0.0,5.5241,5.5703,5.5703,5.5703,5.5703,5.5703,5.5895,5.6049,5.578,5.6973,5.8434,5.8973,6.0014,6.1439,6.3676,6.5198,6.6224,6.638,6.7091,6.7442,6.6618,0.0,0.0,0.0,0.0,0.0,0.0,0.0,0.0,0.0,0.0,0.0,0.0,0.0,0.0,0.0,0.0,0.0,0.0,0.0,0.0,0.0,6.1283,6.1283,6.1283,6.0199,5.963,5.963,5.8538,5.7818,5.7431,5.802,5.8448,5.8765,5.9622,6.05,6.1354,6.1354,6.0525,5.9084,5.7497,5.7296,5.7773,5.6914,5.6601,5.6601,0.0,0.0,0.0,0.0,0.0,0.0,0.0,0.0,0.0,0.0,0.0,0.0,0.0,0.0,0.0,0.0,0.0,0.0,4.5568,4.5586,4.5438,4.5126,4.5115,4.5115,4.5115,4.5115,4.5253,4.5586,4.5253,4.5722,4.6923,4.7367,4.8241,4.9471,5.1154,5.1471,5.075,5.1548,5.1885,5.1962,5.2856,5.3703,5.4587,0.0,0.0,0.0,0.0,0.0,0.0,0.0,5.5703,5.5703,5.5703,5.5703,5.5703,5.5703,5.6329,5.6791,5.5934,5.6973,5.8319,5.8319,5.9669,6.1914,6.5324,6.6098,6.73,7.16,6.9919,6.7465,6.6766,6.5962,0.0,0.0,0.0,0.0,0.0,0.0,0.0,0.0,0.0,0.0,0.0,0.0,0.0,0.0,0.0,0.0,0.0,0.0,0.0,0.0,6.1289,6.1289,6.1289,5.9697,5.8883,5.8886,5.7337,5.6885,5.7398,5.7398,5.7865,5.8765,5.961,6.0589,6.1504,6.1465,6.1034,6.0234,5.8555,5.789,5.7773,5.6914,5.6601,5.6601,0.0,0.0,0.0,0.0,0.0,0.0,0.0,0.0,0.0,0.0,0.0,0.0,0.0,0.0,0.0,0.0,0.0,0.0,4.4896,4.4908,4.4861,4.4763,4.4751,4.4751,4.4751,4.5306,4.5466,4.5243,4.5159,4.5579,4.6515,4.7509,4.8481,4.9433,5.0548,5.0933,5.0712,5.0933,5.1048,5.1164,5.2626,5.3356,5.3741,0.0,0.0,0.0,0.0,0.0,0.0,0.0,0.0,0.0,5.5703,5.5703,5.5703,5.5703,5.5857,5.6011,5.578,5.6973,5.849,5.9167,6.1095,6.3593,6.657,6.6807,6.7374,7.0561,6.9535,6.799,6.7767,0.0,0.0,0.0,0.0,0.0,0.0,0.0,0.0,0.0,0.0,0.0,0.0,0.0,0.0,0.0,0.0,0.0,0.0,0.0,0.0,0.0,6.158,6.1307,6.0682,5.9639,5.8784,5.8197,5.7109,5.6677,5.6855,5.748,5.8222,5.9081,5.9315,6.0298,6.1557,6.0385,5.9764,5.9375,5.7656,5.7344,5.7773,5.6914,5.6601,5.6601,0.0,0.0,0.0,0.0,0.0,0.0,0.0,0.0,0.0,0.0,4.4169,4.4169,0.0,0.0,0.0,0.0,0.0,0.0,4.4599,4.4612,4.4546,4.4359,4.4359,4.4359,4.4359,4.5158,4.5337,4.4908,4.5226,4.6057,4.7289,4.7705,4.8615,4.9933,5.0481,5.0712,5.0712,5.0712,5.0712,5.0827,5.2164,5.2895,5.3356,0.0,0.0,0.0,0.0,0.0,0.0,0.0,0.0,0.0,5.5703,5.5703,5.5703,5.5703,5.5934,5.6214,5.6214,5.7289,5.8694,5.9943,6.2058,6.442,6.6841,6.8287,6.9452,7.0468,6.9648,6.8594,6.8242,6.7617,0.0,0.0,0.0,0.0,0.0,0.0,0.0,0.0,0.0,0.0,0.0,0.0,0.0,0.0,0.0,0.0,0.0,0.0,0.0,0.0,6.1367,6.0937,6.039,5.9258,5.8437,5.789,5.7031,5.6601,5.6601,5.7148,5.7851,5.8711,5.9062,5.9765,6.0625,5.9609,5.8984,5.8594,5.7539,5.7226,5.7305,5.6797,5.6601,5.6601,0.0,0.0,0.0,0.0,0.0,0.0,0.0,0.0,0.0,0.0,4.348,4.3515,0.0,0.0,0.0,0.0,0.0,0.0,0.0,4.4519,4.4318,4.3952,4.3937,4.3937,4.3937,4.4829,4.5103,4.4785,4.5464,4.6758,4.8574,4.7945,4.8684,5.0596,5.0596,5.0635,5.0712,5.0635,5.0635,5.0789,5.1664,5.25,5.3318,5.4164,0.0,0.0,0.0,0.0,0.0,0.0,0.0,0.0,5.5665,5.5703,5.5703,5.5703,5.6263,5.69,5.6977,5.7689,5.8839,6.0693,6.2824,6.4935,6.6718,7.0024,7.2229,7.0663,0.0,6.9219,6.8359,0.0,0.0,0.0,0.0,0.0,0.0,0.0,0.0,0.0,0.0,0.0,0.0,0.0,0.0,0.0,0.0,0.0,0.0,0.0,0.0,6.1484,6.0703,6.0234,6.0156,5.8672,5.7851,0.0,5.6992,5.6601,5.6601,5.6601,5.7031,5.7812,5.8789,5.9101,5.8984,5.9062,5.8555,5.7773,5.7773,5.7305,5.6601,5.6601,5.6601,5.6601,0.0,0.0,0.0,0.0,0.0,0.0,0.0,0.0,0.0,0.0,0.0,0.0,0.0,0.0,0.0,0.0,0.0,0.0,0.0,4.3726,4.3714,4.3614,4.3614,4.3614,4.3614,4.5014,4.5864,4.6075,4.5904,4.6152,4.6843,4.7642,4.8616,4.9663,4.9663,5.0048,5.0673,4.9971,5.0048,5.0827,5.2318,5.3049,5.3318,5.4164,5.5011,0.0,0.0,0.0,0.0,0.0,0.0,0.0,5.5511,5.5703,5.5703,5.5703,5.5895,5.6274,5.6988,5.738,5.8404,6.1591,6.4889,6.7616,6.8672,6.9569,6.9724,6.8047,6.8633,6.918,0.0,0.0,0.0,0.0,0.0,0.0,0.0,0.0,0.0,0.0,0.0,0.0,0.0,0.0,0.0,0.0,0.0,0.0,0.0,0.0,0.0,5.9765,5.957,5.914,5.8437,5.8086,5.7578,0.0,5.668,5.6601,5.6601,5.6601,5.6719,5.6953,5.8515,5.8437,5.7226,5.789,5.7656,5.6875,5.6875,5.6758,5.6601,5.6601,5.6601,5.6719,0.0,0.0,0.0,0.0,0.0,0.0,0.0,0.0,0.0,0.0,0.0,0.0,0.0,0.0,0.0,0.0,0.0,0.0,0.0,0.0,4.3515,4.3515,4.3515,4.3515,4.3515,4.4709,4.5608,4.6165,4.6313,4.696,4.814,4.8547,4.9202,5.001,5.001,5.0289,5.0673,5.0212,5.051,5.1356,5.2241,5.3087,5.3818,5.3857,5.4395,5.5049,5.4664,0.0,0.0,0.0,0.0,0.0,0.0,0.0,5.5703,5.5703,5.5779,5.6078,5.6969,5.7651,5.9084,6.314,6.5856,6.7812,6.8672,6.8867,6.8476,6.7187,6.793,0.0,0.0,0.0,0.0,0.0,0.0,0.0,0.0,0.0,0.0,0.0,0.0,0.0,0.0,0.0,0.0,0.0,0.0,0.0,0.0,5.9844,5.9648,5.9219,5.8789,5.8359,5.789,5.75,5.7031,5.6601,5.6601,5.6601,5.6601,5.6601,5.6601,5.664,5.7578,5.7422,5.664,5.7109,5.6992,5.6601,5.6601,5.6601,5.6601,5.6601,5.6601,5.664,0.0,0.0,0.0,0.0,0.0,0.0,0.0,0.0,0.0,0.0,0.0,0.0,0.0,0.0,0.0,0.0,0.0,0.0,0.0,0.0,0.0,4.3515,4.3515,4.3515,4.3515,4.4338,4.5196,4.6021,4.6892,4.8352,5.0397,4.9719,4.9856,5.0712,5.0558,5.0558,5.0712,5.0712,5.1164,5.1923,5.2231,5.3126,5.4203,5.3472,5.3664,5.4241,5.4126,5.3587,5.3241,5.4934,0.0,0.0,0.0,0.0,5.5703,5.5703,5.5807,5.6126,5.6978,5.8291,6.0288,6.3983,6.582,6.6836,6.7383,6.7656,6.75,6.664,6.7148,0.0,0.0,0.0,0.0,0.0,0.0,0.0,0.0,0.0,0.0,0.0,0.0,0.0,0.0,0.0,0.0,0.0,0.0,0.0,5.9258,5.9219,5.9062,5.875,5.8047,5.7695,5.7695,5.6953,5.6601,5.6601,5.6601,5.6601,5.6601,5.6601,5.6601,5.6601,5.6601,5.6601,5.6601,5.6601,5.6601,5.6601,5.6601,5.6601,5.6601,5.6601,5.6601,5.6601,0.0,0.0,0.0,0.0,0.0,0.0,0.0,0.0,0.0,0.0,4.1486,4.1832,0.0,0.0,0.0,0.0,0.0,0.0,4.277,0.0,0.0,4.3515,4.3515,4.3515,4.3515,4.4584,4.5716,4.6917,4.8011,4.9633,5.1642,5.0106,4.9856,5.0673,4.9894,4.9971,5.0712,5.0712,5.1164,5.2038,5.3549,5.3857,5.3356,5.3241,5.328,5.328,5.25,5.2154,5.2346,5.4087,5.4087,0.0,0.0,0.0,5.5703,5.5703,5.593,5.6358,5.7142,5.9306,6.1484,6.207,6.4023,6.5625,6.4961,0.0,6.5703,0.0,0.0,0.0,0.0,0.0,0.0,0.0,0.0,0.0,0.0,0.0,0.0,0.0,0.0,0.0,0.0,0.0,0.0,0.0,0.0,0.0,5.9297,5.9219,5.8515,5.6992,5.6836,5.6758,5.6758,5.664,5.6601,5.6601,5.6601,5.6601,5.6601,5.6601,5.6601,5.6601,5.6601,5.6601,5.6601,5.6601,5.6601,5.6601,5.6601,5.6601,5.6601,5.6601,5.6601,5.6719,0.0,0.0,0.0,0.0,0.0,0.0,0.0,0.0,0.0,0.0,0.0,4.0943,0.0,0.0,0.0,4.1789,4.181,4.2041,4.2655,4.3196,4.3515,4.3515,4.3515,4.3515,4.3515,4.4188,4.514,4.6361,4.7072,4.8477,5.051,5.024,5.0818,5.2087,5.1702,5.1471,5.1395,5.1895,5.2318,5.2741,5.3972,5.428,5.3895,5.3395,5.2895,5.25,5.2577,5.201,5.1625,5.428,5.428,5.351,5.5164,0.0,0.0,0.0,5.6032,5.662,5.8036,5.9326,6.0625,6.207,6.3281,6.418,6.4297,6.4609,6.4765,6.4375,0.0,0.0,0.0,0.0,0.0,0.0,0.0,0.0,0.0,0.0,0.0,0.0,0.0,0.0,0.0,0.0,0.0,0.0,0.0,5.9765,5.8555,5.8008,5.7383,5.6601,5.6601,5.6601,5.6601,5.6601,5.6601,5.6601,5.6601,5.6601,5.6601,5.6601,5.6601,5.6601,5.6601,5.6601,5.6601,5.6601,5.6601,5.6601,5.6601,5.6601,5.6601,5.6601,5.6601,5.664,0.0,0.0,0.0,0.0,0.0,0.0,0.0,0.0,0.0,0.0,0.0,0.0,0.0,0.0,0.0,0.0,4.1375,4.1682,4.2402,4.2977,4.3339,4.3497,4.3515,4.3515,4.3515,4.3927,4.4665,4.5782,4.6431,4.7795,4.974,5.0587,5.1779,5.3203,5.3203,5.2731,5.1962,5.2818,5.3318,5.3587,5.401,5.4164,5.4087,5.3203,5.2356,5.1702,5.2549,5.2087,0.0,0.0,5.4549,5.379,5.5286,5.5825,0.0,0.0,0.0,5.6719,5.8162,5.8711,5.9375,6.1484,6.2344,6.2851,6.3476,0.0,6.3906,0.0,0.0,0.0,0.0,0.0,0.0,0.0,0.0,0.0,0.0,0.0,0.0,0.0,0.0,0.0,0.0,0.0,0.0,0.0,0.0,5.8828,5.7969,5.7265,5.6836,5.6601,5.6601,5.6601,5.6601,5.6601,5.6601,5.6601,5.6601,5.6601,5.6601,5.6601,5.6601,5.6601,5.6601,5.6601,5.6601,5.6601,5.6601,5.6601,5.6601,5.6601,5.6601,5.6601,5.6601,5.6601,0.0,0.0,0.0,0.0,0.0,0.0,0.0,0.0,0.0,0.0,0.0,0.0,4.0129,4.0129,4.0129,4.0179,4.0179,4.0648,4.1789,4.2402,4.2995,4.3497,4.3515,0.0,4.3515,4.4213,4.4976,4.5782,4.728,4.8923,5.0635,5.1471,5.2308,5.3203,5.3203,5.2731,5.1962,5.2818,5.3664,5.4357,5.3587,5.328,5.3164,5.2308,5.1471,5.0866,5.1702,0.0,0.0,0.0,0.0,0.0,0.0,0.0,5.5955,0.0,0.0,0.0,5.6678,5.7344,5.8203,5.914,6.0586,6.1797,0.0,0.0,0.0,0.0,0.0,0.0,0.0,0.0,0.0,0.0,0.0,0.0,0.0,0.0,0.0,0.0,0.0,0.0,0.0,0.0,0.0,0.0,0.0,5.8828,5.7969,5.7851,5.7461,5.664,5.6601,5.6601,5.6601,5.6601,5.6601,5.6601,5.6601,5.6601,5.6601,5.6601,5.6601,5.6601,5.6601,5.6601,5.6601,5.6601,5.6601,5.6601,5.6601,5.6601,5.6601,5.6601,5.6601,5.6601,0.0,0.0,0.0,0.0,0.0,0.0,0.0,0.0,0.0,0.0,0.0,0.0,0.0,4.0113,4.0113,4.0113,4.0417,4.0943,4.1746,4.2362,4.2957,4.348,4.3515,4.3515,4.3515,4.4227,4.4725,4.5027,4.6,4.7086,4.8279,4.9663,5.0471,5.0818,5.2472,5.3049,5.2779,5.3664,5.4203,5.4472,5.4164,5.3703,5.3087,5.2231,5.1395,0.0,0.0,0.0,0.0,0.0,0.0,0.0,0.0,0.0,0.0,5.6402,5.6507,5.6675,5.7265,5.7656,5.8125,5.8984,6.0039,6.0859,6.0859,6.1523,6.207,0.0,0.0,0.0,0.0,0.0,0.0,0.0,0.0,0.0,0.0,0.0,0.0,0.0,0.0,0.0,0.0,0.0,0.0,0.0,0.0,0.0,5.7969,5.7383,5.6914,5.6601,5.6601,5.6601,5.6601,5.6601,5.6601,5.6601,5.6601,5.6601,5.6601,5.6601,5.6601,5.6601,5.6601,5.6601,5.6601,5.6601,5.6601,5.6601,5.6601,5.6601,5.668,5.7226,5.7422,5.75,0.0,0.0,0.0,0.0,0.0,0.0,0.0,0.0,4.0113,4.0113,0.0,0.0,0.0,0.0,4.0113,4.0113,4.0441,4.0967,4.1746,4.22,4.2751,4.348,4.3515,4.3546,4.366,4.4299,4.4663,4.4776,4.5888,4.674,4.7355,4.9048,4.9817,4.9894,5.1625,5.2664,5.3241,5.3818,5.4395,5.4818,5.3972,5.3626,5.3549,5.2654,0.0,0.0,0.0,0.0,0.0,0.0,0.0,0.0,0.0,0.0,0.0,0.0,5.6601,5.6719,5.7305,5.7461,5.7656,5.8555,5.918,5.9648,5.9922,0.0,6.125,0.0,0.0,0.0,0.0,0.0,0.0,0.0,0.0,0.0,0.0,0.0,0.0,0.0,0.0,0.0,0.0,0.0,0.0,0.0,0.0,0.0,5.793,5.707,5.6601,5.6601,5.6601,5.6601,5.6601,5.6601,5.6601,5.6601,5.6601,5.6601,5.6601,5.6601,5.6601,5.6601,5.6601,5.6601,5.6601,5.6601,5.6601,5.6601,5.6601,5.6797,5.7109,5.7695,5.8086,5.8437,0.0,0.0,0.0,0.0,0.0,0.0,0.0,0.0,4.0113,4.0113,0.0,0.0,0.0,0.0,0.0,4.0113,4.0138,4.0611,4.1725,4.1832,4.2327,4.3463,4.3515,4.3644,4.3982,4.4387,4.4776,4.5115,4.7079,4.8048,4.8086,4.9856,5.0673,5.0673,5.0712,5.1625,5.3164,5.3164,5.4126,5.5472,5.2972,5.2972,5.4395,0.0,0.0,0.0,5.4087,5.3857,0.0,5.3164,0.0,0.0,0.0,0.0,0.0,0.0,0.0,0.0,0.0,0.0,0.0,5.7617,0.0,0.0,5.8984,0.0,0.0,0.0,0.0,0.0,0.0,0.0,0.0,0.0,0.0,0.0,0.0,0.0,0.0,0.0,0.0,0.0,0.0,0.0,0.0,0.0,0.0,5.789,5.7851,5.707,5.6601,5.6601,5.6601,5.6601,5.6601,5.6601,5.6601,5.6601,5.6601,5.6601,5.6601,5.6601,5.6601,5.6601,5.6601,5.6601,5.6601,5.6601,5.6601,5.6601,5.6601,5.7148,5.789,5.793,5.8476,5.9258,0.0,0.0,0.0,0.0,0.0,4.0113,4.0113,4.0113,4.0113,0.0,0.0,0.0,4.0113,4.0113,4.0113,4.0113,4.0431,4.1013,4.1768,4.2221,4.277,4.348,4.3515,4.3644,4.3982,4.4387,4.4776,4.5115,4.6541,4.7231,4.7278,4.8971,4.974,4.9779,5.0442,5.1279,5.2269,5.2269,5.3587,5.5511,5.3626,5.351,0.0,0.0,0.0,0.0,0.0,5.1972,5.2269,0.0,5.3257,5.4663,0.0,0.0,0.0,0.0,0.0,0.0,5.4883,0.0,0.0,0.0,0.0,0.0,0.0,0.0,0.0,0.0,0.0,0.0,0.0,0.0,0.0,0.0,0.0,0.0,0.0,0.0,0.0,0.0,0.0,0.0,0.0,0.0,0.0,0.0,5.8515,5.7617,5.6992,5.6719,5.6601,5.6601,5.6601,5.6601,5.6601,5.6601,5.6601,5.6601,5.6601,5.6601,5.6601,5.6601,5.6601,5.6601,5.6601,5.6601,5.6601,5.6601,5.6601,5.6601,5.6601,5.7148,5.7969,5.8594,5.9375,6.0156,0.0,0.0,0.0,4.0113,4.0113,4.0113,4.0113,4.0113,4.0113,0.0,0.0,0.0,4.0113,4.0113,4.0113,4.0113,4.0601,4.1138,4.1768,4.2362,4.2957,4.348,4.3515,4.3726,4.4233,4.4807,4.533,4.5867,4.7242,4.7932,4.7971,4.9317,4.9933,4.9971,5.0481,5.0971,5.1395,5.1395,5.2664,0.0,5.3587,0.0,0.0,5.2692,5.1933,0.0,0.0,0.0,5.2346,5.1625,5.2725,0.0,0.0,0.0,0.0,0.0,0.0,0.0,0.0,0.0,0.0,0.0,0.0,0.0,5.6914,5.75,0.0,0.0,0.0,0.0,0.0,0.0,0.0,0.0,0.0,0.0,0.0,0.0,0.0,0.0,0.0,0.0,0.0,0.0,0.0,5.9765,5.8906,5.789,5.668,5.6601,5.6601,5.6601,5.6601,5.6601,5.6601,5.6601,5.6601,5.6601,5.6601,5.6601,5.6601,5.6601,5.6601,5.6601,5.6601,5.6601,5.6601,5.6601,5.6601,5.6601,5.6601,5.7344,5.8515,5.9023,5.9922,6.1015,0.0,0.0,4.0113,4.0113,4.0113,4.0113,4.0113,4.0113,4.0113,0.0,4.018,4.0248,4.035,4.0282,4.0282,4.035,4.0752,4.1241,4.1874,4.2458,4.3013,4.3497,4.3549,4.3902,4.4599,4.5406,4.6183,4.6885,4.8586,4.9394,4.9433,5.0289,5.0712,5.0712,5.0712,5.0712,5.0712,5.0904,0.0,5.2779,5.2895,5.2587,0.0,0.0,5.2241,5.1577,5.2356,5.2702,5.2597,5.1308,5.2034,0.0,0.0,0.0,0.0,0.0,5.4453,0.0,0.0,0.0,0.0,0.0,0.0,0.0,5.5625,5.6055,5.6601,0.0,0.0,0.0,0.0,0.0,0.0,0.0,0.0,0.0,0.0,0.0,0.0,0.0,0.0,0.0,0.0,6.1523,6.1094,6.0312,5.9414,5.8242,5.668,5.6601,5.6601,5.6601,5.6601,5.6601,5.6601,5.6601,5.6601,5.6601,5.6601,5.6601,5.6601,5.6601,5.6601,5.6601,5.6601,5.6601,5.6601,5.6601,5.6601,5.6601,5.6601,5.7656,5.9219,5.9219,6.0273,6.1719,0.0,4.0113,4.0113,4.0113,4.0113,4.0113,4.0113,4.0113,4.0113,4.0113,4.0595,4.1204,4.1813,4.1339,4.1204,4.1813,4.1742,4.1929,4.2617,4.3115,4.3374,4.3497,4.3775,4.4102,4.4599,4.5632,4.6434,4.6885,4.8586,4.9394,4.9433,5.0289,5.0712,5.0712,5.0712,5.0712,5.0789,5.2125,0.0,5.0202,5.0894,0.0,5.2741,5.0856,4.9586,4.8856,4.9048,4.9548,5.0345,5.1586,5.2225,5.2702,0.0,0.0,0.0,0.0,0.0,0.0,0.0,0.0,0.0,0.0,0.0,0.0,5.6406,5.6484,5.6601,0.0,0.0,0.0,0.0,0.0,0.0,0.0,0.0,0.0,0.0,0.0,0.0,0.0,0.0,0.0,0.0,6.0469,5.9609,5.9453,5.8008,5.6953,5.6601,5.6601,5.6601,5.6601,5.6601,5.6601,5.6601,5.6601,5.6601,5.6601,5.6601,5.6601,5.6601,5.6601,5.6601,5.6601,5.6601,5.6601,5.6601,5.6601,5.6601,5.6601,5.6601,5.7656,5.9219,5.9219,6.0273,6.1719,4.0113,4.0113,4.0113,4.0113,4.0113,4.0113,4.0113,4.0113,4.0248,4.0595,4.1271,4.1745,4.1745,4.1745,4.2038,4.274,4.2882,4.3251,4.3942,4.4451,4.4525,4.4121,4.4254,4.4615,4.5202,4.619,4.7148,4.8163,4.9433,5.0048,5.0048,5.0519,5.0481,5.0048,5.0519,5.0481,5.0125,5.1395,5.1433,5.0702,5.1125,0.0,4.9971,4.9086,4.824,4.7548,4.7971,4.8394,4.9053,5.1041,5.1687,0.0,0.0,5.3359,5.3281,0.0,5.2383,5.1953,0.0,0.0,0.0,5.3906,0.0,0.0,0.0,5.5625,5.543,5.5859,0.0,0.0,0.0,0.0,0.0,0.0,0.0,0.0,0.0,0.0,0.0,0.0,0.0,0.0,6.1719,6.0547,5.9453,5.8594,5.7344,5.6601,5.6601,5.6601,5.6601,5.6601,5.6601,5.6601,5.6601,5.6601,5.6601,5.6601,5.6601,5.6601,5.6601,5.6601,5.6601,5.6601,5.6601,5.6601,5.6601,5.6601,5.6601,5.6601,5.6601,5.7656,5.9219,5.9219,6.0273,6.1719,4.0113,4.0113,4.0113,4.0113,4.0113,4.0113,4.0113,4.0113,4.0417,4.1305,4.2181,4.2592,4.2286,4.2791,4.3443,4.4296,4.4306,4.465,4.5493,4.5769,4.5553,4.4745,4.489,4.5254,4.5806,4.6857,4.8095,4.9394,5.0289,5.0712,5.0712,5.0712,5.0327,4.9663,5.0212,5.024,4.9933,5.0481,0.0,5.1423,0.0,4.9885,4.7663,4.7817,4.7471,4.7,4.7625,4.7855,4.8158,5.0186,0.0,5.1039,5.2101,5.2461,0.0,0.0,0.0,0.0,0.0,0.0,0.0,0.0,0.0,5.5312,0.0,0.0,0.0,5.539,0.0,0.0,0.0,0.0,0.0,0.0,0.0,0.0,0.0,0.0,0.0,0.0,0.0,0.0,0.0,6.0898,5.9687,5.8047,5.7265,5.6797,5.6601,5.6601,5.6601,5.6601,5.6601,5.6601,5.6601,5.6601,5.6601,5.6601,5.6601,5.6601,5.6601,5.6601,5.6601,5.6601,5.6601,5.6601,5.6601,5.6601,5.6601,5.6601,5.6601,5.7656,5.9219,5.9219,6.0273,6.1719,4.0113,4.0113,4.0113,4.0113,4.0113,4.0113,4.0113,4.0113,4.062,4.1982,4.3391,4.4697,4.5953,4.6035,4.6636,4.8147,4.6261,4.5596,4.7045,4.637,4.5553,4.4745,4.5662,4.6097,4.5819,4.7631,4.8892,4.9394,5.0289,5.0712,5.0712,5.0712,5.0635,5.0519,4.9856,5.0317,5.1577,5.0971,5.0317,0.0,4.9663,4.9933,0.0,4.7855,4.6962,4.6923,4.7,4.7038,4.7311,0.0,4.994,5.0135,0.0,5.1562,5.1562,0.0,0.0,0.0,0.0,0.0,0.0,0.0,5.4062,0.0,0.0,0.0,5.6328,5.6445,0.0,0.0,0.0,0.0,0.0,0.0,0.0,0.0,0.0,0.0,0.0,0.0,0.0,0.0,0.0,6.0898,5.9687,5.8047,5.7812,5.7422,5.664,5.6601,5.6601,5.6601,5.6601,5.6601,5.6601,5.6601,5.6601,5.6601,5.6601,5.6601,5.6601,5.6601,5.6601,5.6601,5.6601,5.6601,5.6601,5.6601,5.6601,5.6601,5.6601,5.7656,5.9219,5.9219,6.0273,6.1719,4.0282,4.0113,4.0204,4.0504,4.0978,4.1271,4.1117,4.155,4.1959,4.2215,4.3878,4.5455,4.6449,0.0,0.0,0.0,0.0,4.8082,0.0,0.0,4.7645,4.6838,4.6782,4.7157,4.7943,4.831,4.9058,5.0164,5.0519,5.0712,5.0712,5.0712,5.0712,5.0673,4.9779,4.9779,5.0433,0.0,4.974,0.0,0.0,0.0,0.0,4.7124,4.6163,4.6163,4.6163,4.6163,4.6356,0.0,4.8617,0.0,0.0,0.0,0.0,0.0,0.0,0.0,0.0,0.0,0.0,0.0,0.0,0.0,0.0,0.0,5.5976,0.0,0.0,0.0,0.0,0.0,0.0,0.0,0.0,0.0,0.0,0.0,0.0,0.0,0.0,0.0,0.0,0.0,0.0,0.0,5.7617,5.7539,5.664,5.6601,5.6601,5.6601,5.6601,5.6601,5.6601,5.6601,5.6601,5.6601,5.6601,5.6601,5.6601,5.6601,5.6601,5.6601,5.6601,5.6601,5.6601,5.6601,5.6601,5.6601,5.6601,5.7656,5.9258,5.9726,6.0664,6.1719,4.1435,4.1081,4.1155,4.1731,4.2335,4.2671,4.2475,4.3021,4.3369,4.3092,4.4784,4.6374,4.7298,4.8268,0.0,0.0,5.0671,5.0371,0.0,0.0,4.9114,0.0,0.0,0.0,0.0,4.9027,4.9543,5.0712,5.0712,5.0712,5.0712,5.0712,5.0712,5.0673,4.9779,4.951,4.974,0.0,4.9048,4.9009,4.8817,4.8586,4.8163,4.6547,4.5825,4.5594,4.5594,4.5594,4.574,4.6851,4.7605,0.0,4.8742,0.0,0.0,0.0,0.0,0.0,5.1016,0.0,0.0,0.0,0.0,0.0,0.0,0.0,0.0,0.0,0.0,0.0,0.0,0.0,0.0,0.0,0.0,0.0,0.0,0.0,0.0,0.0,0.0,0.0,0.0,0.0,0.0,0.0,0.0,5.7422,5.6289,5.625,5.6367,5.6601,5.6601,5.6601,5.6601,5.6601,5.6601,5.6601,5.6601,5.6601,5.6601,5.6601,5.6601,5.6601,5.6601,5.6601,5.6601,5.6601,5.6601,5.664,5.7148,5.8086,5.9258,5.9844,6.0742,6.1719,4.4063,4.3617,4.338,4.3973,4.4121,4.4143,4.4108,4.4143,4.4404,4.5126,4.652,0.0,0.0,0.0,0.0,0.0,0.0,5.194,5.1903,0.0,4.8857,0.0,0.0,4.9138,0.0,0.0,5.0645,5.0712,5.0712,5.0712,5.0712,5.0712,5.0712,5.0673,4.9779,4.9856,5.0558,4.8856,4.8125,4.8086,4.7278,4.6471,4.5825,0.0,4.6317,4.5594,4.5594,0.0,0.0,4.6851,4.7216,0.0,0.0,0.0,0.0,0.0,0.0,0.0,0.0,0.0,0.0,5.1211,0.0,0.0,0.0,0.0,5.6562,0.0,0.0,0.0,0.0,0.0,0.0,5.5508,0.0,0.0,0.0,0.0,0.0,0.0,0.0,0.0,0.0,0.0,0.0,0.0,0.0,0.0,5.543,5.5351,5.5742,5.6562,5.6601,5.6601,5.6601,5.6601,5.6601,5.6601,5.6601,5.6601,5.6601,5.6601,5.6601,5.6601,5.6601,5.6601,5.6601,5.6601,5.6601,5.6758,5.8476,5.914,5.9219,5.9219,6.0273,6.1719,4.7021,4.6932,4.6364,4.5042,4.5228,4.5587,4.5587,4.5545,4.6011,0.0,0.0,0.0,0.0,5.3301,5.4032,0.0,0.0,5.3922,5.2858,5.227,0.0,0.0,0.0,5.0769,0.0,0.0,0.0,5.151,5.0971,5.0712,5.0712,5.0712,5.0971,5.1433,5.0048,4.9548,0.0,0.0,0.0,0.0,0.0,4.674,4.6432,0.0,0.0,4.5594,4.5594,4.5594,0.0,4.6106,4.6651,4.7134,4.706,4.7834,4.8658,4.8163,4.8437,0.0,0.0,0.0,4.9687,5.1055,0.0,0.0,0.0,0.0,0.0,0.0,0.0,0.0,0.0,0.0,5.6484,5.6211,5.664,0.0,0.0,0.0,0.0,0.0,0.0,0.0,0.0,0.0,0.0,0.0,0.0,0.0,0.0,5.5,5.543,5.5742,5.6289,5.6601,5.6601,5.6601,5.6601,5.6601,5.6601,5.6601,5.6601,5.6601,5.6601,5.6601,5.6601,5.6601,5.664,5.7226,5.7461,5.7578,5.875,5.9531,6.0078,6.0625,6.1211,6.1719,4.8777,4.8696,4.8099,0.0,0.0,4.6993,4.6993,0.0,0.0,0.0,5.0337,0.0,5.4136,0.0,5.5023,0.0,5.5596,5.4913,5.3314,5.2931,0.0,5.161,5.1202,0.0,0.0,0.0,0.0,0.0,5.0933,5.0712,5.0712,5.0712,5.0971,5.1395,5.001,4.924,4.8894,4.8048,4.7201,0.0,0.0,4.6432,0.0,0.0,4.5787,4.6009,0.0,4.5594,4.5629,4.5761,4.6177,4.6607,4.6173,4.6869,4.7758,4.7219,4.7499,4.8242,4.9414,4.9336,0.0,5.0976,5.207,0.0,5.3789,0.0,0.0,0.0,0.0,0.0,0.0,0.0,0.0,5.6172,5.6406,5.6601,0.0,5.7344,0.0,0.0,0.0,0.0,0.0,0.0,0.0,0.0,0.0,0.0,0.0,0.0,5.4961,5.5273,5.6133,5.6601,5.6601,5.6601,5.6601,5.6601,5.6601,5.6601,5.6601,5.6601,5.6601,5.6601,5.6601,5.6797,5.7109,5.7656,5.8086,5.8437,5.9297,5.9922,6.0469,6.1015,6.1445,6.1719,4.9407,0.0,0.0,0.0,4.8893,0.0,0.0,0.0,5.0839,0.0,5.2344,5.3665,5.4473,5.5244,5.5684,5.5647,5.5669,0.0,5.335,5.2527,0.0,0.0,5.1232,5.1249,5.0907,0.0,0.0,0.0,0.0,5.0712,5.0712,5.0712,5.0712,5.0673,4.9817,4.8971,4.8048,4.7269,4.6441,4.5612,4.5612,4.5659,4.5667,4.5629,4.6159,4.6805,4.592,4.562,4.5624,4.5775,4.5853,4.5884,4.5927,4.6082,4.6288,4.6145,4.62,4.668,4.8437,4.8906,4.9297,5.0976,0.0,0.0,0.0,0.0,5.5469,0.0,0.0,0.0,0.0,0.0,0.0,5.5508,5.6055,5.6601,0.0,0.0,0.0,0.0,0.0,0.0,0.0,0.0,0.0,0.0,0.0,0.0,0.0,0.0,5.4414,5.5195,5.6133,5.6601,5.6601,5.6601,5.6601,5.6601,5.6601,5.6601,5.6601,5.6601,5.6601,5.6601,5.664,5.7148,5.789,5.8008,5.8515,5.9336,6.0156,6.0469,6.0469,6.0469,6.0976,6.1719,5.0545,5.0288,5.0031,0.0,4.8893,4.8526,0.0,0.0,0.0,0.0,5.3995,5.55,5.6932,5.7262,5.7152,5.6528,5.6492,0.0,0.0,0.0,0.0,5.2637,5.2955,5.3265,5.3525,5.2683,0.0,5.2549,0.0,5.0712,5.0712,5.0712,5.0712,5.0712,5.0481,4.951,4.8086,4.7894,4.699,4.5747,4.5747,4.6177,0.0,0.0,4.6358,4.7,4.6066,4.5796,4.5825,4.5862,4.5896,4.5935,4.6008,4.6087,4.6152,4.6245,4.6288,4.668,4.8437,4.8906,4.9297,5.0976,5.207,5.2773,0.0,0.0,0.0,0.0,0.0,0.0,0.0,0.0,0.0,0.0,0.0,0.0,0.0,0.0,0.0,0.0,0.0,0.0,0.0,0.0,0.0,0.0,0.0,0.0,0.0,0.0,0.0,5.4336,5.582,5.6601,5.6601,5.6601,5.6601,5.6601,5.6601,5.6601,5.6601,5.6601,5.6601,5.664,5.7265,5.7695,5.8008,5.9258,5.9883,6.0195,6.1015,6.1367,6.1367,6.1367,6.1523,6.1719,5.1353,0.0,0.0,5.0749,0.0,0.0,5.0565,0.0,0.0,5.3518,5.4509,0.0,5.6822,5.6932,5.6638,5.5831,5.5757,0.0,5.3959,0.0,0.0,5.3481,5.3497,5.3574,5.3669,5.2768,0.0,5.2125,0.0,5.0712,5.0712,5.0712,5.0712,5.0673,5.0289,4.9586,4.8634,4.7915,4.7154,4.6397,4.6003,0.0,0.0,4.6074,4.622,4.664,4.6117,4.5909,4.5879,4.5879,4.5952,4.5988,4.6001,4.6087,4.6198,4.6202,4.6248,4.6601,4.7969,4.8594,4.9219,5.0547,5.1523,5.2226,5.2617,5.3086,5.3555,0.0,0.0,0.0,0.0,0.0,0.0,0.0,0.0,0.0,0.0,0.0,0.0,0.0,0.0,0.0,0.0,0.0,0.0,0.0,0.0,0.0,0.0,0.0,0.0,5.4023,5.6055,5.6992,5.6601,5.6992,5.6992,5.6601,5.6601,5.6601,5.6601,5.6601,5.6601,5.664,5.7539,5.8125,5.8555,5.9883,6.0625,6.1015,6.1523,6.1719,6.1719,6.1719,6.1719,6.1719,0.0,0.0,0.0,0.0,0.0,0.0,0.0,5.2307,0.0,5.4216,0.0,5.4803,5.5522,5.5596,5.528,5.4473,0.0,5.4069,5.324,5.3251,5.3424,5.3758,5.3558,5.3299,5.2933,5.2352,0.0,0.0,0.0,5.0712,5.0712,5.0596,5.0596,5.0673,4.9779,4.9336,0.0,4.754,4.6946,4.6999,4.6216,4.5952,4.5963,4.5963,4.6011,4.6138,4.6138,4.6067,4.5963,4.5963,4.6014,4.6091,4.5988,4.6095,4.6288,4.615,4.628,4.6641,4.7539,4.8398,4.9297,5.0156,5.0898,5.1601,5.2344,5.2539,5.2734,5.3516,5.3672,5.3476,0.0,0.0,0.0,0.0,0.0,0.0,0.0,0.0,0.0,0.0,0.0,0.0,0.0,0.0,0.0,0.0,0.0,0.0,0.0,0.0,0.0,5.4062,5.6445,5.7422,5.6797,0.0,5.7422,5.6758,5.664,5.6601,5.6601,5.6719,5.6758,5.6836,5.7812,5.8672,5.9414,6.0234,6.1015,6.1719,6.1719,6.1719,6.1719,6.1719,6.1719,6.1719,0.0,0.0,0.0,0.0,0.0,5.3995,5.3995,5.3995,5.4069,5.4363,5.4987,5.5427,5.5596,5.5596,5.528,5.4473,5.4399,0.0,0.0,0.0,0.0,5.3777,5.4443,5.4735,5.465,5.3552,5.2895,0.0,0.0,5.0712,5.0673,4.9971,5.001,5.0673,4.9779,4.9071,4.8392,4.679,0.0,4.6267,4.6111,4.614,4.6245,4.6245,4.6247,4.6249,4.6249,4.6247,4.6245,4.6245,4.6247,4.6248,4.6246,4.6249,4.6289,4.6288,4.6796,4.7578,4.8437,4.9297,5.0156,5.0976,5.1289,5.1445,5.1601,5.1641,5.168,5.1836,5.1875,5.2031,5.2617,0.0,0.0,0.0,0.0,0.0,0.0,0.0,0.0,0.0,0.0,0.0,0.0,0.0,0.0,0.0,0.0,0.0,0.0,0.0,0.0,0.0,5.5859,0.0,0.0,0.0,5.7109,5.7656,5.6953,5.6601,5.6601,5.7344,5.7656,5.7773,5.9297,6.0039,6.0273,6.1133,6.1562,6.1719,6.1719,6.1719,6.1719,6.1719,6.1719,6.1719,0.0,0.0,0.0,0.0,0.0,0.0,0.0,5.4909,0.0,5.4485,5.3995,5.3885,5.4326,5.4363,5.4216,5.3812,5.3775,5.3718,5.3504,5.3683,5.4013,5.4446,5.4458,0.0,5.4135,5.3091,5.2318,5.1895,0.0,0.0,5.001,4.9586,4.9625,5.0019,4.9676,4.9393,0.0,0.0,0.0,4.6826,4.6396,4.6247,4.6289,4.6289,4.6289,4.6289,4.6289,4.6289,4.6289,4.6289,4.6289,4.6289,4.6289,4.6289,4.6289,4.6289,4.6914,4.7695,4.8125,4.918,5.0273,5.0664,5.1094,5.1523,5.1953,5.207,5.2187,5.2656,5.2734,5.3008,5.3906,5.4765,0.0,0.0,0.0,0.0,0.0,0.0,0.0,0.0,0.0,0.0,0.0,0.0,0.0,0.0,0.0,0.0,0.0,0.0,0.0,0.0,0.0,0.0,0.0,0.0,0.0,5.7226,5.7265,5.7265,5.7305,5.8164,5.8555,5.8633,5.9883,6.039,6.0469,6.1328,6.1719,6.1719,6.1719,6.1719,6.1719,6.1719,6.1719,6.1719,0.0,5.3171,0.0,0.0,5.439,0.0,5.4913,5.5327,5.546,5.4785,5.3427,5.2762,5.3427,5.3501,5.3501,5.3501,5.3501,5.3604,5.3923,5.3843,5.4102,5.4775,5.4066,5.3525,5.3192,5.2346,5.151,0.0,0.0,0.0,0.0,4.9317,4.9307,0.0,0.0,0.0,0.0,0.0,4.7409,4.7266,4.6797,4.6484,4.6289,4.6289,4.6406,4.6562,4.6367,4.6406,4.6562,4.6367,4.6289,4.6289,4.6289,4.6289,4.6328,4.6523,4.7187,4.793,4.8086,4.9297,5.0469,5.0469,5.1055,5.1875,5.2539,5.2851,5.3164,5.3867,5.3984,5.4258,5.5156,5.5703,0.0,0.0,0.0,0.0,0.0,0.0,0.0,0.0,0.0,0.0,0.0,0.0,0.0,0.0,0.0,0.0,0.0,0.0,0.0,0.0,0.0,5.6875,5.7383,0.0,5.7734,0.0,5.793,5.8164,5.8203,5.9062,5.9453,5.9492,6.0312,6.0664,6.0742,6.1406,6.1719,6.1719,6.1719,6.1719,6.1719,6.1719,6.1719,6.1719,0.0,0.0,0.0,0.0,0.0,0.0,0.0,5.5206,5.568,5.5597,5.4806,5.4296,5.4355,5.4355,5.4355,5.4355,5.4355,5.4371,5.442,5.404,5.3846,5.3912,5.3468,5.3248,5.3203,5.2346,5.151,0.0,0.0,0.0,0.0,0.0,0.0,0.0,0.0,0.0,0.0,4.7611,4.7148,4.6484,4.7187,4.6992,4.6289,4.6289,4.6797,4.7383,4.6562,4.6797,4.7344,4.6562,4.6289,4.6289,4.6289,4.6289,4.6445,4.7266,4.8086,4.8945,4.9726,5.0625,5.1289,5.1289,5.1953,5.2617,5.2695,5.332,5.3906,5.3984,5.3984,5.4258,5.5156,5.4726,5.5039,0.0,0.0,0.0,0.0,0.0,0.0,0.0,0.0,0.0,0.0,0.0,0.0,0.0,0.0,0.0,0.0,0.0,0.0,5.5156,0.0,5.7695,6.0039,5.8633,5.8633,6.0039,5.9375,5.9062,5.9101,5.9922,6.0273,6.0351,6.1211,6.1562,6.1562,6.168,6.1719,6.1719,6.1719,6.1719,6.1719,6.1719,6.1719,6.1719,0.0,0.0,0.0,0.0,0.0,0.0,0.0,5.4139,5.4193,5.4193,5.3926,5.3714,5.3714,5.3245,5.2944,5.2944,5.2944,5.3051,5.3324,5.3172,5.32,5.343,5.2784,5.2423,5.2423,5.1625,5.101,0.0,0.0,0.0,0.0,0.0,0.0,0.0,0.0,4.8774,4.9055,4.8593,4.8164,4.7891,4.8242,4.7851,4.7148,4.7656,4.7734,4.7617,4.7812,4.8086,4.832,4.7969,4.75,4.707,4.707,4.7422,4.793,4.8281,4.8984,4.9766,5.0117,5.0781,5.1523,5.2031,5.2422,5.2969,5.4023,5.4531,5.4922,5.5469,5.5547,5.5664,5.6015,5.6211,5.6523,0.0,0.0,0.0,0.0,0.0,0.0,0.0,0.0,0.0,0.0,0.0,0.0,0.0,0.0,0.0,0.0,0.0,0.0,5.6055,0.0,5.707,5.9648,5.9023,5.9023,5.9687,5.9844,5.9922,5.9961,6.0781,6.1172,6.1211,6.1562,6.1719,6.1719,6.1719,6.1719,6.1719,6.1719,6.1719,6.1719,6.1719,6.1719,6.1719,5.404,0.0,5.4072,0.0,5.4013,5.3644,5.3644,5.3371,5.3203,5.3203,5.2958,5.2907,5.3172,5.2641,5.2261,5.2261,5.2261,5.2408,5.274,5.2561,5.2514,5.2808,5.201,0.0,5.1548,5.0971,5.0558,5.0327,5.0327,0.0,0.0,0.0,0.0,0.0,4.8917,4.9199,4.9414,4.9336,4.9141,4.8906,4.918,4.875,4.8047,4.8672,4.8672,4.8398,4.8789,4.9062,4.9258,4.8984,4.8672,4.832,4.8047,4.8398,4.8945,4.9219,4.9726,5.0234,5.0508,5.1133,5.1914,5.2539,5.3086,5.3789,5.5039,5.5508,5.5859,5.6484,5.6601,5.668,5.6953,5.7265,5.7461,5.7383,0.0,0.0,0.0,0.0,0.0,0.0,0.0,5.4219,5.3164,0.0,0.0,0.0,0.0,0.0,0.0,0.0,0.0,0.0,0.0,0.0,0.0,5.9531,5.9687,5.9922,6.0508,6.0781,6.0781,6.1406,6.1719,6.1719,6.1719,6.1719,6.1719,6.1719,6.1719,6.1719,6.1719,6.1719,6.1719,6.1719,6.1719,6.1719,5.4576,5.3747,5.302,5.4265,5.3769,5.3192,5.3192,5.3192,5.3203,5.3203,5.2462,5.2221,5.3115,5.3192,5.3192,5.3192,5.3192,5.3192,5.3192,5.2385,5.1923,0.0,0.0,5.0712,5.0712,5.0712,5.0289,4.9433,0.0,0.0,4.6932,0.0,4.8427,4.8738,4.9599,4.9121,4.7734,4.9453,4.9687,4.8984,4.9844,4.9648,4.8906,4.8906,4.9414,5.0078,4.9219,4.9453,5.0039,4.918,4.9453,5.0039,4.9141,4.8906,4.9062,4.9922,5.0195,5.0351,5.1172,5.2031,5.2695,5.2695,5.3984,5.5273,5.5312,5.5976,5.6601,5.6601,5.6601,5.6875,5.7734,5.7187,5.7187,5.8906,0.0,0.0,0.0,0.0,0.0,0.0,5.8594,5.7773,5.4336,0.0,0.0,0.0,0.0,0.0,0.0,0.0,0.0,5.5273,5.6992,0.0,6.0351,6.039,6.082,6.168,6.168,6.168,6.168,6.1719,6.1719,6.1719,6.1719,6.1719,6.1719,6.1719,6.1719,6.1719,6.1719,6.1719,6.1719,6.1719,6.1719,6.1719,5.4953,5.4879,5.4682,5.4538,5.428,5.3895,5.328,5.3203,5.301,5.2385,5.2077,5.1808,5.151,5.151,5.151,0.0,5.151,5.151,0.0,5.1241,5.1087,5.1087,5.0827,5.0712,5.0712,5.0712,5.0558,5.0289,0.0,0.0,0.0,4.9236,4.9205,4.8747,4.9715,4.9842,4.9453,5.0547,5.0547,4.9844,5.0703,5.0156,4.9023,5.0156,5.043,5.0234,5.0508,5.0781,5.0976,5.0703,5.0781,5.0976,5.0703,5.0586,5.0664,5.0937,5.1016,5.1211,5.207,5.25,5.3008,5.418,5.4883,5.5469,5.6055,5.6406,5.6601,5.6601,5.6601,5.6875,5.7734,5.7656,5.7851,5.9023,5.8984,0.0,0.0,0.0,0.0,0.0,5.5508,5.4765,0.0,5.4062,0.0,0.0,0.0,0.0,0.0,0.0,0.0,0.0,5.7617,0.0,6.125,6.1289,6.1445,6.1719,6.1719,6.1719,6.1719,6.1719,6.1719,6.1719,6.1719,6.1719,6.1719,6.1719,6.1719,6.1719,6.1719,6.1719,6.1719,6.1719,6.1719,6.1719,5.5237,5.5274,5.4972,5.4164,5.3741,5.3241,5.2395,5.2241,5.2087,5.151,5.1471,5.1279,5.075,5.0712,0.0,5.0712,5.0712,5.0712,5.0712,5.0712,5.0712,5.0712,5.0712,5.0712,5.0712,0.0,0.0,5.0712,5.042,5.0109,4.9731,4.9913,4.9733,4.9281,4.992,5.0039,4.9766,5.0586,5.0664,5.0273,5.1094,5.0781,4.9961,5.1016,5.1094,5.0703,5.1211,5.1406,5.1406,5.1406,5.1406,5.1406,5.1406,5.1406,5.1406,5.1406,5.1641,5.1992,5.2539,5.3164,5.3945,5.5039,5.5547,5.5937,5.6484,5.6601,5.6601,5.6601,5.6875,5.7344,5.8242,5.8398,5.8672,5.9492,5.9648,5.9258,5.8086,0.0,0.0,0.0,0.0,0.0,0.0,5.4922,0.0,0.0,0.0,0.0,0.0,0.0,0.0,5.7383,5.8359,0.0,6.1211,6.1523,6.1719,6.1719,6.1719,6.1719,6.1719,6.1719,6.1719,6.1719,6.1719,6.1719,6.1719,6.1719,6.1719,6.1719,6.1719,6.1719,6.1719,6.1719,6.1719,6.1719,5.5303,5.4972,0.0,0.0,5.2538,0.0,5.0933,5.0827,5.0866,5.0789,5.0789,5.075,5.0712,5.0712,5.0712,5.0712,0.0,0.0,0.0,5.0712,5.0712,5.0712,5.0712,5.0712,5.0712,5.0712,5.0721,5.0693,5.0055,4.9814,4.9998,5.0002,5.0025,5.0039,5.0078,4.9648,4.8867,4.9726,5.0117,5.0195,5.0976,5.1328,5.1328,5.1367,5.1406,5.1406,5.1406,5.1406,5.1406,5.1406,5.1406,5.1406,5.1406,5.1406,5.1406,5.1484,5.207,5.2734,5.2851,5.4062,5.5312,5.539,5.6015,5.6601,5.6601,5.6601,5.6601,5.668,5.7344,5.8164,5.9101,5.9297,5.9531,6.0351,6.043,5.9844,5.8203,0.0,0.0,0.0,0.0,0.0,0.0,5.8125,5.8164,0.0,0.0,0.0,0.0,0.0,5.8555,5.6758,5.9101,6.043,6.0508,6.1289,6.1719,6.1719,6.1719,6.1719,6.1719,6.1719,6.1719,6.1719,6.1719,6.1719,6.1719,6.1719,6.1719,6.1719,6.1719,6.1719,6.1719,6.1719,6.1719,6.1719,0.0,0.0,5.401,5.2462,5.3126,5.3356,5.1856,5.2164,5.2356,5.1702,5.1625,5.1395,5.0789,5.0712,5.0712,5.0712,5.0712,5.0712,5.0712,5.0712,5.0712,5.0712,5.0712,5.0712,5.0712,5.0712,5.0767,5.0859,5.0812,5.0543,4.9994,5.0107,4.9452,4.8242,4.8906,4.8711,4.7969,4.8828,4.9219,4.9297,5.0156,5.0469,5.0547,5.1172,5.1406,5.1406,5.1406,5.1406,5.1406,5.1406,5.1406,5.1406,5.1406,5.1406,5.1523,5.2187,5.2539,5.3008,5.4336,5.5,5.5469,5.6133,5.6445,5.6601,5.6601,5.6601,5.6797,5.7461,5.7773,5.8359,5.9844,6.0117,6.039,6.125,6.082,6.0039,5.9023,5.8515,0.0,0.0,5.7109,5.7578,5.668,5.7578,5.8476,0.0,0.0,0.0,0.0,6.039,6.0039,5.7656,5.9414,6.0703,6.1406,6.1601,6.1719,6.1719,6.1719,6.1719,6.1719,6.1719,6.1719,6.1719,6.1719,6.1719,6.1719,6.1719,6.1719,6.1719,6.1719,6.1719,6.1719,6.1719,6.1719,6.1719,5.3126,5.3587,5.3472,5.2115,5.2692,5.2856,5.1548,5.1741,5.1895,5.1395,5.1356,5.1202,5.075,5.0712,5.0712,5.0712,5.0712,5.0712,5.0712,5.0712,5.0712,5.0712,5.0712,5.0721,5.0791,5.0799,5.0874,5.104,5.1161,5.0826,5.0103,5.0155,4.9492,4.8203,4.8672,4.8437,4.7695,4.8945,4.9258,4.9023,5.0234,5.0742,5.0781,5.1211,5.1406,5.1406,5.1406,5.1406,5.1445,5.1875,5.1992,5.207,5.2461,5.2578,5.2773,5.3633,5.3594,5.3594,5.4922,5.5586,5.6015,5.6484,5.6601,5.6719,5.7109,5.7187,5.7422,5.832,5.8789,5.9336,6.0234,6.0742,6.1015,6.1094,6.0703,5.9961,5.8789,5.8203,0.0,5.6601,5.7305,5.7851,5.7812,5.8555,5.9258,5.9805,0.0,0.0,5.9883,6.1015,6.0898,5.9101,6.0312,6.1211,6.1719,6.1719,6.1719,6.1719,6.1719,6.1719,6.1719,6.1719,6.1719,6.1719,6.1719,6.1719,6.1719,6.1719,6.1719,6.1719,6.1719,6.1719,6.1719,6.1719,6.1719,6.1719,5.2664,5.2933,5.2741,5.1885,5.1808,5.1625,5.0827,5.0712,5.0712,5.0712,5.0712,5.0712,5.0712,5.0712,5.0712,5.0712,5.0712,5.0712,5.0712,5.0712,5.0721,5.0721,5.073,5.0799,5.0925,5.0959,5.103,5.1204,5.1213,5.0806,5.0,5.0,4.9531,4.8711,4.8711,4.8359,4.7891,4.9375,4.9648,4.9219,5.0664,5.1289,5.1406,5.1406,5.1406,5.1406,5.1406,5.1406,5.1523,5.2422,5.2695,5.2851,5.3711,5.3984,5.418,5.5039,5.4765,5.4375,5.5273,5.6055,5.6601,5.6601,5.6719,5.6992,5.7734,5.8008,5.8359,5.9219,5.9922,6.043,6.0586,6.1211,6.1445,6.0703,6.039,5.9726,5.8281,0.0,5.789,5.789,5.8125,5.8555,5.9297,6.0,6.0156,5.9609,6.0781,6.0937,0.0,6.0937,6.1367,6.0625,6.1328,6.1719,6.1719,6.1719,6.1719,6.1719,6.1719,6.1719,6.1719,6.1719,6.1719,6.1719,6.1719,6.1719,6.1719,6.1719,6.1719,6.1719,6.1719,6.1719,6.1719,6.1719,6.1719,6.1719,5.1058,5.1625,5.1846,5.101,5.1471,5.1625,5.0827,5.0712,5.0712,5.0712,5.0712,5.0712,5.0712,5.0712,5.0712,5.0712,5.0712,5.0712,5.0712,5.0712,5.0767,5.0875,5.0883,5.0932,5.1058,5.1125,5.118,5.1204,5.1319,5.0585,4.9101,4.9101,4.8633,4.7812,4.7812,4.8125,4.8711,4.8984,4.9453,5.0039,5.0273,5.0781,5.1406,5.1406,5.1406,5.1406,5.1406,5.1406,5.1523,5.2422,5.2695,5.2851,5.3711,5.3984,5.418,5.5039,5.5195,5.5273,5.6172,5.6484,5.6601,5.6601,5.7148,5.7734,5.7851,5.8476,5.9219,6.0039,6.0312,6.0625,6.1367,6.1601,6.164,6.1523,6.0312,5.9297,5.9023,0.0,5.789,5.789,5.914,6.0078,6.0195,6.0312,6.0664,6.1289,6.0859,6.082,6.1289,6.1562,6.164,6.1484,6.164,6.1719,6.1719,6.1719,6.1719,6.1719,6.1719,6.1719,6.1719,6.1719,6.1719,6.1719,6.1719,6.1719,6.1719,6.1719,6.1719,6.1719,6.1719,6.1719,6.1719,6.1719,6.1719,6.1797,5.0712,5.101,5.1125,5.075,5.101,5.1125,5.075,5.0712,5.0712,5.0712,5.0712,5.0712,5.0712,5.0712,5.0721,5.0816,5.0825,5.0835,5.0903,5.0851,5.0883,5.0984,5.099,5.0869,5.0516,5.0594,5.042,4.995,5.0038,4.9648,4.8906,4.8906,4.8672,4.832,4.8789,4.8945,4.8945,4.9844,5.0234,5.0234,5.0664,5.1055,5.1406,5.1406,5.1406,5.1445,5.1914,5.1797,5.168,5.3476,5.3789,5.3633,5.4961,5.539,5.5469,5.5898,5.6015,5.6094,5.6484,5.6601,5.6719,5.7187,5.7617,5.8125,5.9023,5.957,6.0078,6.0937,6.1094,6.1211,6.164,6.1719,6.1562,6.1094,6.0,0.0,0.0,5.8437,5.8242,5.914,5.9922,6.0586,6.1055,6.1094,6.1289,6.168,6.1328,6.1289,6.168,6.1719,6.1719,6.1719,6.1719,6.1719,6.1719,6.1719,6.1719,6.1719,6.1719,6.1719,6.1719,6.1719,6.1719,6.1719,6.1719,6.1719,6.1719,6.1719,6.1719,6.1719,6.1719,6.1719,6.1719,6.1719,6.1992,6.2461,5.075,5.0856,5.0933,5.075,5.0712,5.0712,5.0712,5.0712,5.0712,5.0712,5.0712,5.0712,5.0712,5.0721,5.0791,5.0874,5.0932,5.099,5.1126,5.1042,5.1031,5.1131,5.116,5.0816,5.0049,5.0153,4.9883,4.9219,4.9219,4.9219,4.9219,4.9219,4.9219,4.9219,4.9883,4.9922,4.957,5.0859,5.1055,5.0547,5.1133,5.1406,5.1406,5.1406,5.1523,5.1797,5.2461,5.2383,5.2344,5.457,5.4844,5.457,5.6094,5.6601,5.6601,5.6601,5.6601,5.6601,5.6601,5.6601,5.6797,5.7695,5.8047,5.8594,6.0078,6.0547,6.0898,6.1562,6.1719,6.1719,6.1719,6.1719,6.1484,6.082,0.0,0.0,0.0,5.8906,5.8945,6.0234,6.0586,6.0976,6.164,6.1719,6.1719,6.1719,6.1719,6.1719,6.1719,6.1719,6.1719,6.1719,6.1719,6.1719,6.1719,6.1719,6.1719,6.1719,6.1719,6.1719,6.1719,6.1719,6.1719,6.1719,6.1719,6.1719,6.1719,6.1719,6.1719,6.1719,6.1719,6.1719,6.1719,6.1719,6.2109,6.2692,5.0866,5.1318,5.1587,5.0827,5.0712,5.0712,5.0712,5.0712,5.0712,5.0712,5.0712,5.0712,5.0712,5.0825,5.0874,5.0889,5.0996,5.1131,5.1191,5.1191,5.1191,5.1196,5.1317,5.1015,5.0195,5.0195,5.0156,5.0117,5.0117,5.0117,5.0117,5.0117,5.0117,5.0117,5.0156,5.0586,5.1211,5.1367,5.1367,5.1328,5.1367,5.1406,5.1406,5.1406,5.1914,5.2617,5.2695,5.3164,5.3945,5.4961,5.5273,5.5351,5.6289,5.6601,5.6601,5.6601,5.6601,5.6601,5.6601,5.6601,5.6797,5.7695,5.8515,5.9336,6.0195,6.1015,6.1601,6.168,6.1719,6.1719,6.1719,6.1719,6.168,6.1601,0.0,0.0,6.0312,6.0273,6.0273,6.039,6.1094,6.164,6.168,6.1719,6.1719,6.1719,6.1719,6.1719,6.1719,6.1719,6.1719,6.1719,6.1719,6.1719,6.1719,6.1719,6.1719,6.1719,6.1719,6.1719,6.1719,6.1719,6.1719,6.1719,6.1719,6.1719,6.1719,6.1719,6.1719,6.1719,6.1719,6.1719,6.1719,6.1719,6.167,6.1746,5.075,5.0933,5.1048,5.075,5.0712,5.0712,5.0712,5.0712,5.073,5.0795,5.0811,5.0859,5.0945,5.0972,5.1047,5.1092,5.1136,5.1191,5.1319,5.1321,5.1321,5.1321,5.1366,5.0781,4.9414,4.9922,4.9687,4.8594,4.9141,4.9687,5.0195,5.0195,5.0469,5.0937,5.0937,5.1094,5.1406,5.1406,5.1406,5.1406,5.1406,5.1406,5.1406,5.1406,5.1953,5.2695,5.2695,5.3242,5.4141,5.5,5.5312,5.5469,5.6328,5.6601,5.6601,5.6601,5.6992,5.7422,5.7422,5.7422,5.7617,5.8476,5.9336,6.0156,6.1015,6.1445,6.1719,6.1719,6.1719,6.1719,6.1719,6.1719,6.1719,6.1719,0.0,6.0586,6.1133,6.0742,6.0586,6.1133,6.1484,6.1719,6.1719,6.1719,6.1719,6.1719,6.1719,6.1719,6.1719,6.1719,6.1719,6.1719,6.1719,6.1719,6.1719,6.1719,6.1719,6.1719,6.1719,6.1719,6.1719,6.1719,6.1719,6.1719,6.1719,6.1719,6.1719,6.1719,6.1719,6.1719,6.1719,6.1719,6.1719,6.1719,6.1942,6.2362,5.075,5.0894,5.101,5.075,5.0712,5.0693,5.0776,5.0747,5.0825,5.0952,5.0972,5.1017,5.1084,5.1126,5.114,5.1199,5.1258,5.1317,5.1406,5.1406,5.1406,5.1406,5.1406,5.0742,4.9336,4.9883,4.9609,4.8437,4.9023,4.9726,5.0586,5.0586,5.0859,5.1406,5.1406,5.1406,5.1406,5.1406,5.1406,5.1406,5.1406,5.1406,5.1406,5.1406,5.2109,5.3125,5.3125,5.3828,5.4922,5.5508,5.5703,5.582,5.6406,5.6601,5.664,5.6914,5.7422,5.7969,5.8242,5.8476,5.8828,5.9414,6.0,6.0625,6.1484,6.1719,6.1719,6.1719,6.1719,6.1719,6.1719,6.1719,6.1719,6.1719,6.1211,6.1015,6.1601,6.1172,6.1015,6.164,6.1719,6.1719,6.1719,6.1719,6.1719,6.1719,6.1719,6.1719,6.1719,6.1719,6.1719,6.1719,6.1719,6.1719,6.1719,6.1719,6.1719,6.1719,6.1719,6.1719,6.1719,6.1719,6.1719,6.1719,6.1719,6.1719,6.1719,6.1719,6.1719,6.1719,6.1719,6.1719,6.1719,6.1992,6.2363,6.2707,5.0866,5.1356,5.1625,5.0827,5.0712,5.0758,5.0859,5.0889,5.0959,5.1074,5.1094,5.1094,5.1094,5.1158,5.1204,5.1204,5.1321,5.1406,5.1406,5.1406,5.1406,5.1406,5.1406,5.1016,5.0234,5.0195,5.0195,5.0195,5.0195,5.0625,5.1406,5.1406,5.1406,5.1406,5.1406,5.1406,5.1406,5.1406,5.1406,5.1406,5.1406,5.1406,5.1406,5.1406,5.2461,5.3984,5.3984,5.5117,5.6601,5.6601,5.6601,5.6601,5.6601,5.6601,5.6758,5.7656,5.789,5.8086,5.8984,5.9805,6.039,6.039,6.039,6.0625,6.1484,6.1719,6.1719,6.1719,6.1719,6.1719,6.1719,6.1719,6.1719,6.1719,6.1719,6.1719,6.1719,6.1719,6.1719,6.1719,6.1719,6.1719,6.1719,6.1719,6.1719,6.1719,6.1719,6.1719,6.1719,6.1719,6.1719,6.1719,6.1719,6.1719,6.1719,6.1719,6.1719,6.1719,6.1719,6.1719,6.1719,6.1719,6.1719,6.1719,6.1719,6.1719,6.1719,6.1719,6.1719,6.1719,6.1719,6.1719,6.1797,6.2695,6.2767,6.2483,5.075,5.0957,5.1106,5.0874,5.0918,5.0978,5.102,5.1031,5.1079,5.1158,5.1167,5.1227,5.1307,5.1319,5.1324,5.1324,5.1366,5.1406,5.1406,5.1406,5.1406,5.1406,5.1406,5.1016,5.0234,5.0742,5.0781,5.0195,5.0781,5.1172,5.1406,5.1406,5.1406,5.1406,5.1406,5.1406,5.1406,5.1406,5.1406,5.1406,5.1406,5.1406,5.1406,5.1406,5.2461,5.3906,5.332,5.4609,5.6523,5.5898,5.6094,5.6601,5.6601,5.6601,5.6758,5.7656,5.832,5.8984,5.9805,6.0664,6.1172,6.0547,6.0859,6.1367,6.164,6.1719,6.1719,6.1719,6.1719,6.1719,6.1719,6.1719,6.1719,6.1719,6.1719,6.1719,6.1719,6.1719,6.1719,6.1719,6.1719,6.1719,6.1719,6.1719,6.1719,6.1719,6.1719,6.1719,6.1719,6.1719,6.1719,6.1719,6.1719,6.1719,6.1719,6.1719,6.1719,6.1719,6.1719,6.1719,6.1719,6.1719,6.1719,6.1719,6.1719,6.1719,6.1719,6.1719,6.1719,6.1719,6.1719,6.1635,6.169,6.2547,6.2274,6.1524,5.0773,5.0905,5.1076,5.1386,5.127,5.1225,5.1589,5.1359,5.1158,5.1267,5.1271,5.1318,5.1406,5.1406,5.1406,5.1406,5.1406,5.1406,5.1406,5.1406,5.1406,5.1406,5.1406,5.1172,5.0703,5.1133,5.1172,5.0664,5.1172,5.1406,5.1406,5.1406,5.1406,5.1406,5.1406,5.1406,5.1406,5.1406,5.1406,5.1406,5.1406,5.1406,5.1445,5.1797,5.2773,5.3984,5.3789,5.4961,5.6523,5.5976,5.6172,5.6601,5.6601,5.6836,5.7305,5.8164,5.9023,5.9844,6.0703,6.1289,6.1562,6.1055,6.1328,6.1719,6.1719,6.1719,6.1719,6.1719,6.1719,6.1719,6.1719,6.1719,6.1719,6.1719,6.1719,6.1719,6.1719,6.1719,6.1719,6.1719,6.1719,6.1719,6.1719,6.1719,6.1719,6.1719,6.1719,6.1719,6.1719,6.1719,6.1719,6.1719,6.1719,6.1719,6.1719,6.1719,6.1719,6.1719,6.1719,6.1875,6.2187,6.1875,6.1875,6.2187,6.1836,6.1719,6.1719,6.1719,6.1719,6.168,6.1635,6.1577,6.1615,6.2434,6.2199,6.1578,5.1027,5.1208,5.1541,5.2207,5.1706,5.1515,5.2374,5.1837,5.1384,5.1484,5.1523,5.1484,5.1406,5.1406,5.1406,5.1406,5.1406,5.1406,5.1406,5.1406,5.1406,5.1406,5.1406,5.1406,5.1406,5.1406,5.1406,5.1406,5.1406,5.1406,5.1406,5.1406,5.1406,5.1406,5.1406,5.1406,5.1406,5.1406,5.1406,5.1406,5.1406,5.1445,5.1601,5.2383,5.3281,5.4219,5.5039,5.5859,5.6601,5.6601,5.6601,5.6601,5.6601,5.7187,5.8086,5.8945,5.9765,6.0586,6.1445,6.1719,6.1719,6.1719,6.1719,6.1719,6.1719,6.1719,6.1719,6.1719,6.1719,6.1719,6.1719,6.1719,6.1719,6.1719,6.1719,6.1719,6.1719,6.1719,6.1719,6.1719,6.1719,6.1719,6.1719,6.1719,6.1719,6.1719,6.1719,6.1719,6.1719,6.1719,6.1719,6.1719,6.1719,6.1719,6.1719,6.1797,6.1836,6.1836,6.1836,6.2265,6.3086,6.2226,6.2265,6.2969,6.207,6.168,6.1679,6.1679,6.1679,6.1637,6.152,6.1488,6.1549,6.2296,6.2393,6.2161,5.1969,5.2641,5.3055,5.2548,5.2394,5.2415,5.2615,5.2498,5.2382,5.2422,5.2422,5.2148,5.1484,5.1406,5.1406,5.1406,5.1406,5.1406,5.1406,5.1406,5.1406,5.1406,5.1406,5.1406,5.1406,5.1406,5.1406,5.1406,5.1406,5.1406,5.1406,5.1406,5.1406,5.1406,5.1406,5.1406,5.1406,5.1406,5.1406,5.1406,5.1406,5.1797,5.2422,5.2617,5.3672,5.5039,5.5234,5.5859,5.6601,5.6601,5.6601,5.6601,5.6601,5.7187,5.8086,5.8945,5.9765,6.0586,6.1445,6.1719,6.1719,6.1719,6.1719,6.1719,6.1719,6.1719,6.1719,6.1719,6.1719,6.1719,6.1719,6.1719,6.1719,6.1719,6.1719,6.1719,6.1719,6.1719,6.1719,6.1719,6.1719,6.1719,6.1719,6.1719,6.1719,6.1719,6.1719,6.1719,6.1719,6.1719,6.1719,6.1719,6.1719,6.1719,6.1719,6.2383,6.2734,6.2734,6.2734,6.3164,6.3984,6.3125,6.2812,6.2969,6.207,6.1635,6.1527,6.1527,6.1491,6.1373,6.1344,6.1265,6.1213,6.205,6.1843,6.1114,5.1752,5.226,5.2644,5.2605,5.2302,5.2226,5.2656,5.2344,5.207,5.207,5.207,5.1914,5.1445,5.1758,5.2187,5.2617,5.2266,5.2031,5.2031,5.1641,5.1406,5.1406,5.1406,5.1406,5.1406,5.1406,5.1406,5.1406,5.1406,5.1406,5.1406,5.1406,5.1406,5.1406,5.1406,5.1406,5.1406,5.1406,5.1406,5.1406,5.1406,5.1914,5.2734,5.3164,5.4141,5.5351,5.5781,5.6211,5.6601,5.6601,5.6601,5.668,5.7109,5.7812,5.8672,5.9531,6.0351,6.1133,6.1562,6.1719,6.1719,6.1719,6.1719,6.1719,6.1719,6.1719,6.1719,6.1719,6.1719,6.1719,6.1719,6.1719,6.1719,6.1719,6.1719,6.1719,6.1719,6.1719,6.1719,6.1719,6.1719,6.1719,6.1719,6.1719,6.1719,6.1719,6.1719,6.1719,6.1719,6.1719,6.1719,6.1719,6.1719,6.1719,6.1719,6.2578,6.3203,6.3633,6.3633,6.3867,6.4258,6.3398,6.2967,6.2877,6.1979,6.152,6.1396,6.1396,6.1354,6.1277,6.12,6.1097,6.1066,6.1437,6.1263,6.0781,5.1451,5.1673,5.2031,5.2617,5.2109,5.1875,5.2578,5.2109,5.168,5.1836,5.1836,5.1836,5.1836,5.25,5.3203,5.3945,5.3359,5.293,5.293,5.2266,5.1797,5.1641,5.1601,5.1601,5.1601,5.1601,5.1562,5.1406,5.1406,5.1406,5.1406,5.1406,5.1406,5.1406,5.1406,5.1406,5.1406,5.1406,5.1484,5.1601,5.1601,5.2226,5.3203,5.3945,5.4765,5.5625,5.6328,5.6601,5.6601,5.6601,5.6601,5.6758,5.7617,5.8515,5.9375,6.0156,6.1015,6.1719,6.1719,6.1719,6.1719,6.1719,6.1719,6.1719,6.1719,6.1719,6.1719,6.1719,6.1719,6.1719,6.1719,6.1719,6.1719,6.1719,6.1719,6.1719,6.1719,6.1719,6.1719,6.1719,6.1719,6.1719,6.1719,6.1719,6.1719,6.1719,6.1719,6.1719,6.1719,6.1719,6.1719,6.1719,6.1719,6.1758,6.1914,6.2773,6.3594,6.4297,6.4453,6.4531,6.4492,6.3633,6.3078,6.2756,6.205,6.1556,6.1246,6.1396,6.1383,6.1186,6.1014,6.0982,6.0954,6.0834,6.0781,6.0781,5.2458,5.3125,5.3437,5.2812,5.2617,5.2578,5.2695,5.2617,5.2773,5.3555,5.3633,5.3633,5.3633,5.375,5.3867,5.3984,5.3906,5.3828,5.3828,5.3711,5.332,5.2578,5.2539,5.2539,5.2539,5.2539,5.2148,5.1406,5.1406,5.1406,5.1406,5.1406,5.1406,5.1406,5.1406,5.1406,5.1406,5.1406,5.1836,5.2539,5.2539,5.3516,5.4961,5.5078,5.5664,5.6445,5.6562,5.6601,5.6601,5.6601,5.6601,5.6758,5.7617,5.8515,5.9375,6.0156,6.1015,6.1719,6.1719,6.1719,6.1719,6.1719,6.1719,6.1719,6.1719,6.1719,6.1719,6.1719,6.1719,6.1719,6.1719,6.1719,6.1719,6.1719,6.1719,6.1719,6.1719,6.1719,6.1719,6.1719,6.1719,6.1719,6.1719,6.1719,6.1719,6.1719,6.1719,6.1719,6.1719,6.1719,6.1719,6.1719,6.1719,6.207,6.2812,6.3672,6.418,6.4297,6.5078,6.543,6.539,6.4531,6.3625,6.2795,6.2672,6.2011,6.1087,6.1845,6.165,6.0867,6.0823,6.085,6.08,6.0804,6.0781,6.0781,5.1953,5.2266,5.2578,5.2695,5.2305,5.2148,5.2617,5.2305,5.2109,5.25,5.2539,5.2734,5.3203,5.4141,5.4922,5.539,5.5,5.4726,5.4726,5.4258,5.3594,5.2734,5.3164,5.3203,5.2695,5.3164,5.3242,5.2851,5.2344,5.2148,5.2109,5.1641,5.1406,5.1406,5.1406,5.1406,5.1406,5.1406,5.1914,5.2695,5.2695,5.375,5.5312,5.5312,5.5859,5.6601,5.6601,5.6601,5.6601,5.6601,5.6601,5.6836,5.8203,5.8906,5.9453,6.0742,6.1406,6.1719,6.1719,6.1719,6.1719,6.1719,6.1719,6.1719,6.1719,6.1719,6.1719,6.1719,6.1719,6.1719,6.1719,6.1719,6.1719,6.1719,6.1719,6.1719,6.1719,6.1719,6.1719,6.1719,6.1719,6.1719,6.1719,6.1719,6.1719,6.1719,6.1719,6.1719,6.1719,6.1719,6.1719,6.1719,6.1719,6.1875,6.2265,6.3125,6.3555,6.3594,6.4453,6.4883,6.4844,6.3984,6.3263,6.2669,6.2157,6.1557,6.0902,6.1288,6.1214,6.0781,6.0781,6.0781,6.0781,6.0781,6.0781,6.0781]}]]